[[{"header":{"parameterUnit":"m.s-1","parameterCategory":1,"la1":30.6,"la2":28.766,"lo1":-90.7593,"lo2":-88.6598,"dy":0.0162,"dx":0.0183,"nx":116,"ny":114,"refTime":"2024-06-11T18:00:00:Z","depth":0,"parameterNumber":2,"parameterNumberName":"U-component_of_WINDS"},"data":[0.0,0.0,0.0,0.0,0.0,0.0,0.0,0.0,0.0,0.0,0.0,0.0,0.0,0.0,0.0,0.0,0.0,0.0,0.0,0.0,0.0,0.0,0.0,0.0,0.0,0.0,0.0,0.0,0.0,0.0,0.0,0.0,0.0,0.0,0.0,0.0,0.0,0.0,0.0,0.0,0.0,0.0,0.0,0.0,0.0,0.0,0.0,0.0,0.0,0.0,0.0,0.0,0.0,0.0,0.0,0.0,0.0,0.0,0.0,0.0,0.0,0.0,0.0,0.0,0.0,0.0,0.0,0.0,0.0,0.0,0.0,0.0,0.0,0.0,0.0,0.0,0.0,0.0,0.0,0.0,0.0,0.0,0.0,0.0,0.0,0.0,0.0,0.0,0.0,0.0,0.0,0.0,0.0,0.0,0.0,0.0,0.0,0.0,0.0,0.0,0.0,0.0,0.0,0.0,0.0,0.0,0.0,0.0,0.0,0.0,0.0,0.0,0.0,0.0,0.0,0.0,0.0,0.0,0.0,0.0,0.0,0.0,0.0,0.0,0.0,0.0,0.0,0.0,0.0,0.0,0.0,0.0,0.0,0.0,0.0,0.0,0.0,0.0,0.0,0.0,0.0,0.0,0.0,0.0,0.0,0.0,0.0,0.0,0.0,0.0,0.0,0.0,0.0,0.0,0.0,0.0,0.0,0.0,0.0,0.0,0.0,0.0,0.0,0.0,0.0,0.0,0.0,0.0,0.0,0.0,0.0,0.0,0.0,0.0,0.0,0.0,0.0,0.0,0.0,0.0,0.0,0.0,0.0,0.0,0.0,0.0,0.0,0.0,0.0,0.0,0.0,0.0,0.0,0.0,0.0,0.0,0.0,0.0,0.0,0.0,0.0,0.0,0.0,0.0,0.0,0.0,0.0,0.0,0.0,0.0,0.0,0.0,0.0,0.0,0.0,0.0,0.0,0.0,0.0,0.0,0.0,0.0,0.0,0.0,0.0,0.0,0.0,0.0,0.0,0.0,0.0,0.0,0.0,0.0,0.0,0.0,0.0,0.0,0.0,0.0,0.0,0.0,0.0,0.0,0.0,0.0,0.0,0.0,0.0,0.0,0.0,0.0,0.0,0.0,0.0,0.0,0.0,0.0,0.0,0.0,0.0,0.0,0.0,0.0,0.0,0.0,0.0,0.0,0.0,0.0,0.0,0.0,0.0,0.0,0.0,0.0,0.0,0.0,0.0,0.0,0.0,0.0,0.0,0.0,0.0,0.0,0.0,0.0,0.0,0.0,0.0,0.0,0.0,0.0,0.0,0.0,0.0,0.0,0.0,0.0,0.0,0.0,0.0,0.0,0.0,0.0,0.0,0.0,0.0,0.0,0.0,0.0,0.0,0.0,0.0,0.0,0.0,0.0,0.0,0.0,0.0,0.0,0.0,0.0,0.0,0.0,0.0,0.0,0.0,0.0,0.0,0.0,0.0,0.0,0.0,0.0,0.0,0.0,0.0,0.0,0.0,0.0,0.0,0.0,0.0,0.0,0.0,0.0,0.0,0.0,0.0,0.0,0.0,0.0,0.0,0.0,0.0,0.0,0.0,0.0,0.0,0.0,0.0,0.0,0.0,0.0,0.0,0.0,0.0,0.0,0.0,0.0,0.0,0.0,0.0,0.0,0.0,0.0,0.0,0.0,0.0,0.0,0.0,0.0,0.0,0.0,0.0,0.0,0.0,0.0,0.0,0.0,0.0,0.0,0.0,0.0,0.0,0.0,0.0,0.0,0.0,0.0,0.0,0.0,0.0,0.0,0.0,0.0,0.0,0.0,0.0,0.0,0.0,0.0,0.0,0.0,0.0,0.0,0.0,0.0,0.0,0.0,0.0,0.0,0.0,0.0,0.0,0.0,0.0,0.0,0.0,0.0,0.0,0.0,0.0,0.0,0.0,0.0,0.0,0.0,0.0,0.0,0.0,0.0,0.0,0.0,0.0,0.0,0.0,0.0,0.0,0.0,0.0,0.0,0.0,0.0,0.0,0.0,0.0,0.0,0.0,0.0,0.0,0.0,0.0,0.0,0.0,0.0,0.0,0.0,0.0,0.0,0.0,0.0,0.0,0.0,0.0,0.0,0.0,0.0,0.0,0.0,0.0,0.0,0.0,0.0,0.0,0.0,0.0,0.0,0.0,0.0,0.0,0.0,0.0,0.0,0.0,0.0,0.0,0.0,0.0,0.0,0.0,0.0,0.0,0.0,0.0,0.0,0.0,0.0,0.0,0.0,0.0,0.0,0.0,0.0,0.0,0.0,0.0,0.0,0.0,0.0,0.0,0.0,0.0,0.0,0.0,0.0,0.0,0.0,0.0,0.0,0.0,0.0,0.0,0.0,0.0,0.0,0.0,0.0,0.0,0.0,0.0,0.0,0.0,0.0,0.0,0.0,0.0,0.0,0.0,0.0,0.0,0.0,0.0,0.0,0.0,0.0,0.0,0.0,0.0,0.0,0.0,0.0,0.0,0.0,0.0,0.0,0.0,0.0,0.0,0.0,0.0,0.0,0.0,0.0,0.0,0.0,0.0,0.0,0.0,0.0,0.0,0.0,0.0,0.0,0.0,0.0,0.0,0.0,0.0,0.0,0.0,0.0,0.0,0.0,0.0,0.0,0.0,0.0,0.0,0.0,0.0,0.0,0.0,0.0,0.0,0.0,0.0,0.0,0.0,0.0,0.0,0.0,0.0,0.0,0.0,0.0,0.0,0.0,0.0,0.0,0.0,0.0,0.0,0.0,0.0,0.0,0.0,0.0,0.0,0.0,0.0,0.0,0.0,0.0,0.0,0.0,0.0,0.0,0.0,0.0,0.0,0.0,0.0,0.0,0.0,0.0,0.0,0.0,0.0,0.0,0.0,0.0,0.0,0.0,0.0,0.0,0.0,0.0,0.0,0.0,0.0,0.0,0.0,0.0,0.0,0.0,0.0,0.0,0.0,0.0,0.0,0.0,0.0,0.0,0.0,0.0,0.0,0.0,0.0,0.0,0.0,0.0,0.0,0.0,0.0,0.0,0.0,0.0,0.0,0.0,0.0,0.0,0.0,0.0,0.0,0.0,0.0,0.0,0.0,0.0,0.0,0.0,0.0,0.0,0.0,0.0,0.0,0.0,0.0,0.0,0.0,0.0,0.0,0.0,0.0,0.0,0.0,0.0,0.0,0.0,0.0,0.0,0.0,0.0,0.0,0.0,0.0,0.0,0.0,0.0,0.0,0.0,0.0,0.0,0.0,0.0,0.0,0.0,0.0,0.0,0.0,0.0,0.0,0.0,0.0,0.0,0.0,0.0,0.0,0.0,0.0,0.0,0.0,0.0,0.0,0.0,0.0,0.0,0.0,0.0,0.0,0.0,0.0,0.0,0.0,0.0,0.0,0.0,0.0,0.0,0.0,0.0,0.0,0.0,0.0,0.0,0.0,0.0,0.0,0.0,0.0,0.0,0.0,0.0,0.0,0.0,0.0,0.0,0.0,0.0,0.0,0.0,0.0,0.0,0.0,0.0,0.0,0.0,0.0,0.0,0.0,0.0,0.0,0.0,0.0,0.0,0.0,0.0,0.0,0.0,0.0,0.0,0.0,0.0,0.0,0.0,0.0,0.0,0.0,0.0,0.0,0.0,0.0,0.0,0.0,0.0,0.0,0.0,0.0,0.0,0.0,0.0,0.0,0.0,0.0,0.0,0.0,0.0,0.0,0.0,0.0,0.0,0.0,0.0,0.0,0.0,0.0,0.0,0.0,0.0,0.0,0.0,0.0,0.0,0.0,0.0,0.0,0.0,0.0,0.0,0.0,0.0,0.0,0.0,0.0,0.0,0.0,0.0,0.0,0.0,0.0,0.0,0.0,0.0,0.0,0.0,0.0,0.0,0.0,0.0,0.0,0.0,0.0,0.0,0.0,0.0,0.0,0.0,0.0,0.0,0.0,0.0,0.0,0.0,0.0,0.0,0.0,0.0,0.0,0.0,0.0,0.0,0.0,0.0,0.0,0.0,0.0,0.0,0.0,0.0,0.0,0.0,0.0,0.0,0.0,0.0,0.0,0.0,0.0,0.0,0.0,0.0,0.0,0.0,0.0,0.0,0.0,0.0,0.0,0.0,0.0,0.0,0.0,0.0,0.0,0.0,0.0,0.0,0.0,0.0,0.0,0.0,0.0,0.0,0.0,0.0,0.0,0.0,0.0,0.0,0.0,0.0,0.0,0.0,0.0,0.0,0.0,0.0,0.0,0.0,0.0,0.0,0.0,0.0,0.0,0.0,0.0,0.0,0.0,0.0,0.0,0.0,0.0,0.0,0.0,0.0,0.0,0.0,0.0,0.0,0.0,0.0,0.0,0.0,0.0,0.0,0.0,0.0,0.0,0.0,0.0,0.0,0.0,0.0,0.0,0.0,0.0,0.0,0.0,0.0,0.0,0.0,0.0,0.0,0.0,0.0,0.0,0.0,0.0,0.0,0.0,0.0,0.0,0.0,0.0,0.0,0.0,0.0,0.0,0.0,0.0,0.0,0.0,0.0,0.0,0.0,0.0,0.0,0.0,0.0,0.0,0.0,0.0,0.0,0.0,0.0,0.0,0.0,0.0,0.0,0.0,0.0,0.0,0.0,0.0,0.0,0.0,0.0,0.0,0.0,0.0,0.0,0.0,0.0,0.0,0.0,0.0,0.0,0.0,0.0,0.0,0.0,0.0,0.0,0.0,0.0,0.0,0.0,0.0,0.0,0.0,0.0,0.0,0.0,0.0,0.0,0.0,0.0,0.0,0.0,0.0,0.0,0.0,0.0,0.0,0.0,0.0,0.0,0.0,0.0,0.0,0.0,0.0,0.0,0.0,0.0,0.0,0.0,0.0,0.0,0.0,0.0,0.0,0.0,0.0,0.0,0.0,0.0,0.0,0.0,0.0,0.0,0.0,0.0,0.0,0.0,0.0,0.0,0.0,0.0,0.0,0.0,0.0,0.0,0.0,0.0,0.0,0.0,0.0,0.0,0.0,0.0,0.0,0.0,0.0,0.0,0.0,0.0,0.0,0.0,0.0,0.0,0.0,0.0,0.0,0.0,0.0,0.0,0.0,0.0,0.0,0.0,0.0,0.0,0.0,0.0,0.0,0.0,0.0,0.0,0.0,0.0,0.0,0.0,0.0,0.0,0.0,0.0,0.0,0.0,0.0,0.0,0.0,0.0,0.0,0.0,0.0,0.0,0.0,0.0,0.0,0.0,0.0,0.0,0.0,0.0,0.0,0.0,0.0,0.0,0.0,0.0,0.0,0.0,0.0,0.0,0.0,0.0,0.0,0.0,0.0,0.0,0.0,0.0,0.0,0.0,0.0,0.0,0.0,0.0,0.0,0.0,0.0,0.0,0.0,0.0,0.0,0.0,0.0,0.0,0.0,0.0,0.0,0.0,0.0,0.0,0.0,0.0,0.0,0.0,0.0,0.0,0.0,0.0,0.0,0.0,0.0,0.0,0.0,0.0,0.0,0.0,0.0,0.0,0.0,0.0,0.0,0.0,0.0,0.0,0.0,0.0,0.0,0.0,0.0,0.0,0.0,0.0,0.0,0.0,0.0,0.0,0.0,0.0,0.0,0.0,0.0,0.0,0.0,0.0,0.0,0.0,0.0,0.0,0.0,0.0,0.0,0.0,0.0,0.0,0.0,0.0,0.0,0.0,0.0,0.0,0.0,0.0,0.0,0.0,0.0,0.0,0.0,0.0,0.0,0.0,0.0,0.0,0.0,0.0,0.0,0.0,0.0,0.0,0.0,0.0,0.0,0.0,0.0,0.0,0.0,0.0,0.0,0.0,0.0,0.0,0.0,0.0,0.0,0.0,0.0,0.0,0.0,0.0,0.0,0.0,0.0,0.0,0.0,0.0,0.0,0.0,0.0,0.0,0.0,0.0,0.0,0.0,0.0,0.0,0.0,0.0,0.0,0.0,0.0,0.0,0.0,0.0,0.0,0.0,0.0,0.0,0.0,0.0,0.0,0.0,0.0,0.0,0.0,0.0,0.0,0.0,0.0,0.0,0.0,0.0,0.0,0.0,0.0,0.0,0.0,0.0,0.0,0.0,0.0,0.0,0.0,0.0,2.1488,0.0,0.0,0.0,0.0,0.0,0.0,0.0,0.0,0.0,0.0,0.0,0.0,0.0,0.0,0.0,0.0,0.0,0.0,0.0,0.0,0.0,0.0,0.0,0.0,1.0723,1.1426,1.1775,1.1805,1.1805,1.1805,0.0,0.0,0.0,0.0,0.0,1.1465,1.1175,1.1473,1.2447,1.3287,1.4109,1.4864,1.474,1.4775,1.4897,0.0,0.0,0.0,0.0,0.0,0.0,0.0,0.0,0.0,0.0,0.0,0.0,0.0,0.0,0.0,0.0,0.0,0.0,0.0,0.0,0.0,0.0,0.0,0.0,0.0,0.0,0.0,0.0,0.0,0.0,0.0,0.0,0.0,0.0,0.0,0.0,0.0,0.0,0.0,0.0,0.0,0.0,0.0,0.0,0.0,0.0,0.0,0.0,0.0,0.0,0.0,0.0,0.0,0.0,0.0,0.0,0.0,0.0,0.0,0.0,0.0,0.0,0.0,0.0,0.0,0.0,0.0,0.0,0.0,0.0,0.0,2.3088,0.0,0.0,0.0,0.0,0.0,0.0,0.0,0.0,0.0,0.0,0.0,0.0,0.0,0.0,0.0,0.0,0.0,0.0,0.0,0.0,0.0,0.9804,1.0024,1.1142,1.1977,1.2224,1.2239,1.2194,1.2067,1.2013,0.0,0.0,0.0,1.2184,1.2307,1.2302,1.3225,1.513,1.5306,1.6225,1.7841,1.7557,1.7871,1.8612,1.6636,0.0,0.0,0.0,0.0,0.0,0.0,0.0,0.0,0.0,0.0,0.0,0.0,0.0,0.0,0.0,0.0,0.0,0.0,0.0,0.0,0.0,0.0,0.0,0.0,0.0,0.0,0.0,0.0,0.0,0.0,0.0,0.0,0.0,0.0,0.0,0.0,0.0,0.0,0.0,0.0,0.0,0.0,0.0,0.0,0.0,0.0,0.0,0.0,0.0,0.0,0.0,0.0,0.0,0.0,0.0,0.0,0.0,0.0,0.0,0.0,0.0,0.0,0.0,2.8543,2.9371,3.0151,3.0151,3.0077,2.9854,2.8109,2.6835,2.5888,2.4678,0.0,0.0,0.0,0.0,0.0,0.0,0.0,0.0,0.0,0.0,0.0,0.0,0.0,0.0,0.0,0.0,0.0,0.0,0.0,0.9458,1.0563,1.1616,1.2697,1.3876,1.3963,1.3721,1.3142,1.2837,0.0,0.0,1.1822,1.2135,1.2712,1.2712,1.3416,1.486,1.6805,1.8661,2.0424,2.0893,2.1545,2.2135,1.8153,1.6378,1.6324,0.0,0.0,0.0,0.0,0.0,0.0,0.0,0.0,0.0,0.0,0.0,0.0,0.0,0.0,0.0,0.0,0.0,0.0,0.0,0.0,0.0,0.0,0.0,0.0,0.0,0.0,0.0,0.0,0.0,0.0,0.0,0.0,0.0,0.0,0.0,0.0,0.0,0.0,0.0,0.0,0.0,1.695,1.7795,0.0,0.0,0.0,0.0,0.0,0.0,0.0,0.0,0.0,0.0,0.0,0.0,0.0,2.6903,2.8248,2.9728,3.0828,3.1582,3.296,3.4015,3.4721,3.4721,3.4387,3.3794,3.4124,0.0,2.7486,2.73,0.0,0.0,0.0,0.0,0.0,0.0,0.0,0.0,0.0,0.0,0.0,0.0,0.0,0.0,0.0,0.0,0.0,0.0,0.0,0.0,0.0,1.2556,1.3698,1.4505,1.4934,1.4851,1.4187,1.3648,1.3068,1.2385,1.2152,1.2339,1.301,1.3391,1.4836,1.7386,1.9102,2.0534,2.1695,2.1735,2.1925,2.2199,2.0271,1.9259,1.8895,1.7738,0.0,0.0,0.0,0.0,0.0,0.0,0.0,0.0,0.0,0.0,0.0,0.0,0.0,0.0,0.0,0.0,0.0,0.0,0.0,0.0,0.0,0.0,0.0,0.0,0.0,0.0,0.0,0.0,0.0,0.0,0.0,0.0,0.0,0.0,0.0,0.0,0.0,0.0,0.0,1.6596,1.9029,1.9131,2.0178,2.0399,0.0,0.0,0.0,0.0,0.0,0.0,0.0,0.0,0.0,2.8593,2.9061,3.0199,3.208,3.3136,3.4066,3.4832,3.5034,3.5497,3.6213,3.579,3.5424,3.515,3.5902,3.4675,3.2092,3.0847,2.9262,2.7571,0.0,0.0,0.0,0.0,2.6978,2.695,0.0,0.0,0.0,0.0,0.0,0.0,0.0,0.0,0.0,0.0,0.0,0.0,1.2287,1.3875,1.5076,1.5623,1.6131,1.6146,1.5474,1.4573,1.375,1.3089,1.2605,1.2756,1.3587,1.4916,1.6888,1.9476,2.0948,2.1909,2.2391,2.2254,2.2188,2.2188,2.2188,2.1784,2.1002,1.9513,1.8258,0.0,0.0,0.0,0.0,0.0,0.0,0.0,0.0,0.0,0.0,0.0,0.0,0.0,0.0,0.0,0.0,0.0,0.0,0.0,0.0,0.0,0.0,0.0,0.0,0.0,0.0,0.0,0.0,0.0,0.0,0.0,0.0,0.0,0.0,0.0,0.0,0.0,0.0,1.8644,2.0513,2.0156,2.153,2.2034,0.0,0.0,0.0,0.0,0.0,0.0,2.6752,2.7099,2.8499,3.1182,3.1813,3.2961,3.4762,3.5328,3.6007,3.6765,3.6167,3.6271,3.6969,3.6419,3.6045,3.5904,3.6662,3.6561,3.5735,3.3902,3.2391,3.1157,3.0405,3.0134,3.0219,3.0954,3.0869,3.0668,0.0,0.0,0.0,0.0,0.0,0.0,0.0,0.0,0.0,0.0,0.0,1.2681,1.3939,1.5622,1.704,1.7952,1.8053,1.7822,0.0,1.5657,1.4453,1.3788,1.3115,1.3382,1.4689,1.7815,1.9501,1.9684,2.1664,2.2654,2.2689,2.3257,2.3505,2.3505,2.3505,2.2818,2.1569,2.0218,1.9234,1.8423,0.0,0.0,0.0,0.0,0.0,0.0,0.0,0.0,0.0,0.0,0.0,0.0,0.0,0.0,0.0,0.0,0.0,0.0,0.0,0.0,0.0,0.0,0.0,0.0,0.0,0.0,0.0,0.0,0.0,0.0,0.0,0.0,0.0,0.0,0.0,0.0,0.0,0.0,0.0,2.0739,2.2903,0.0,0.0,0.0,0.0,2.4699,2.6593,2.8399,2.9792,3.0557,3.1935,3.4125,3.4221,3.4659,3.5539,3.5571,3.598,3.6694,3.6652,3.7036,3.7738,3.771,3.7272,3.6598,3.7389,3.7338,3.6589,3.5771,3.4968,3.4212,3.3474,3.3176,3.3271,3.4009,3.4263,3.4347,0.0,0.0,0.0,0.0,0.0,0.7899,0.7899,0.8613,0.9281,0.9642,1.1707,1.3511,1.448,1.6414,1.7883,1.847,1.8921,1.8884,1.8234,1.6833,1.5927,1.5681,1.4641,1.5103,1.7266,1.8875,2.0337,2.1625,2.2737,2.349,2.3943,2.4571,2.4896,2.487,2.4436,2.3992,2.3479,2.2183,2.0873,1.9558,1.8399,1.6923,0.0,0.0,0.0,0.0,0.0,0.0,0.0,0.0,0.0,0.0,0.0,0.0,0.0,0.0,0.0,0.0,0.0,0.0,0.0,0.0,0.0,0.0,0.0,0.0,0.0,0.0,0.0,0.0,0.0,0.0,0.0,0.0,0.0,0.0,0.0,0.0,0.0,2.3244,2.5181,0.0,2.4624,2.6187,2.7546,2.816,2.9404,3.0742,3.2151,3.211,3.2998,3.512,3.5181,3.577,3.7013,3.7013,3.7155,3.7409,3.6885,3.6774,3.7009,3.6538,3.6164,3.5927,3.6707,3.6883,3.666,3.6911,3.6882,3.6608,3.5826,3.5837,3.6321,3.6586,3.6688,3.6738,0.0,0.0,0.0,0.0,0.7899,0.7899,0.7899,0.8804,0.9695,1.0264,1.2577,1.4528,1.547,1.7303,1.8622,1.8998,1.9444,1.9504,1.907,1.778,1.7032,1.7032,1.645,1.7034,1.8986,2.0142,2.145,2.2992,2.3625,2.4287,2.4948,2.5393,2.5603,2.5573,2.5139,2.4933,2.4874,2.3804,2.2445,2.0944,1.9765,1.8658,1.7627,0.0,0.0,0.0,0.0,0.0,0.0,0.0,0.0,0.0,0.0,0.0,0.0,0.0,0.0,0.0,0.0,0.0,0.0,0.0,0.0,0.0,0.0,0.0,0.0,0.0,0.0,0.0,0.0,0.0,0.0,0.0,0.0,0.0,0.0,0.0,2.5262,2.5262,2.723,2.8179,2.7169,2.872,3.0096,3.0851,3.1612,3.2564,3.3707,3.3397,3.3909,3.5523,3.5569,3.6045,3.701,3.7026,3.7026,3.7026,3.6477,3.6243,3.6212,3.5733,3.5504,3.5537,3.6022,3.6384,3.6615,3.6905,3.7363,3.7816,3.7268,3.739,3.7871,3.7871,3.7871,3.7876,0.0,0.0,0.0,0.7899,0.7899,0.7899,0.7906,0.9043,1.0218,1.1088,1.3618,1.5774,1.6957,1.8368,1.9341,1.9675,1.9708,1.9708,1.9708,1.8454,1.7735,1.7765,1.8401,1.9091,1.9813,2.1729,2.3022,2.3655,2.4335,2.4993,2.5633,2.5648,2.5663,2.5663,2.5633,2.5618,2.5588,2.4918,2.3913,2.2613,2.0606,1.9768,1.9525,0.0,0.0,0.0,0.0,0.0,0.0,0.0,0.0,0.0,0.0,0.0,0.0,0.0,0.0,0.0,0.0,0.0,0.0,0.0,0.0,0.0,0.0,0.0,0.0,0.0,0.0,0.0,0.0,0.0,0.0,0.0,0.0,0.0,2.3684,2.5432,2.6704,2.6749,2.9011,3.0088,2.8876,3.1061,3.2557,3.2557,3.3185,3.3859,3.4503,3.4518,3.4832,3.5489,3.5504,3.5504,3.5504,3.5504,3.5504,3.5504,3.5504,3.5504,3.5504,3.5504,3.5504,3.5504,3.5504,3.591,3.6507,3.5783,3.6368,3.7735,3.7748,3.7793,3.7807,3.7807,3.7806,3.7839,0.0,0.0,0.7899,0.7899,0.7899,0.7931,0.8034,0.9227,1.0365,1.1043,1.3904,1.6118,1.6736,1.8462,1.9604,1.9693,1.9708,1.9708,1.9708,1.8897,1.8634,1.913,1.9785,2.0892,2.2498,2.3067,2.3909,2.5061,2.5719,2.6138,2.6333,2.6824,2.7048,2.7031,2.6539,2.633,2.6273,2.5603,2.5124,2.4627,2.2673,2.0996,1.9669,0.0,0.0,0.0,0.0,0.0,0.0,0.0,0.0,0.0,0.0,0.0,0.0,0.0,0.0,0.0,0.0,0.0,0.0,0.0,0.0,0.0,0.0,0.0,0.0,0.0,0.0,0.0,0.0,0.0,0.0,0.0,0.0,2.5776,2.5776,2.7512,2.9129,3.0031,3.1226,3.1989,3.2138,3.3245,3.3949,3.3949,3.4562,3.504,3.522,3.522,3.531,3.5489,3.5504,3.5504,3.5504,3.5504,3.5504,3.5504,3.5504,3.5504,3.5504,3.5504,3.5504,3.5504,3.5504,3.5619,3.5782,3.5587,3.5749,3.618,3.6722,3.7294,3.7807,3.7807,3.8149,3.8687,0.0,0.8035,0.8007,0.8096,0.8035,0.8006,0.8094,0.9274,1.0457,1.1277,1.4068,1.6274,1.7049,1.8664,1.9708,1.9708,1.9708,1.9588,1.9295,1.9175,1.942,2.0094,2.1021,2.2188,2.3565,2.3868,2.4687,2.6019,2.6408,2.6734,2.7031,2.742,2.76,2.7585,2.7195,2.7018,2.6986,2.6303,2.6019,2.5899,2.4477,2.3052,2.1684,2.1063,2.0248,1.9424,1.9198,1.8648,1.7955,1.7343,0.0,0.0,0.0,0.0,0.0,0.0,0.0,0.0,0.0,0.0,0.0,0.0,0.0,0.0,0.0,0.0,0.0,0.0,0.0,0.0,0.0,0.0,0.0,0.0,2.6333,2.8323,2.8609,2.9669,3.0881,3.2183,3.2931,3.3484,3.3874,3.4533,3.4922,3.4922,3.528,3.5504,3.5504,3.5504,3.5504,3.5504,3.5504,3.5504,3.5504,3.5504,3.5504,3.5504,3.5504,3.5504,3.5504,3.5504,3.5504,3.5504,3.5504,3.5504,3.5504,3.5504,3.5504,0.0,0.0,0.0,0.0,0.0,3.7293,3.8044,0.0,0.8257,0.8188,0.8367,0.8253,0.8141,0.8141,0.9254,1.0512,1.1678,1.4075,1.6173,1.7451,1.8717,1.9504,1.9588,1.9588,1.9399,0.0,1.948,2.0148,2.0892,2.2064,2.3052,2.3804,2.441,2.5379,2.6704,2.6704,2.7031,2.76,2.76,2.76,2.76,2.76,2.76,2.7555,2.6971,2.6704,2.6644,2.5989,2.5229,2.4306,2.2567,2.2183,2.2459,2.1588,2.0866,2.0204,1.9186,0.0,0.0,0.0,0.0,0.0,0.0,0.0,0.0,0.0,0.0,0.0,0.0,0.0,0.0,0.0,0.0,0.0,0.0,0.0,0.0,0.0,0.0,0.0,0.0,2.8609,3.0897,3.172,3.1839,3.2288,3.3469,3.4143,3.4518,3.4623,3.5145,3.5504,3.5504,3.5504,3.5504,3.5504,0.0,0.0,0.0,0.0,3.5504,3.5504,3.5504,3.5504,3.5504,3.5504,3.5504,3.5504,3.5504,3.5504,3.5504,3.5504,3.5504,3.5504,3.5504,3.5504,3.5504,3.5504,3.5504,3.5504,3.5587,3.6039,3.6722,0.0,0.8367,0.8354,0.8387,0.8364,0.8345,0.8345,0.9347,1.0573,1.1876,1.3753,1.5485,1.6749,1.7616,1.8305,1.8852,1.8897,1.9301,2.0249,2.0428,2.1051,2.2258,2.2568,2.3486,2.5181,2.5349,2.6063,2.7405,2.7405,2.7465,2.76,2.76,2.76,2.76,2.76,2.76,2.7585,2.7465,2.7405,2.7345,2.6674,2.536,2.3748,2.337,2.2692,2.1864,2.1663,2.1527,2.1302,2.056,1.9847,1.9161,1.8495,0.0,0.0,0.0,0.0,0.0,0.0,0.0,0.0,0.0,0.0,0.0,0.0,0.0,0.0,0.0,0.0,0.0,0.0,0.0,0.0,2.85,3.0224,3.1929,3.3664,3.3919,3.4024,3.4278,3.4413,3.4712,3.525,3.5429,3.5504,3.5504,3.5504,3.5504,3.5504,3.5504,3.5504,3.5504,3.5504,3.5504,3.5504,3.5504,3.5504,3.5504,0.0,0.0,3.5504,3.5504,3.5504,3.5504,3.5504,3.5504,3.5504,3.5504,3.5504,3.5504,3.5504,3.5504,3.557,3.6165,3.6492,3.6722,0.8755,0.8642,0.8573,0.8639,0.8604,0.8548,0.8548,0.9518,1.0567,1.1488,1.3467,1.5178,1.6136,1.6824,1.7473,1.8132,1.8192,1.8768,2.0109,2.0503,2.1306,2.2643,2.331,2.4257,2.5573,2.5929,2.6584,2.76,2.76,2.76,2.76,2.76,2.76,2.76,2.76,2.76,2.76,2.76,2.76,2.757,2.724,2.63,2.5042,2.4358,2.3719,2.3105,2.2772,2.2468,2.2154,2.1809,2.1255,2.0572,1.9905,1.9097,1.8179,0.0,0.0,0.0,0.0,0.0,0.0,0.0,0.0,0.0,0.0,0.0,0.0,0.0,0.0,2.4083,0.0,0.0,2.8755,3.0731,3.2153,3.335,3.4353,3.4787,3.5012,3.5012,3.5012,3.513,3.5474,3.5504,3.5504,3.5504,3.5504,3.5504,3.5504,3.5504,3.5504,3.5504,3.5504,3.5504,3.5504,3.5504,3.5504,3.5504,3.5504,3.5504,3.5504,3.5504,3.5504,3.5504,3.5504,3.5504,3.5504,3.5504,3.5504,3.5504,3.5504,3.5504,3.5538,3.5911,3.6039,3.6165,0.9065,0.8925,0.8815,0.8919,0.8858,0.8754,0.8711,0.9661,1.0568,1.1034,1.3026,1.4676,1.5342,1.5852,1.6458,1.725,1.7564,1.8326,1.9803,2.0518,2.1485,2.2823,2.3988,2.4903,2.5588,2.6258,2.6929,2.76,2.76,2.76,2.76,2.76,2.76,2.76,2.76,2.76,2.76,2.76,2.76,2.76,2.76,2.7285,2.6644,2.5304,2.4709,2.4515,2.3838,2.3216,2.2673,2.2553,2.2064,2.1395,2.0713,2.0124,1.9459,1.8252,1.7503,0.0,0.0,0.0,0.0,0.0,0.0,0.0,0.0,0.0,2.3222,2.4651,2.5375,2.6509,2.8989,2.9744,3.0611,3.2572,3.3799,3.4563,3.4682,3.516,3.5504,3.5504,3.5504,3.5504,3.5504,3.5504,3.5504,3.5504,3.5504,3.5504,3.5504,3.5504,3.5504,3.5504,3.5504,3.5504,3.5504,3.5504,3.5504,3.5504,3.5504,3.5504,3.5504,3.5504,3.5504,3.5504,3.5504,3.5504,3.5504,3.5504,3.5504,3.5504,3.5504,3.5504,3.5504,3.5504,3.5504,3.5587,0.0,0.9068,0.9052,0.9068,0.9057,0.8979,0.8744,0.9661,1.0568,1.1034,1.2221,1.3283,1.3959,1.4081,1.4626,1.5896,1.7049,1.8521,2.0458,2.1216,2.2158,2.343,2.4201,2.4903,2.5588,2.6258,2.6929,2.76,2.76,2.76,2.76,2.76,2.76,2.76,2.76,2.76,2.76,2.76,2.76,2.76,2.76,2.7567,2.7345,2.6004,2.5124,2.4515,2.3838,2.3216,2.2613,2.2004,2.1365,2.0688,2.0019,1.9768,1.9549,1.8807,0.0,1.8522,1.877,1.9304,2.0238,2.2024,2.1981,2.2378,0.0,0.0,2.6922,2.7182,2.8631,2.9955,3.0296,3.0865,3.1944,3.3949,3.4398,3.4712,3.5295,3.5459,3.5504,3.5504,3.5504,3.5504,3.5504,3.5504,3.5504,3.5504,3.5504,3.5504,3.5504,3.5504,3.5504,3.5504,3.5504,3.5504,3.5504,3.5504,3.5504,3.5504,3.5504,3.5504,3.5504,3.5504,3.5504,3.5504,3.5504,3.5504,3.5504,3.5504,3.5504,3.5504,3.5504,3.5504,3.5504,3.5504,3.5504,3.5504,0.0,0.9338,0.9338,0.9338,0.9196,0.9055,0.8952,0.9901,1.07,1.0895,1.2283,1.3309,1.3449,1.3663,1.4083,1.4814,1.6247,1.781,1.9426,2.0887,2.2109,2.3047,2.4048,2.4903,2.5588,2.6258,2.6929,2.76,2.76,2.76,2.76,2.76,2.76,2.76,2.76,2.76,2.76,2.76,2.76,2.76,2.76,2.736,2.6914,2.5959,2.4945,2.3928,2.3306,2.2912,0.0,0.0,2.1515,2.1161,2.0498,2.0288,2.0154,1.9474,1.9824,0.0,2.152,2.1976,0.0,0.0,2.4585,2.5578,2.7225,2.7876,2.8351,2.9122,2.9929,3.0855,3.2032,3.2482,3.3185,0.0,3.507,3.5175,3.5459,3.5504,3.5355,3.4951,3.5265,3.5504,3.5504,3.5504,3.5504,3.5504,3.5504,3.5504,3.5504,3.5504,3.5504,3.5504,3.5504,3.5504,3.5504,3.5504,3.5504,3.5504,3.5504,3.5504,3.5504,3.5504,3.5504,3.5504,3.5504,3.5504,3.5504,3.5504,3.5504,3.5504,3.5504,3.5504,3.5504,3.5504,3.5504,3.5504,0.0,0.9504,0.9513,0.9544,0.9367,0.9179,0.9104,0.9912,1.0597,1.0773,1.2097,1.3019,1.303,1.3296,1.3665,1.4165,1.5634,1.7156,1.8597,2.0408,2.1809,2.2658,2.3744,2.4634,2.5319,2.6153,2.6839,2.733,2.751,2.76,2.76,2.76,2.76,2.76,2.76,2.76,2.76,2.76,2.748,2.733,2.733,2.6914,2.6228,2.5364,2.4448,2.352,2.2927,2.2463,0.0,0.0,2.1151,2.1021,2.0354,2.0279,2.0399,2.0282,2.1196,2.2383,2.3156,0.0,0.0,2.5214,2.6662,2.7974,2.8319,2.8785,2.9445,3.0538,3.0777,3.1285,3.2916,3.3215,3.3664,3.5011,3.522,3.5295,3.5458,3.534,3.51,3.4817,3.504,3.5295,3.5489,3.5504,3.5504,3.5504,3.5504,3.5504,3.5504,3.5504,3.5504,3.5504,3.5504,3.5504,3.5504,3.5504,3.5504,3.5504,3.5504,3.5504,3.5504,3.5504,3.5504,3.5504,3.5504,3.5504,3.5504,3.5504,3.5504,3.5504,3.5504,3.5504,3.5504,3.5504,3.5504,3.5504,0.0,0.0,0.9538,0.9679,0.9587,0.9399,0.9134,0.9511,1.0065,1.0703,1.1255,1.1833,1.2534,1.263,1.3067,1.4108,1.538,1.6848,1.86,1.9965,2.1311,2.2643,2.3306,2.3943,2.4619,2.5929,2.6614,2.6629,2.7285,2.76,2.76,2.76,2.76,2.76,2.76,2.76,2.76,2.76,2.7225,2.6629,2.6629,2.6228,2.5495,2.4163,2.364,2.352,2.2927,0.0,0.0,0.0,1.9768,1.9639,1.8972,1.922,0.0,2.1261,2.2532,0.0,0.0,0.0,2.5854,2.718,2.8036,2.8891,3.0133,3.0432,3.0643,3.1331,3.1466,3.169,3.2407,3.2527,3.2976,3.4308,3.4518,3.4757,3.5415,3.4952,3.4757,3.54,3.4922,3.4787,0.0,3.5504,3.5504,3.5504,3.5504,3.5504,3.5504,3.5504,3.5504,3.5504,3.5504,3.5504,3.5504,3.5504,3.5504,3.5504,3.5504,3.5504,3.5504,3.5504,3.5504,3.5504,3.5504,3.5504,3.5504,3.5504,3.5504,3.5504,3.5504,3.5504,3.5504,3.5504,3.5504,3.5504,0.0,0.0,0.0,0.9694,0.9671,0.9565,0.9392,1.0178,1.0889,1.1107,1.1922,0.0,0.0,0.0,0.0,0.0,1.4844,1.6037,1.7288,1.9038,2.0447,2.1326,2.2423,2.3306,2.3913,2.481,2.5483,2.5944,2.6153,2.6273,2.6273,2.6273,2.6273,2.6273,2.6273,2.6273,2.6273,2.6273,2.6393,2.6524,2.5618,2.5139,2.4829,2.3928,2.2517,2.1046,0.0,0.0,0.0,1.9256,1.9031,1.9076,1.9286,0.0,0.0,2.1849,2.2673,2.3347,2.4863,0.0,2.7243,2.8603,2.9398,3.0088,3.0972,3.1152,3.1227,3.1451,3.1151,3.1046,3.1705,3.1839,3.2288,3.362,3.4203,3.4727,3.5415,3.531,3.507,3.4862,3.5026,0.0,0.0,0.0,0.0,3.5504,3.5504,3.5504,3.5504,3.5504,3.5504,3.5504,3.5504,3.5504,3.5504,3.5504,3.5504,3.5504,3.5504,3.5504,3.5504,3.5504,3.5504,3.5504,3.5504,3.5504,3.5504,3.5504,3.5504,3.5504,3.5504,3.5504,3.5504,3.5504,3.5504,3.5504,0.0,0.0,0.0,0.0,0.0,0.0,0.0,0.0,0.0,0.0,0.0,0.0,0.0,0.0,0.0,0.0,0.0,0.0,1.6331,1.8006,1.939,2.0303,2.0941,2.1675,2.2537,2.3225,2.3676,2.3925,2.4396,2.4536,2.4359,2.4548,2.4644,2.4641,2.4816,2.4896,2.4896,2.4896,2.4909,2.486,2.419,2.3654,2.323,2.2758,2.1365,0.0,0.0,0.0,0.0,1.841,1.8499,0.0,0.0,0.0,2.1345,2.2633,2.3541,2.4563,2.6734,2.7797,2.8633,2.9939,3.0568,3.0972,3.1406,3.1316,3.1091,3.0867,3.0298,2.9879,3.0059,3.0104,3.0687,3.2482,3.3155,3.3903,3.531,3.5295,3.5071,3.4877,3.5042,3.5071,0.0,0.0,0.0,3.5504,3.5504,3.5504,3.5504,3.5504,3.5504,3.5504,3.5504,3.5504,3.5504,3.5504,3.5504,3.5504,3.5504,3.5504,3.5504,3.5504,3.5504,3.5504,3.5504,3.5504,3.5504,3.5504,3.5504,3.5504,3.5504,3.5504,3.5504,3.5504,3.5504,3.5504,0.0,0.0,0.0,0.0,0.0,0.0,0.0,0.0,0.0,0.0,0.0,0.0,0.0,0.0,0.0,0.0,0.0,0.0,1.5706,1.69,1.8185,1.9489,1.9001,1.9292,2.0569,2.1291,2.139,2.0893,2.2204,2.2585,2.209,2.2608,2.2847,2.2855,2.331,2.3505,2.3505,2.3505,2.2904,2.1989,2.2381,2.1878,2.0872,2.0674,0.0,0.0,0.0,0.0,0.0,0.0,0.0,0.0,0.0,0.0,0.0,2.3684,2.5091,2.6958,2.8323,2.919,2.9997,3.1241,3.1525,3.1496,3.1466,3.0927,3.0268,2.9623,2.8934,2.8233,0.0,0.0,2.838,3.0943,3.1466,3.2452,3.5085,3.4937,3.4787,0.0,0.0,0.0,0.0,0.0,0.0,3.5504,0.0,3.5504,3.5504,3.5504,3.5504,3.5504,3.5504,3.5504,3.5504,3.5504,3.5504,3.5504,3.5504,3.5504,3.5504,3.5504,3.5504,3.5504,3.5504,3.5504,3.5504,3.5504,3.5504,3.5504,3.5504,3.5504,3.5504,3.5504,3.5504,3.5504,0.0,0.0,0.0,0.0,0.0,0.0,0.0,0.0,0.0,0.0,0.0,0.0,0.0,0.0,0.0,0.0,0.0,0.0,1.4593,1.5649,1.6637,1.7436,1.8252,1.8858,1.9202,2.0354,2.0894,2.0754,2.1589,2.1938,2.1799,2.1938,2.2,2.2,2.2123,2.2173,2.2173,2.2173,2.2306,2.2387,0.0,2.0581,2.0645,0.0,0.0,0.0,0.0,0.0,0.0,0.0,0.0,0.0,0.0,0.0,2.3804,0.0,0.0,2.775,2.952,3.0493,3.1211,3.2048,3.1869,3.1376,3.0867,3.0268,2.9503,2.8349,2.7183,2.6156,0.0,0.0,0.0,2.9071,3.0972,0.0,3.4518,3.5042,0.0,3.5489,0.0,3.531,3.5473,3.5504,0.0,0.0,3.5504,3.5504,3.5504,3.5504,3.5504,3.5504,3.5504,3.5504,3.5504,3.5504,3.5504,3.5504,3.5504,3.5504,3.5504,3.5504,3.5504,3.5504,3.5504,3.5504,3.5504,3.5504,3.5504,3.5504,3.5504,3.5504,3.5504,3.5504,3.5504,3.5504,0.0,0.0,0.0,0.0,0.0,0.0,0.0,0.0,0.0,0.0,0.0,0.0,0.0,0.0,0.0,0.0,0.0,0.0,0.0,1.467,1.55,1.6404,1.6796,1.7243,1.781,1.885,1.9141,1.8635,1.9562,0.0,1.9247,1.9479,1.9582,1.9592,1.9843,1.9935,1.9935,1.9935,0.0,0.0,0.0,0.0,0.0,0.0,0.0,0.0,0.0,0.0,0.0,0.0,0.0,2.3595,2.3875,2.4608,2.5611,2.6961,0.0,2.8889,3.0851,3.145,3.166,3.2333,3.1779,3.0822,2.9879,2.8951,2.7812,2.618,2.5042,0.0,0.0,0.0,0.0,0.0,0.0,0.0,3.4218,3.507,3.5504,0.0,3.5504,0.0,3.5504,3.5504,3.5504,0.0,3.5504,3.5504,3.5504,3.5504,3.5504,3.5504,3.5504,3.5504,3.5504,3.5504,3.5504,3.5504,3.5504,3.5504,3.5504,3.5504,3.5504,3.5504,0.0,3.5504,3.5504,3.5504,3.5504,3.5504,3.5504,3.5504,3.5504,3.5504,3.5504,3.5504,0.0,0.0,0.0,0.0,0.0,0.0,0.0,0.0,0.0,0.0,0.0,0.0,0.0,0.0,0.0,0.0,0.0,0.0,0.0,0.0,0.0,1.5719,1.5096,1.5287,1.6466,1.7116,1.6992,1.6086,0.0,0.0,0.0,0.0,0.0,0.0,0.0,0.0,0.0,0.0,0.0,0.0,0.0,0.0,0.0,0.0,0.0,0.0,0.0,0.0,0.0,0.0,2.312,2.4874,2.5618,2.6722,2.7989,2.9324,2.9713,3.0132,3.1989,3.2004,3.166,3.2333,3.148,3.0148,2.8771,2.736,2.5771,2.3661,0.0,2.2035,2.1446,2.238,2.4142,2.6884,0.0,3.121,3.3979,3.4936,3.54,3.5489,3.5504,3.5504,3.5504,3.5504,3.5504,3.5504,3.5504,3.5504,3.5504,3.5504,3.5504,3.5504,3.5504,3.5504,3.5504,3.5504,3.5504,3.5504,3.5504,3.5504,3.5504,3.5504,3.5504,3.5504,3.5504,3.5504,3.5504,3.5504,3.5504,3.5504,3.5504,3.5504,3.5504,3.5504,3.5504,3.5504,0.0,0.0,0.0,0.0,0.0,0.0,0.0,0.0,0.0,0.0,1.4458,1.4314,0.0,0.0,0.0,0.0,0.0,0.0,0.0,0.0,0.0,1.4023,1.4202,1.4676,1.5439,0.0,0.0,0.0,0.0,0.0,0.0,0.0,0.0,0.0,0.0,0.0,0.0,0.0,0.0,0.0,0.0,0.0,0.0,0.0,0.0,0.0,0.0,0.0,0.0,0.0,2.3819,2.5633,2.6869,2.7782,2.8682,2.9968,3.0342,3.0657,3.2108,3.2004,3.166,3.2333,3.148,3.0013,2.8199,2.6384,0.0,0.0,2.0482,1.9656,1.9431,2.0481,2.2369,2.544,0.0,0.0,0.0,0.0,3.4877,0.0,0.0,0.0,0.0,0.0,0.0,0.0,0.0,3.5504,3.5504,3.5504,3.5504,3.5504,3.5504,3.5504,3.5504,3.5504,3.5504,3.5504,3.5504,3.5504,3.5504,3.5504,3.5504,3.5504,3.5504,0.0,3.5504,3.5504,3.5504,3.5504,3.5504,3.5504,3.5504,3.5504,3.5504,3.5504,0.0,0.0,0.0,0.0,0.0,0.0,0.0,1.2923,1.3936,1.6039,1.6078,1.5732,1.5234,1.4673,0.0,0.0,0.0,0.0,0.0,0.0,0.0,0.0,0.0,1.4302,0.0,0.0,0.0,0.0,0.0,0.0,0.0,0.0,0.0,0.0,0.0,0.0,0.0,0.0,0.0,0.0,0.0,0.0,0.0,0.0,0.0,0.0,0.0,0.0,0.0,0.0,2.2453,2.4504,2.6866,2.8291,2.9309,3.0238,3.0507,3.0791,3.2138,3.2004,3.166,3.2333,3.0987,2.8915,2.6665,0.0,0.0,0.0,1.8975,1.8561,1.8504,0.0,0.0,0.0,0.0,0.0,0.0,0.0,0.0,0.0,0.0,0.0,0.0,0.0,0.0,0.0,0.0,3.5504,3.5504,3.5504,3.5504,3.5504,3.5504,3.5504,3.5504,3.5504,3.5504,3.5504,3.5504,3.5504,3.5504,3.5504,3.5504,3.5504,3.5504,3.5504,3.5504,3.5504,3.5504,3.5504,3.5504,3.5504,3.5504,3.5504,3.5504,3.5504,0.0,0.0,0.0,0.0,0.0,0.0,0.0,1.3784,1.4791,1.7258,1.7411,1.7077,1.6467,1.5538,1.4839,0.0,0.0,0.0,0.0,0.0,0.0,0.0,0.0,0.0,0.0,0.0,0.0,0.0,0.0,0.0,0.0,0.0,0.0,0.0,0.0,0.0,0.0,0.0,0.0,0.0,0.0,0.0,0.0,0.0,0.0,0.0,0.0,0.0,0.0,0.0,2.0846,2.2778,2.5653,2.757,2.8889,2.9668,3.0073,3.0567,3.1749,3.178,3.1585,3.1974,3.0314,2.7895,2.5202,2.3002,0.0,0.0,1.7748,1.7658,1.789,0.0,2.0698,0.0,0.0,0.0,0.0,0.0,0.0,0.0,0.0,0.0,0.0,0.0,0.0,0.0,0.0,3.5504,3.5504,3.5504,3.5504,3.5504,3.5504,3.5504,3.5504,3.5504,3.5504,3.5504,3.5504,3.5504,3.5504,3.5504,3.5504,3.5504,3.5504,3.5504,3.5504,3.5504,3.5504,3.5504,3.5504,3.5504,3.5504,3.5504,3.5504,3.5504,0.0,0.0,0.0,0.0,0.0,0.0,0.0,1.3423,1.4766,1.7191,1.7395,1.7328,1.7364,1.6427,1.5546,0.0,0.0,0.0,0.0,0.0,0.0,0.0,0.0,0.0,0.0,0.0,0.0,0.0,0.0,0.0,0.0,0.0,0.0,0.0,0.0,0.0,0.0,0.0,0.0,0.0,0.0,0.0,0.0,0.0,0.0,0.0,0.0,0.0,0.0,0.0,0.0,2.1146,2.2673,2.4444,2.6213,2.7482,0.0,0.0,3.0507,3.1091,3.1376,3.0822,2.9639,2.7776,2.4608,0.0,0.0,1.7788,1.6599,1.6225,1.7186,1.7505,1.8582,0.0,0.0,2.4702,0.0,0.0,0.0,0.0,0.0,0.0,0.0,0.0,0.0,0.0,0.0,3.5504,3.5504,3.5504,3.5504,3.5504,3.5504,3.5504,3.5504,3.5504,3.5504,3.5504,3.5504,3.5504,3.5504,3.5504,3.5504,3.5504,3.5504,3.5504,0.0,3.5504,3.5504,3.5504,3.5504,3.5504,3.5504,3.5504,3.5504,3.5504,0.0,0.0,0.0,0.0,0.0,0.0,1.3077,1.3688,1.4958,1.7903,1.8124,1.8091,1.826,1.7362,1.6255,1.5069,0.0,0.0,0.0,0.0,0.0,0.0,0.0,0.0,0.0,0.0,0.0,0.0,0.0,0.0,0.0,0.0,0.0,0.0,0.0,0.0,0.0,0.0,0.0,0.0,0.0,0.0,0.0,0.0,0.0,0.0,0.0,0.0,0.0,0.0,0.0,0.0,1.9044,2.0443,0.0,0.0,2.7063,2.8021,2.9071,2.9849,3.0298,3.0013,2.8368,2.6174,2.3839,0.0,1.8628,1.7125,1.6226,1.5928,1.6682,1.7087,1.7934,1.9908,2.0378,2.1914,2.6022,0.0,0.0,0.0,0.0,0.0,0.0,0.0,0.0,0.0,3.5504,3.5504,3.5504,3.5504,3.5504,3.5504,3.5504,3.5504,3.5504,3.5504,3.5504,3.5504,3.5504,3.5504,3.5504,3.5504,3.5504,3.5504,3.5504,3.5504,0.0,3.5504,3.5504,3.5504,3.5504,3.5504,3.5504,3.5504,3.5504,3.5504,0.0,0.0,0.0,0.0,0.0,1.0786,1.2844,1.3554,1.4767,1.7283,1.7914,1.8187,1.8332,1.7516,1.6531,1.5532,1.5204,0.0,0.0,0.0,0.0,0.0,0.0,0.0,0.0,0.0,0.0,0.0,0.0,0.0,0.0,0.0,0.0,0.0,0.0,0.0,0.0,0.0,0.0,0.0,0.0,0.0,0.0,0.0,0.0,0.0,0.0,0.0,0.0,0.0,0.0,0.0,0.0,0.0,0.0,0.0,2.502,2.6303,2.7634,2.8637,2.9264,2.9067,2.729,2.5032,0.0,2.0152,1.7746,1.6716,1.5957,1.5678,1.6373,1.694,1.7627,1.8638,1.9027,2.0453,2.4089,2.5349,0.0,0.0,0.0,0.0,0.0,0.0,0.0,0.0,3.5504,3.5504,3.5504,3.5504,3.5504,3.5504,3.5504,3.5504,3.5504,3.5504,3.5504,3.5504,3.5504,3.5504,3.5504,3.5504,3.5504,3.5504,3.5504,3.5504,0.0,3.5504,3.5504,3.5504,3.5504,3.5504,3.5504,3.5504,3.5504,3.5504,0.0,0.0,0.0,0.0,0.0,0.0,1.1292,1.2781,1.4057,1.4753,1.6228,1.7245,1.7316,1.6592,1.6208,1.6451,1.5705,0.0,0.0,0.0,0.0,0.0,0.0,0.0,0.0,0.0,0.0,0.0,0.0,0.0,0.0,0.0,0.0,0.0,0.0,0.0,0.0,0.0,0.0,0.0,0.0,0.0,0.0,0.0,0.0,0.0,0.0,0.0,0.0,0.0,0.0,0.0,0.0,0.0,0.0,0.0,2.2587,2.4903,2.6258,2.759,2.8442,2.7794,2.6599,2.481,0.0,1.9202,1.7231,1.664,1.5653,1.5236,1.6298,1.694,1.7486,1.8017,1.9102,2.0991,2.4164,2.5737,0.0,0.0,0.0,0.0,0.0,0.0,0.0,3.5504,3.5504,0.0,3.5504,3.5504,3.5504,3.5504,3.5504,3.5504,3.5504,3.5504,3.5504,3.5504,3.5504,3.5504,3.5504,3.5504,3.5504,3.5504,3.5504,3.5504,0.0,3.5504,3.5504,3.5504,3.5504,3.5504,3.5504,3.5504,3.5504,3.5504,0.0,0.0,0.0,0.0,0.0,0.0,0.0,1.1829,1.2599,1.3827,1.4455,1.5024,1.5604,1.4943,1.4786,1.5618,1.5423,0.0,0.0,0.0,0.0,0.0,0.0,0.0,0.0,0.0,0.0,1.7232,1.8081,0.0,0.0,0.0,0.0,0.0,0.0,0.0,0.0,0.0,0.0,0.0,0.0,0.0,0.0,0.0,0.0,0.0,0.0,0.0,0.0,0.0,0.0,0.0,0.0,0.0,0.0,1.8569,0.0,0.0,2.3561,2.4549,2.5121,2.4923,2.3622,2.1953,2.0253,1.7991,1.6083,1.552,1.5431,1.566,1.6381,1.7237,1.8318,1.9776,2.0325,0.0,0.0,0.0,0.0,0.0,0.0,0.0,0.0,0.0,0.0,3.5504,3.5504,3.5504,3.5504,3.5504,3.5504,3.5504,3.5504,3.5504,3.5504,3.5504,3.5504,3.5504,3.5504,3.5504,3.5504,3.5504,3.5504,3.5504,3.5504,3.5504,3.5504,3.5504,3.5504,3.5504,3.5504,3.5504,3.5504,3.5504,3.5504,3.5504,0.0,0.0,0.0,0.0,0.0,0.0,0.0,1.1148,1.1641,1.2566,1.2966,1.3503,1.4394,1.3738,1.3819,1.5221,1.5048,0.0,0.0,0.0,0.0,0.0,0.0,0.0,0.0,1.5589,1.6324,1.7412,1.7923,1.8666,1.957,0.0,0.0,0.0,0.0,0.0,0.0,0.0,0.0,0.0,0.0,0.0,0.0,0.0,0.0,0.0,0.0,0.0,0.0,0.0,0.0,0.0,0.0,0.0,0.0,0.0,1.8243,1.9628,0.0,2.2505,2.2936,2.3201,2.2023,2.0526,1.9404,1.7446,1.5756,1.5414,1.5458,1.5784,1.6585,1.7445,1.8492,1.9905,2.0312,0.0,0.0,0.0,0.0,0.0,0.0,0.0,0.0,0.0,3.5504,3.5504,3.5504,3.5504,3.5504,3.5504,3.5504,3.5504,3.5504,3.5504,3.5504,3.5504,3.5504,3.5504,3.5504,3.5504,3.5504,3.5504,3.5504,3.5504,3.5504,3.5504,0.0,3.5504,3.5504,3.5504,3.5504,3.5504,3.5504,3.5504,3.5504,3.5504,0.0,0.0,0.0,0.0,0.0,0.0,0.0,1.0678,1.1116,1.1112,1.1712,1.2497,1.3439,1.2823,1.309,1.4958,0.0,0.0,0.0,0.0,0.0,0.0,0.0,0.0,0.0,1.5353,1.6122,1.7607,1.7614,1.8309,1.9591,1.8761,1.7847,0.0,0.0,0.0,0.0,0.0,0.0,0.0,0.0,0.0,0.0,0.0,0.0,0.0,0.0,0.0,0.0,0.0,0.0,0.0,0.0,0.0,0.0,0.0,0.0,0.0,0.0,2.1157,0.0,0.0,2.1381,2.0125,1.8971,1.7314,0.0,1.5983,1.5646,1.5729,1.6945,1.7607,1.822,1.9045,0.0,0.0,0.0,0.0,0.0,0.0,0.0,0.0,0.0,0.0,3.557,3.557,3.5537,3.5504,3.5504,3.5504,3.5504,3.5504,3.5504,3.5504,3.5504,3.5504,3.5504,3.5504,3.5504,3.5504,3.5504,3.5504,3.5504,0.0,3.5504,3.5504,3.5504,3.5504,3.5504,3.5504,3.5504,3.5504,3.5504,3.5504,3.5504,3.5504,0.0,0.0,0.0,0.0,0.0,0.0,0.0,0.0,0.0,0.0,1.0524,1.0769,1.096,1.0825,1.1181,0.0,0.0,0.0,0.0,0.0,0.0,0.0,0.0,0.0,0.0,1.5984,1.6763,1.7744,1.8404,1.9088,1.9731,1.8718,1.7763,1.6865,1.5832,0.0,0.0,0.0,0.0,0.0,0.0,0.0,0.0,0.0,0.0,0.0,0.0,0.0,0.0,0.0,0.0,0.0,0.0,0.0,0.0,0.0,1.5798,1.581,1.7334,0.0,1.8989,1.8897,1.8326,1.7612,0.0,1.6106,1.5374,1.4952,0.0,0.0,1.7623,1.8229,0.0,0.0,0.0,0.0,0.0,0.0,0.0,0.0,0.0,0.0,0.0,0.0,3.6353,3.6353,3.583,3.5504,3.5504,3.5504,3.5504,3.5504,3.5504,3.5504,3.5504,3.5504,3.5504,3.5504,3.5504,3.5504,3.5504,3.5504,3.5504,3.5504,3.5504,3.5504,3.5504,3.5504,3.5504,3.5504,3.5504,3.5504,3.5504,3.5504,3.5504,3.5504,0.0,0.0,0.0,0.0,0.0,0.0,0.0,0.0,0.0,0.0,0.0,0.0,0.0,0.0,0.0,0.0,0.0,0.0,0.0,0.0,0.0,0.0,0.0,0.0,1.4805,1.5618,1.6611,1.7801,1.8208,1.8883,1.9787,1.9022,1.7973,1.6703,1.538,0.0,0.0,0.0,0.0,0.0,0.0,0.0,0.0,0.0,0.0,0.0,1.4992,1.529,0.0,1.641,1.6862,1.6992,0.0,0.0,0.0,0.0,1.5115,1.4964,1.5616,1.672,1.7769,1.808,1.7709,1.7186,1.6907,0.0,0.0,0.0,0.0,0.0,0.0,0.0,0.0,0.0,0.0,0.0,0.0,0.0,0.0,0.0,0.0,0.0,0.0,0.0,3.6657,3.6657,3.6261,3.6006,3.6006,3.5685,3.5504,3.5504,3.5504,3.5504,3.5504,3.5504,3.5504,3.5504,3.5504,3.5504,3.5504,3.5504,3.5504,3.5504,3.5504,3.5504,3.5504,3.5504,3.5504,3.5504,3.5504,3.5504,3.5504,3.5504,3.5504,3.5504,0.0,0.0,0.0,0.0,0.0,0.0,0.0,0.0,0.0,0.0,0.0,0.0,0.0,0.0,0.0,0.0,0.0,0.0,0.0,0.0,0.0,0.0,0.0,1.416,1.4297,1.5019,1.6182,1.7827,1.7696,1.8313,1.959,1.9303,1.8212,1.6435,1.4997,0.0,0.0,0.0,0.0,0.0,0.0,0.0,0.0,0.0,0.0,0.0,0.0,0.0,0.0,1.6306,1.6985,1.7408,1.6548,0.0,0.0,0.0,0.0,0.0,1.4821,1.6,1.7306,1.8142,1.8124,1.7901,1.7901,0.0,0.0,0.0,0.0,0.0,0.0,0.0,0.0,0.0,0.0,0.0,0.0,0.0,0.0,0.0,0.0,0.0,3.6699,3.6699,3.6701,3.6701,3.644,3.6274,3.6274,3.5592,3.519,3.519,3.519,3.519,3.519,3.54,3.5504,3.5504,3.5504,3.5504,3.5504,3.5504,3.5504,3.5504,0.0,0.0,3.5504,3.5504,3.5504,3.5504,3.5504,3.5504,3.5504,3.5504,3.5504,3.5504,0.0,0.0,0.0,0.0,0.0,0.0,0.0,0.0,0.0,0.0,0.0,0.0,0.0,0.0,0.0,0.0,0.0,0.0,0.0,0.0,0.0,0.0,1.2871,1.4453,1.5176,1.5332,1.6224,1.7877,1.7804,1.8091,1.8698,1.8922,1.7946,1.5976,1.5386,1.4794,1.426,0.0,0.0,0.0,0.0,0.0,0.0,0.0,0.0,0.0,0.0,0.0,0.0,1.4821,1.4949,1.5019,1.4867,0.0,0.0,0.0,0.0,0.0,1.5523,1.6564,1.711,1.6834,1.7791,1.8805,1.8805,0.0,0.0,0.0,0.0,0.0,0.0,0.0,0.0,0.0,0.0,0.0,0.0,0.0,0.0,0.0,0.0,3.6699,3.6699,3.6694,3.6695,3.6695,3.553,3.4821,3.4821,3.4182,3.3799,3.3799,3.3799,3.3799,3.3799,3.4936,3.5504,3.5504,3.5504,3.5504,3.5504,3.5504,3.5504,3.5504,0.0,3.5504,3.5504,3.5504,3.5504,3.5504,3.5504,3.5504,3.5504,3.5504,3.5504,3.5504,0.0,0.0,0.0,0.0,0.0,0.0,0.0,0.0,0.0,0.0,0.0,0.0,0.0,0.0,0.0,0.0,0.0,0.0,0.0,0.0,0.0,1.0977,1.2578,1.3848,1.4687,1.5573,1.6875,1.8547,1.8346,1.8567,1.918,1.8107,1.7059,1.5993,1.4536,1.3824,1.3685,0.0,0.0,0.0,0.0,0.0,0.0,0.0,0.0,0.0,0.0,0.0,0.0,0.0,1.479,1.5141,1.5141,0.0,0.0,0.0,0.0,0.0,1.4286,1.5669,1.694,1.6944,1.8257,1.9544,1.9544,0.0,0.0,0.0,0.0,0.0,0.0,0.0,0.0,0.0,0.0,0.0,0.0,0.0,0.0,0.0,0.0,3.6105,3.6105,3.6496,3.6747,3.6747,3.5752,3.5154,3.5154,3.4103,3.3499,3.3499,3.3499,3.3499,3.3499,3.4113,3.4592,3.4951,3.5325,3.5504,3.5504,3.5504,3.5504,3.5504,0.0,3.5504,3.5504,3.5504,3.5504,3.5504,3.5504,3.5504,3.5504,3.5504,3.5504,3.5504,0.0,0.0,0.0,0.0,0.0,0.0,0.0,0.0,0.0,0.0,0.0,0.0,0.0,0.0,0.0,0.0,0.0,0.0,0.0,0.0,1.0684,1.1562,1.2422,1.3454,1.4664,1.5934,1.7418,1.9098,1.8809,1.8877,1.9273,1.7322,1.6123,1.5528,1.3786,1.2992,1.2916,0.0,0.0,0.0,0.0,0.0,0.0,0.0,0.0,0.0,0.0,0.0,0.0,0.0,0.0,0.0,0.0,0.0,0.0,1.4022,1.3632,1.3422,1.3568,1.5114,1.6871,1.7589,0.0,2.0144,2.0671,0.0,0.0,0.0,0.0,0.0,0.0,0.0,0.0,0.0,0.0,0.0,0.0,0.0,0.0,0.0,3.56,3.56,3.56,3.6163,3.6513,3.6513,3.5691,3.5214,3.5214,3.3819,3.3036,3.3036,3.3036,3.3036,3.3036,3.3185,3.3589,3.4263,3.4786,3.504,3.504,3.519,3.5265,3.5265,3.5429,3.5504,3.5504,3.5504,3.5504,3.5504,3.5504,3.5504,3.5504,3.5504,3.5504,3.5504,0.0,0.0,0.0,0.0,0.0,0.0,0.0,0.0,0.0,0.0,0.0,0.0,0.0,0.0,0.0,0.0,0.0,0.0,0.0,0.0,1.0684,1.1562,1.2422,1.4004,1.6371,1.6544,1.7413,1.909,1.888,1.8456,1.783,1.6914,1.5528,1.3791,1.3942,1.3222,0.0,0.0,0.0,0.0,0.0,0.0,0.0,0.0,0.0,0.0,0.0,0.0,0.0,0.0,0.0,0.0,0.0,0.0,1.3945,1.3686,1.3517,1.3692,1.5057,1.603,1.7044,1.8436,1.9396,0.0,2.2678,2.2594,0.0,0.0,0.0,0.0,0.0,0.0,0.0,0.0,0.0,0.0,0.0,0.0,0.0,3.5583,3.56,3.56,3.56,3.565,3.5695,3.5695,3.4476,3.3755,3.3755,3.2408,3.1645,3.1645,3.1645,3.1645,3.1645,3.2258,3.2916,3.3559,3.3619,3.3634,3.3664,3.4293,3.4563,3.4607,3.5235,3.5504,3.5504,3.5504,3.5504,3.5504,3.5504,3.5504,3.5504,3.5504,3.5504,3.5504,0.0,0.0,0.0,0.0,0.0,0.0,0.0,0.0,0.0,0.0,0.0,0.0,0.0,0.0,0.0,0.0,0.0,0.0,0.0,0.0,1.0684,1.1562,1.2422,1.3541,1.4959,1.6541,1.8123,1.972,1.8936,1.8255,1.767,1.6417,1.516,1.3947,1.3107,0.0,0.0,0.0,0.0,0.0,0.0,0.0,0.0,0.0,0.0,0.0,0.0,0.0,0.0,0.0,1.2386,1.3142,1.3386,1.3561,1.3691,1.3615,1.3505,1.3511,1.4086,1.5441,1.6947,1.7963,1.9274,0.0,0.0,2.3207,0.0,0.0,0.0,0.0,0.0,0.0,0.0,0.0,0.0,0.0,0.0,0.0,3.5098,3.5549,3.56,3.56,3.56,3.56,3.56,3.56,3.4736,3.4223,3.4223,3.3323,3.2812,3.2812,3.2408,3.2174,3.2174,3.1981,3.2018,3.2273,3.3095,3.3499,3.3499,3.3769,3.3874,3.3904,3.4143,3.4262,3.4262,3.4262,3.4262,3.4262,3.4262,3.4785,3.5507,3.5052,3.542,3.6072,0.0,0.0,0.0,0.0,0.0,0.0,0.0,0.0,0.0,0.0,0.0,0.0,0.0,0.0,0.0,0.0,0.0,0.0,0.0,1.0293,1.0684,1.1562,1.2167,1.296,1.3975,1.5976,1.7635,1.89,1.8027,1.7393,1.6958,1.5707,1.4658,1.3778,0.0,0.0,0.0,0.0,0.0,0.0,0.0,0.0,0.0,0.0,0.0,0.0,0.0,0.0,0.0,0.0,1.1502,1.2349,1.2768,1.307,1.3286,1.3483,1.3636,1.3743,1.3743,1.5182,1.6906,0.0,0.0,0.0,2.2494,2.3779,0.0,0.0,0.0,0.0,0.0,0.0,0.0,0.0,0.0,0.0,0.0,3.4009,3.4336,3.485,3.4917,3.4917,3.4917,3.512,3.5256,3.5256,3.486,3.46,3.46,3.3962,3.3595,3.3595,3.3159,3.2922,3.2922,3.2422,3.2062,3.1868,3.2775,3.3095,3.2886,3.3095,3.3185,3.32,3.341,3.3499,3.3499,3.3499,3.3622,3.3819,3.3819,3.4556,3.5547,3.5031,3.5307,3.5797,0.0,0.0,0.0,0.0,0.0,0.0,0.0,0.0,0.0,0.0,0.0,0.0,0.0,0.0,0.0,0.0,0.0,0.0,1.0293,1.0293,1.0684,1.1543,1.1607,1.233,1.3935,1.4818,1.5595,1.6305,1.6028,1.5709,1.5372,1.4773,1.3942,1.3007,0.0,0.0,0.0,0.0,0.0,0.0,0.0,0.0,0.0,0.0,0.0,0.0,0.0,0.0,0.0,0.0,1.0801,1.0926,1.2278,1.2602,1.2624,1.3212,1.3925,1.4504,1.4504,1.5588,0.0,0.0,0.0,0.0,0.0,2.4496,0.0,0.0,0.0,0.0,0.0,0.0,0.0,0.0,0.0,0.0,3.2293,3.2943,3.3379,3.3396,3.3396,3.3396,3.3396,3.4066,3.4483,3.4483,3.4544,3.4595,3.4595,3.3959,3.3592,3.3592,3.3592,3.3579,3.3608,3.3595,3.3261,3.2615,3.2615,3.2216,3.1525,3.2198,3.2482,3.2527,3.3185,3.3469,3.3469,3.3485,3.3894,3.4481,3.4481,3.4941,3.5603,3.5587,3.514,3.4511,0.0,0.0,0.0,0.0,0.0,0.0,0.0,0.0,0.0,0.0,0.0,0.0,0.0,0.0,0.0,0.0,0.0,0.0,0.0,1.0293,1.043,1.0664,1.1274,1.151,1.1324,1.2094,1.3691,1.6167,1.5421,1.469,1.3992,1.3865,1.3065,1.1755,0.0,0.0,0.0,0.0,0.0,0.0,0.0,0.0,0.0,0.0,0.0,0.0,0.0,0.0,0.0,0.0,0.0,0.0,1.157,1.2435,1.3165,1.3345,1.4016,1.471,1.4766,0.0,0.0,0.0,0.0,0.0,0.0,0.0,0.0,0.0,0.0,0.0,0.0,0.0,0.0,0.0,0.0,0.0,3.2226,3.2496,3.2824,3.3339,3.3396,3.3396,3.3396,3.3609,3.3728,3.3728,3.3752,3.3761,3.3761,3.3579,3.345,3.345,3.3001,3.2996,3.3509,3.3062,3.2991,3.33,3.33,3.2664,3.1511,3.1705,3.1795,3.1809,3.2004,3.2093,3.2123,3.2658,3.3272,3.3876,3.3876,3.4615,3.5599,3.5091,3.538,3.5825,0.0,0.0,0.0,0.0,0.0,0.0,0.0,0.0,0.0,0.0,0.0,0.0,0.0,0.0,0.0,0.0,0.0,0.0,0.0,0.0,1.0293,1.0293,1.0795,1.0965,1.0725,1.1126,1.2272,1.4187,1.3867,1.3447,1.2976,1.3281,1.2934,1.2113,0.0,1.2702,0.0,0.0,0.0,0.0,1.0028,0.9779,0.97,0.0,0.0,0.0,0.0,0.0,0.0,0.0,0.0,0.0,1.0837,0.0,1.2237,1.3121,1.4071,1.505,1.5989,0.0,0.0,0.0,0.0,0.0,0.0,0.0,0.0,0.0,0.0,0.0,0.0,0.0,0.0,0.0,0.0,0.0,3.1792,3.186,3.2029,3.2476,3.2527,3.2527,3.2527,3.2797,3.2949,3.2949,3.3237,3.3396,3.3396,3.3396,3.3396,3.3396,3.3009,3.3012,3.3467,3.3064,3.296,3.3125,3.3125,3.2682,3.1914,3.2202,3.2324,3.2324,3.2324,3.2324,3.2365,3.2812,3.3391,3.4,3.4,3.4685,3.5623,3.5165,3.5366,3.569,0.0,0.0,0.0,0.0,0.0,0.0,0.0,0.0,0.0,0.0,0.0,0.0,0.0,0.0,0.0,0.0,0.0,0.0,0.0,0.0,1.0293,1.0293,1.0293,1.0641,1.1372,1.1328,1.1253,1.1203,1.1817,1.2105,1.211,1.2866,1.3224,1.3258,0.0,1.3598,0.0,0.0,0.0,0.9779,0.9734,0.9721,0.9713,0.9723,0.0,0.0,0.0,0.0,0.0,0.0,0.0,0.0,1.0174,1.0279,1.0531,1.2664,1.4078,1.5391,0.0,0.0,0.0,0.0,0.0,0.0,0.0,0.0,0.0,0.0,0.0,0.0,0.0,0.0,0.0,0.0,0.0,3.1232,3.12,3.123,3.1232,3.12,3.12,3.12,3.12,3.1819,3.2209,3.2209,3.2814,3.3203,3.3203,3.3203,3.3203,3.3203,3.3203,3.3227,3.3294,3.3294,3.3035,3.249,3.249,3.252,3.2605,3.322,3.3547,3.3595,3.3595,3.3633,3.3684,3.3684,3.4087,3.47,3.47,3.5063,3.56,3.56,3.5219,3.4671,0.0,0.0,0.0,0.0,0.0,0.0,0.0,0.0,0.0,0.0,0.0,0.0,0.0,0.0,0.0,0.0,0.0,0.0,0.0,0.0,1.0293,1.0293,1.0293,1.0367,1.047,1.0461,1.0444,1.0448,1.1154,1.1154,0.0,0.0,0.0,1.1857,0.0,1.2293,0.0,0.0,0.0,0.9723,0.982,0.9826,0.9776,0.9839,0.9899,0.0,0.0,0.0,0.0,0.0,0.0,0.0,1.0203,1.0688,1.1212,1.2234,1.3725,1.5443,0.0,1.9016,0.0,0.0,0.0,0.0,0.0,0.0,0.0,0.0,0.0,0.0,0.0,0.0,0.0,0.0,3.146,3.1556,3.1232,3.146,3.1547,3.1249,3.12,3.12,3.12,3.1336,3.1437,3.1437,3.1589,3.1664,3.1664,3.1664,3.1664,3.1664,3.1664,3.1945,3.252,3.2547,3.2752,3.3188,3.3188,3.319,3.3195,3.2878,3.3045,3.3595,3.3595,3.3899,3.4382,3.4382,3.4788,3.5385,3.5385,3.547,3.56,3.56,3.5504,3.5316,0.0,0.0,0.0,0.0,0.0,0.0,0.0,0.0,0.0,0.0,0.0,0.0,0.0,0.0,0.0,0.0,0.0,0.0,0.0,0.0,1.0293,1.0293,1.0293,1.0272,1.0204,1.0205,1.0194,1.0194,1.0592,0.0,0.0,0.0,0.0,1.2459,0.0,1.2357,0.0,0.0,1.0086,0.9708,0.9784,0.9798,0.98,0.9842,0.9891,0.9953,0.9909,0.0,0.0,0.0,0.0,0.0,0.0,0.0,1.0447,1.143,1.2836,1.4574,0.0,0.0,0.0,0.0,0.0,0.0,0.0,0.0,0.0,0.0,0.0,0.0,0.0,0.0,0.0,3.0548,3.0852,3.1029,3.1179,3.1389,3.1439,3.123,3.12,3.12,3.12,3.12,3.12,3.12,3.12,3.12,3.12,3.12,3.12,3.12,3.12,3.1386,3.1759,3.1759,3.1979,3.2357,3.2357,3.2527,3.2861,3.2912,3.3144,3.3517,3.3886,3.4235,3.4586,3.4925,3.5276,3.56,3.56,3.56,3.56,3.56,3.56,3.5538,0.0,0.0,0.0,0.0,0.0,0.0,0.0,0.0,0.0,0.0,0.0,0.0,0.0,0.0,0.0,0.0,0.0,0.0,0.0,1.0293,1.0293,1.0293,1.0293,1.0273,1.0215,1.0207,1.0208,1.0194,0.0,0.0,0.0,0.0,0.0,1.3626,0.0,0.0,0.0,0.0,1.0329,0.9702,0.9717,0.975,0.9798,0.9829,0.9863,0.9917,0.9929,0.9926,0.9904,0.9844,0.0,0.0,0.0,0.0,0.9376,1.0621,1.1789,1.333,0.0,0.0,0.0,0.0,0.0,0.0,0.0,0.0,0.0,0.0,0.0,0.0,0.0,0.0,0.0,2.9786,2.998,3.0202,3.0736,3.0879,3.0891,3.0838,3.0828,3.0828,3.0828,3.0946,3.1004,3.1004,3.1133,3.12,3.12,3.12,3.12,3.12,3.12,3.12,3.12,3.12,3.12,3.12,3.12,3.1522,3.2141,3.2747,3.3159,3.3429,3.4049,3.4303,3.4353,3.4968,3.5211,3.5228,3.5357,3.5408,3.5442,3.5549,3.56,3.56,0.0,0.0,0.0,0.0,0.0,0.0,0.0,0.0,0.0,0.0,0.0,1.0065,1.0189,1.0204,0.0,0.0,0.0,0.0,1.0293,0.0,0.0,1.0293,1.0293,1.0293,1.0293,1.0233,1.0207,1.0194,0.0,0.0,0.0,0.0,0.0,1.3733,0.0,0.0,0.0,0.0,0.0,0.9708,0.9766,0.9784,0.9813,0.9919,0.9973,0.9987,1.0056,1.0042,0.997,0.9907,0.9846,0.0,0.0,0.0,0.0,1.0244,1.114,1.2264,0.0,0.0,0.0,0.0,0.0,0.0,0.0,0.0,0.0,0.0,0.0,0.0,0.0,0.0,2.8221,2.9018,2.9436,2.9584,2.9328,2.9582,2.967,2.9343,2.9297,2.9297,2.9297,2.9871,3.0251,3.0251,3.0835,3.12,3.12,3.12,3.12,3.12,3.12,3.12,3.12,3.12,3.12,3.12,3.12,3.1251,3.1352,3.1444,3.2188,3.3406,3.3497,3.3558,3.3558,3.3649,3.3683,3.3751,3.4404,3.4652,3.4726,3.5357,3.56,3.56,0.0,0.0,0.0,0.0,0.0,0.0,0.0,0.0,0.0,0.0,0.0,1.0071,1.0133,1.0176,0.0,0.0,0.0,0.0,1.0293,1.0293,0.0,0.0,1.0293,1.0293,1.0293,1.0273,1.0231,0.0,0.0,0.0,0.0,1.3421,1.4162,0.0,0.0,0.0,0.0,0.0,0.0,0.9704,0.9725,1.0302,1.1049,1.0212,1.0472,1.1186,1.0346,1.0037,0.0,0.0,0.0,0.0,0.9571,0.0,0.0,0.0,0.0,0.0,0.0,0.0,0.0,0.0,0.0,0.0,0.0,0.0,0.0,0.0,0.0,0.0,0.0,0.0,2.7427,2.8197,2.8483,2.8689,2.8952,2.9148,2.9201,2.902,2.8993,2.8993,2.8993,2.9288,2.9482,2.9482,2.9779,2.9974,2.9974,2.9974,2.9974,2.9974,2.9974,2.9974,2.9974,2.9974,3.0168,3.0581,3.0581,3.0801,3.12,3.12,3.1546,3.2188,3.2594,3.2791,3.2824,3.3237,3.3396,3.3429,3.3761,3.388,3.3931,3.4258,3.4376,3.4376,0.0,0.0,0.0,0.0,0.0,0.0,0.0,0.0,0.0,0.0,0.0,0.0,1.0113,0.0,0.0,0.0,0.0,0.0,1.0293,0.0,0.0,0.0,0.0,1.0293,1.0293,1.0293,1.0273,0.0,0.0,0.0,1.4002,1.3841,1.5135,0.0,1.4969,0.0,0.0,0.0,0.0,0.0,0.0,1.1059,1.209,1.1312,1.179,1.2688,1.1147,0.0,0.0,0.0,0.0,0.0,0.0,0.0,0.0,0.0,0.0,0.0,0.0,0.0,0.0,0.0,0.0,0.0,0.0,0.0,0.0,0.0,0.0,0.0,0.0,2.6446,2.6877,2.7435,2.7519,2.7731,2.8324,2.8417,2.8417,2.8417,2.8417,2.8417,2.8417,2.8595,2.8696,2.8696,2.8891,2.8993,2.8993,2.8993,2.8993,2.8993,2.8993,2.8993,2.8993,2.8993,2.9271,2.982,3.0014,3.0386,3.092,3.1116,3.12,3.1224,3.1775,3.2022,3.2056,3.2611,3.2848,3.2865,3.3051,3.3119,3.3136,3.3328,3.3396,3.3396,0.0,0.0,0.0,0.0,0.0,0.0,0.0,0.0,0.0,0.0,0.0,0.0,0.0,0.0,0.0,0.0,0.0,0.0,0.0,0.0,0.0,0.0,0.0,0.0,0.0,1.0293,0.0,0.0,0.0,0.0,1.4005,1.3985,1.5271,1.7519,1.5589,1.4197,1.3211,0.0,0.0,0.0,0.0,0.0,1.2261,1.3775,1.4402,1.4273,0.0,0.0,0.0,0.0,0.0,0.0,0.0,0.0,0.0,0.0,0.0,0.0,0.0,0.0,0.0,0.0,0.0,0.0,0.0,0.0,0.0,0.0,0.0,0.0,2.4661,2.576,2.6716,2.675,2.6767,2.6767,2.6818,2.6818,2.6818,2.6818,2.6818,2.6818,2.6818,2.7444,2.7858,2.7858,2.8578,2.8993,2.8993,2.8993,2.8993,2.8993,2.8993,2.8993,2.8993,2.8993,2.9027,2.9077,2.977,3.0115,3.0183,3.0886,3.12,3.12,3.1251,3.1268,3.1268,3.1292,3.1309,3.1376,3.208,3.2361,3.2446,3.3136,3.3396,3.3396,0.0,0.0,0.0,0.0,0.0,0.0,0.0,0.0,0.0,0.0,0.0,0.0,0.0,1.0155,1.0203,1.0204,0.0,0.0,0.0,0.0,0.0,0.0,0.0,0.0,0.0,0.0,0.0,0.0,0.0,1.1229,1.315,1.3087,1.3746,1.5001,1.4376,1.4122,1.4023,1.1313,0.0,0.0,0.0,0.0,0.0,1.4502,1.5176,1.5864,0.0,0.0,0.0,0.0,0.0,0.0,0.0,1.0072,0.9635,0.9691,0.0,0.0,0.0,0.0,0.0,0.0,0.0,0.0,0.0,0.0,0.0,0.0,0.0,0.0,2.3864,2.4609,2.5439,2.593,2.5998,2.6167,2.6632,2.67,2.67,2.67,2.67,2.67,2.67,2.6945,2.7097,2.7097,2.7359,2.7529,2.7529,2.7529,2.7529,2.7529,2.7529,2.7529,2.7529,2.7529,2.7757,2.8238,2.85,2.8898,2.9424,3.0159,3.0497,3.0531,3.0987,3.12,3.12,3.12,3.12,3.1234,3.1488,3.1589,3.1623,3.1894,3.1985,3.1985,0.0,0.0,0.0,0.0,0.0,0.0,0.0,0.0,0.0,0.9882,0.0,0.0,0.0,0.0,1.0174,1.0194,1.0193,1.0203,1.0203,0.0,0.0,0.0,0.0,0.0,0.0,0.0,0.0,0.0,0.0,0.0,0.0,1.2213,1.2554,1.3228,1.297,1.3515,0.0,0.0,0.0,1.2939,0.0,0.0,1.5769,0.0,1.7007,0.0,0.0,0.0,0.0,0.0,0.0,0.0,0.0,1.0574,0.97,0.97,1.0649,0.0,1.2357,0.0,0.0,0.0,0.0,0.0,0.0,0.0,0.0,0.0,0.0,2.3405,2.3093,2.3427,2.4077,2.5067,2.5236,2.5406,2.5887,2.6167,2.6336,2.6336,2.6539,2.67,2.67,2.67,2.67,2.67,2.67,0.0,2.67,2.67,2.67,2.67,2.67,2.67,2.67,2.67,2.6945,2.7435,2.7672,2.8086,2.8628,2.9381,2.9736,2.977,3.0514,3.097,3.12,3.12,3.12,3.12,3.12,3.12,3.12,3.12,3.12,3.12,0.0,0.0,0.0,0.0,0.0,0.0,0.0,0.0,0.9821,0.9879,0.0,0.0,0.0,0.0,0.0,1.0193,1.0194,1.0194,1.0194,1.0194,0.0,0.0,0.0,0.0,0.0,0.0,0.0,0.0,0.0,0.0,0.0,0.0,1.1811,1.2421,1.1576,1.2404,1.4386,0.0,1.3697,1.4567,0.0,1.5698,1.6117,0.0,0.0,0.0,1.8445,1.7718,0.0,0.0,0.0,0.0,0.0,1.1035,0.9737,0.9737,1.0315,0.0,0.0,0.0,0.0,0.0,0.0,0.0,0.0,0.0,0.0,0.0,0.0,2.2556,2.2353,2.2303,2.2777,2.4203,2.4448,2.4474,2.4498,2.5126,2.5567,2.5567,2.6201,2.6632,2.6632,2.6632,2.6632,2.6632,2.6632,2.6632,2.6632,2.6666,2.6683,2.67,2.67,2.67,2.67,2.67,2.67,2.6716,2.7427,2.7773,2.779,2.8611,2.8959,2.901,2.9753,3.048,3.1149,3.1183,3.12,3.12,3.12,3.12,3.12,3.12,3.12,3.12,0.0,0.0,0.0,0.0,0.0,0.97,0.97,0.9723,0.9752,0.0,0.0,0.0,1.0012,1.0073,1.0114,1.0135,1.0135,1.0135,1.0135,1.0174,1.0207,1.0194,1.0195,1.0207,1.021,0.0,0.0,0.0,0.0,0.0,0.0,0.0,0.0,0.0,1.1259,1.1766,1.2738,1.1304,0.0,0.0,1.4101,1.5368,0.0,0.0,0.0,0.0,0.0,1.9701,1.9375,0.0,1.7067,1.5573,0.0,0.0,0.0,1.0567,1.1136,0.0,1.1058,0.0,0.0,0.0,0.0,0.0,0.0,0.0,0.0,0.0,0.0,2.1301,2.2397,2.2433,2.2438,2.2844,2.3359,2.3891,2.4423,2.4677,2.4795,2.4795,2.4982,2.5117,2.5117,2.5117,2.5117,0.0,2.5117,2.5117,2.5117,2.5609,2.615,2.6683,2.67,2.67,2.67,2.67,2.67,2.67,2.6911,2.6996,2.7029,2.7782,2.8137,2.8188,2.8958,2.9424,2.9677,3.076,3.12,3.12,3.12,3.12,3.12,3.12,3.12,3.12,0.0,0.0,0.0,0.0,0.0,0.97,0.97,0.97,0.9729,0.0,0.0,0.0,0.9984,1.0373,1.05,1.0134,1.0095,1.0095,1.0095,1.0135,1.0155,1.0155,1.0155,1.0174,1.0194,1.0198,0.0,0.0,0.0,1.0204,1.0193,1.0202,1.0397,1.0743,1.0646,1.0847,1.1175,0.0,0.0,0.0,1.4594,0.0,0.0,1.9253,2.0225,0.0,0.0,0.0,2.0978,2.0509,1.9032,0.0,0.0,1.3157,1.2269,1.1592,1.22,0.0,0.0,0.0,0.0,0.0,0.0,0.0,0.0,1.6922,0.0,0.0,2.0232,2.0588,2.1427,2.1714,2.1837,2.1837,2.2462,2.3088,2.3519,2.3848,2.4051,2.4051,2.4305,2.4498,2.4498,2.4498,2.4498,2.4498,2.4498,2.4498,2.4498,2.4906,2.5473,2.6218,2.6234,2.6387,2.67,2.67,2.67,2.67,2.67,2.67,2.6716,2.7148,2.7342,2.7376,2.8163,2.8501,2.8586,2.9796,3.0456,3.0768,3.1082,3.12,3.12,3.12,3.12,3.12,0.0,0.0,0.97,0.97,0.97,0.9737,0.9827,0.9755,0.9813,0.0,1.0104,1.0143,1.028,1.0957,1.1138,1.0442,1.0211,1.0134,1.0249,1.0153,1.0095,1.0095,1.0095,1.0135,1.0194,1.0194,1.0193,1.0195,1.0202,1.0194,1.0194,1.0193,1.0151,1.0082,0.9959,0.9888,0.9889,0.0,0.0,1.3482,1.5631,1.7209,0.0,0.0,2.1684,0.0,2.2735,2.2593,2.2051,2.1959,2.034,0.0,0.0,1.4915,1.4475,1.2957,1.3505,0.0,1.3755,1.3629,0.0,0.0,0.0,0.0,1.6946,1.7381,1.7427,0.0,0.0,1.9918,1.9862,2.0444,2.0936,2.0936,2.1634,2.2219,2.2286,2.2861,2.3282,2.3282,2.3857,2.4254,2.4254,2.4254,2.4254,2.4254,2.4254,2.4288,2.4372,2.438,2.472,2.5448,2.549,2.5795,2.6446,2.6547,2.6581,2.6581,2.6666,2.67,2.67,2.67,2.67,2.6733,2.7393,2.7672,2.7739,2.8544,2.9347,3.0166,3.0818,3.1133,3.12,3.12,3.12,3.12,0.0,0.97,0.97,0.97,0.97,0.9917,1.0567,1.0117,1.0169,1.1506,1.1808,1.1956,1.2151,1.1712,1.1601,1.2142,1.0906,1.0404,1.1099,1.0481,1.0095,1.0095,1.0095,1.0135,1.0194,1.0194,1.0196,1.0195,1.0202,1.0194,1.0194,1.0135,1.0074,1.0027,0.9937,0.9879,0.9905,0.0,0.0,1.3338,1.381,0.0,1.9113,1.9609,2.1037,2.279,2.2933,2.3322,2.3625,0.0,2.1557,1.9832,0.0,0.0,0.0,1.5288,0.0,1.5438,1.5276,1.5707,1.5995,1.5169,0.0,0.0,1.4536,1.5178,1.6266,0.0,0.0,0.0,1.8636,1.9121,1.9345,1.9345,2.0507,2.1624,2.2219,2.2415,2.2506,2.2506,2.2641,2.2733,2.2733,2.2733,2.2733,2.2733,2.2733,2.2987,2.3586,2.362,2.3942,2.4694,2.4703,2.4778,2.4931,2.5524,2.5803,2.582,2.642,2.67,2.67,2.67,2.67,2.6716,2.6843,2.6911,2.6962,2.7714,2.8847,3.0115,3.0251,3.0683,3.12,3.12,3.12,3.12,0.0,0.97,0.97,0.97,0.97,0.9972,1.0783,1.0567,1.0884,1.253,1.3292,1.3422,1.2681,1.2639,1.2482,1.2083,1.1212,1.0695,1.0695,1.0257,1.002,1.0056,1.0057,1.0089,1.0154,1.0174,1.0203,1.0195,1.0203,1.0194,1.0193,1.0109,1.0244,1.0577,1.0077,1.0055,0.0,0.0,1.1606,1.2837,1.4444,0.0,1.995,2.038,2.1826,2.3598,2.3598,2.3859,2.3951,2.2309,2.1754,0.0,0.0,1.8996,1.901,0.0,1.7182,1.7406,1.7017,1.6897,1.692,1.7028,0.0,0.0,0.0,1.6076,1.661,1.773,1.7038,0.0,0.0,0.0,1.8381,1.8478,1.9671,2.0668,2.0884,2.1716,2.2296,2.2296,2.2296,2.2296,2.2296,2.2296,2.2296,2.2296,2.2296,2.2455,2.2827,2.2852,2.319,2.3925,2.3949,2.4135,2.4498,2.488,2.5236,2.5601,2.5981,2.6336,2.67,2.67,2.67,2.67,2.67,2.67,2.6733,2.7097,2.8048,2.9271,2.9463,2.9779,3.0151,3.0514,3.0649,3.07,0.0,0.9687,0.9694,0.9675,0.9813,1.0206,1.1005,1.1132,1.1744,1.3437,1.4537,1.4735,1.3559,0.0,0.0,0.0,1.2148,1.1505,0.0,0.0,1.0166,1.0213,1.0081,1.0091,1.0301,1.0223,1.0193,1.0194,1.0193,1.0193,1.0193,1.0062,1.0335,1.0917,0.0,0.0,0.0,0.0,0.0,1.3013,0.0,1.7939,1.9938,2.1106,2.2451,2.3772,2.4084,2.4194,2.3878,2.1703,0.0,2.2511,1.9708,2.0193,0.0,0.0,0.0,0.0,0.0,0.0,0.0,0.0,0.0,1.7938,0.0,0.0,0.0,1.8437,0.0,0.0,0.0,0.0,0.0,0.0,0.0,0.0,0.0,2.0512,0.0,2.1747,2.1947,2.2083,2.2083,2.1941,2.1975,2.2279,2.2026,2.1992,2.2279,2.2296,2.2574,2.3173,2.3197,2.3468,2.4068,2.422,2.4592,2.5178,2.5313,2.5778,2.6496,2.6496,2.6581,2.67,2.67,2.67,2.67,2.67,2.7289,2.8227,2.8628,2.8903,2.917,2.9764,2.9976,3.0087,0.9523,0.9619,0.9671,0.954,1.0215,1.1024,1.1838,1.1966,1.2592,1.4331,1.5287,0.0,0.0,0.0,0.0,0.0,0.0,0.0,1.4451,0.0,1.0974,1.0965,1.035,1.0346,1.1067,1.044,1.0135,1.0194,1.0135,1.0135,1.0193,1.0062,1.0015,1.0068,1.0614,0.0,0.0,0.0,1.3162,0.0,1.5695,1.6423,0.0,1.9791,2.1235,2.2253,2.3699,2.4194,2.4043,0.0,2.2841,2.2804,0.0,2.1574,2.1739,0.0,0.0,0.0,0.0,0.0,0.0,0.0,2.0087,0.0,0.0,0.0,1.8879,1.7447,0.0,0.0,0.0,0.0,0.0,0.0,0.0,0.0,1.7119,1.8324,1.942,1.9784,2.0713,2.1326,2.1326,2.068,2.0836,2.2202,2.1022,2.0859,2.2229,2.2296,2.2337,2.2415,2.2415,2.2472,2.2557,2.319,2.3569,2.3671,2.4314,2.5008,2.5719,2.5719,2.6082,2.67,2.67,2.67,2.67,2.67,2.699,2.7464,2.7802,2.8544,2.9446,2.9541,2.9575,2.9635,0.9399,0.9498,0.0,0.9513,0.9883,1.0627,1.1914,1.3689,1.5005,1.5357,1.6562,0.0,0.0,0.0,0.0,0.0,0.0,1.5163,0.0,0.0,0.0,1.1755,1.1032,1.0817,1.1183,1.0474,1.0114,1.0135,1.0114,1.0114,1.0133,0.9999,1.0188,1.0612,1.0844,0.0,1.2281,0.0,0.0,0.0,0.0,0.0,0.0,1.9968,2.2065,2.3277,2.3956,2.4194,2.4011,0.0,2.2607,0.0,0.0,0.0,0.0,0.0,0.0,0.0,0.0,0.0,0.0,0.0,0.0,0.0,1.8663,0.0,1.8347,0.0,0.0,0.0,0.0,0.0,0.0,0.0,1.6374,0.0,0.0,0.0,1.7378,0.0,0.0,0.0,1.9819,1.9947,2.0278,2.092,2.038,2.0487,2.1607,2.2073,2.2296,2.2296,2.2296,2.2296,2.2296,2.2608,2.2987,2.34,2.3705,2.4246,2.4957,2.4957,2.5363,2.6065,2.6065,2.6302,2.6716,2.6955,2.7295,2.7654,2.7805,2.8142,2.8621,2.9051,2.9201,2.9294,0.9281,0.0,0.0,0.0,0.9794,1.0576,1.2173,1.4603,1.6235,1.6176,0.0,0.0,1.8976,1.9144,0.0,0.0,0.0,1.6969,0.0,0.0,1.3395,1.2851,1.1917,0.0,0.0,1.0772,1.0296,1.0074,1.0088,1.0088,1.0072,0.9956,1.0198,1.0765,1.1082,1.2003,1.3283,0.0,0.0,1.4655,1.5007,1.6056,1.77,2.0674,2.2804,2.4194,2.4194,2.4194,2.3993,2.2597,2.252,0.0,2.2299,0.0,0.0,0.0,0.0,0.0,2.2616,0.0,0.0,0.0,0.0,0.0,0.0,0.0,0.0,0.0,0.0,0.0,0.0,0.0,0.0,0.0,0.0,1.5184,0.0,0.0,0.0,0.0,0.0,0.0,0.0,1.8713,1.9051,1.9659,1.9315,1.9716,2.1123,2.1708,2.2083,2.2296,2.2296,2.2296,2.2296,2.2296,2.2574,2.3105,2.3105,2.3477,2.4203,2.4203,2.4601,2.5312,2.5627,2.601,2.6453,2.717,2.7644,2.7911,2.7992,2.8088,2.8259,2.8688,2.8842,2.8905,0.9126,0.9326,0.0,0.0,0.0,1.1393,1.3023,1.4004,1.5135,0.0,0.0,0.0,0.0,0.0,0.0,0.0,0.0,1.9272,1.9387,0.0,1.4457,1.4423,1.2974,1.2162,0.0,1.1501,1.0785,0.9998,1.0071,1.007,0.9997,0.9934,0.9872,0.9906,1.1407,1.2522,1.3356,1.4093,1.5796,1.7873,1.7132,1.8735,2.1615,0.0,2.2804,2.4194,2.4194,0.0,0.0,2.3249,2.2988,0.0,0.0,0.0,0.0,0.0,0.0,0.0,0.0,0.0,0.0,2.0538,0.0,0.0,0.0,0.0,1.9388,0.0,0.0,0.0,0.0,0.0,0.0,0.0,0.0,0.0,0.0,0.0,0.0,0.0,0.0,0.0,0.0,1.6576,1.6632,0.0,1.7602,1.8099,2.1038,2.1214,2.1556,2.2279,2.2296,2.2296,2.2296,2.2296,2.2313,2.2337,2.2337,2.2726,2.3434,2.3434,2.384,2.4606,2.5702,2.5977,2.575,2.7255,2.789,2.794,2.8264,2.8627,2.8917,2.8545,2.8424,2.8424,0.0,0.0,0.0,0.0,0.0,1.0835,1.297,1.4512,0.0,0.0,0.0,0.0,0.0,0.0,2.2701,0.0,0.0,2.1301,2.0258,1.8617,0.0,0.0,0.0,1.4328,0.0,0.0,1.1527,1.0736,1.022,0.9959,0.9934,0.9857,0.9821,0.9864,1.1405,1.2847,0.0,0.0,0.0,0.0,0.0,2.0134,2.2588,0.0,0.0,2.4194,2.4194,2.4194,0.0,2.3896,2.3282,2.2796,2.3564,2.3277,2.2874,2.3903,2.4194,0.0,0.0,0.0,2.3991,2.1881,0.0,0.0,0.0,0.0,0.0,0.0,0.0,0.0,0.0,0.0,0.0,0.0,0.0,0.0,0.0,0.0,0.0,0.0,0.0,0.0,0.0,0.0,0.0,0.0,1.6981,0.0,2.0274,2.1088,2.1727,2.2276,2.2477,2.2484,2.2296,2.2484,2.2553,2.2553,2.2553,2.2809,2.326,2.2849,2.3208,2.4127,2.452,2.4889,2.5316,2.6819,2.7442,2.7528,2.8445,2.8725,2.8584,2.8452,2.8407,2.8324,0.9356,0.0,0.0,0.0,0.0,0.0,0.0,0.0,0.0,0.0,1.9929,0.0,2.315,0.0,2.3557,0.0,2.3346,2.2501,2.1055,2.0189,0.0,1.8555,1.7291,0.0,0.0,0.0,1.2587,1.1495,1.0712,1.0176,0.9871,0.982,0.0,0.0,0.0,1.2992,1.4567,0.0,1.6915,0.0,0.0,2.1561,0.0,0.0,2.3749,2.4194,0.0,2.4194,2.418,2.4069,2.3531,2.3025,2.3643,2.343,2.3064,2.382,2.4103,2.4194,2.4194,2.4294,0.0,2.2477,2.1372,0.0,1.9102,0.0,0.0,0.0,0.0,0.0,0.0,0.0,0.0,0.0,0.0,0.0,0.0,1.2646,0.0,0.0,0.0,0.0,0.0,0.0,1.4957,1.6214,1.6062,0.0,0.0,2.0505,2.1344,2.2027,2.2481,2.2667,2.2624,2.2789,2.2885,2.2885,2.2885,2.2996,2.3183,2.2798,2.3009,2.3669,2.4072,2.4443,2.4894,2.668,2.7327,2.7326,2.8541,2.8839,2.8608,2.8452,2.8232,2.7946,0.0,0.0,0.0,0.0,1.1794,0.0,0.0,0.0,1.8464,0.0,2.0416,2.1589,2.3366,2.3568,2.3824,2.445,2.3787,0.0,2.1977,2.1102,0.0,0.0,1.8665,1.7832,1.7037,0.0,0.0,0.0,1.1487,1.0678,0.9862,0.9806,0.0,0.0,1.1384,0.0,1.4603,1.6211,1.832,2.0709,2.2345,2.3015,2.312,2.391,2.4175,2.4156,2.417,2.4166,2.4099,2.3785,2.3666,2.3593,2.3306,2.3403,2.366,2.3692,2.3922,2.4175,2.4208,2.4194,2.3842,2.2387,2.196,0.0,0.0,0.0,2.0537,0.0,0.0,0.0,0.0,0.0,0.0,0.0,0.0,0.0,0.0,0.0,0.0,0.0,0.0,0.0,0.0,0.0,1.3244,1.5375,1.494,0.0,0.0,1.9607,2.0505,2.1599,2.2347,2.288,2.3195,2.323,2.3218,2.3218,2.3218,2.323,2.3241,2.323,2.3206,2.3289,2.4374,2.4628,2.4446,2.6784,2.7527,2.729,2.8505,2.894,2.8863,2.8515,2.7911,2.728,1.0349,1.1439,1.2561,0.0,1.3293,1.4027,0.0,0.0,0.0,0.0,2.1993,2.2838,2.4319,2.4464,2.4479,2.4501,2.4176,0.0,0.0,0.0,0.0,2.2056,2.0658,1.9502,1.8702,1.6547,0.0,1.3905,0.0,0.0,1.0601,0.0,0.0,0.0,0.0,0.0,1.4603,1.6211,1.8676,2.1551,2.2588,2.3204,0.0,0.0,2.3891,2.35,2.373,2.3671,2.3437,2.3357,2.3159,2.299,2.3147,2.3093,2.3057,2.3555,2.3769,2.3886,2.4123,2.4194,2.4136,2.3894,2.2862,2.1793,0.0,0.0,0.0,0.0,0.0,0.0,0.0,0.0,0.0,0.0,0.0,0.0,0.0,0.0,0.0,0.0,0.0,0.0,0.0,0.0,1.357,1.4694,1.5255,0.0,0.0,0.0,2.0696,2.1855,2.2897,2.3363,2.3195,2.346,2.3566,2.3566,2.3566,2.3698,2.3922,2.342,2.334,2.3595,2.3882,2.3956,2.4014,2.6065,2.6858,2.688,2.8088,2.823,2.7755,2.7957,2.7537,2.6849,1.1597,0.0,0.0,1.5408,0.0,0.0,1.7953,0.0,0.0,2.2128,2.2907,0.0,2.4287,2.4672,2.4773,2.451,2.4401,0.0,2.3699,0.0,0.0,2.3024,2.2107,2.1212,2.0417,1.8264,0.0,1.5028,0.0,0.0,1.0873,0.0,0.0,0.0,0.0,1.2795,0.0,1.7187,1.9763,2.1896,2.2889,2.3466,0.0,2.3758,2.3437,2.3009,2.3195,2.3248,2.3177,2.3033,2.286,2.2708,2.2781,2.2768,2.2778,2.3147,2.3369,2.3527,2.3708,2.3876,2.4003,2.4117,2.3524,2.2838,2.2603,2.2542,2.2399,0.0,2.2212,2.2489,0.0,0.0,0.0,0.0,0.0,0.0,0.0,0.0,0.0,0.0,0.0,0.0,0.0,0.0,0.0,0.0,0.0,0.0,0.0,0.0,2.0878,2.1707,2.3018,2.3682,2.3644,2.3821,2.3917,2.3917,2.3917,2.4016,2.4185,2.3811,2.373,2.3917,2.3917,2.3917,2.4036,2.5473,2.6282,2.6738,2.8111,2.8098,2.734,2.7761,2.7492,2.6963,0.0,0.0,0.0,0.0,0.0,0.0,0.0,2.0602,0.0,2.2582,0.0,2.3933,2.3933,2.4552,2.4845,2.4541,0.0,2.4126,2.3226,2.3771,2.3825,2.312,2.2941,2.2493,2.1707,1.9871,0.0,0.0,0.0,0.0,1.0853,0.0,0.0,0.0,0.0,0.0,0.0,1.8585,2.0975,2.1857,2.3177,2.3655,2.3544,2.3282,2.2966,2.2654,2.2689,2.286,2.3045,2.2751,2.2654,2.2612,2.2367,2.2457,2.2654,2.2689,2.291,2.3141,2.3189,2.3437,2.3698,2.3698,2.3942,2.4025,2.3322,2.3153,2.3153,2.3153,2.2593,2.2424,0.0,0.0,0.0,0.0,0.0,0.0,0.0,0.0,0.0,0.0,0.0,0.0,0.0,0.0,0.0,0.0,0.0,0.0,0.0,0.0,2.0709,2.1424,2.2843,2.3792,2.4208,2.4194,2.4194,2.4194,2.4194,2.4194,2.4194,2.4194,2.4194,2.4194,2.4194,2.4194,2.4268,2.5062,2.5873,2.6757,2.8092,2.8054,2.7255,2.7604,2.7582,2.7363,0.0,0.0,0.0,0.0,0.0,2.0607,2.1451,2.1726,2.2194,2.3215,2.4099,2.462,2.462,2.4755,2.4738,2.4524,2.4503,0.0,0.0,0.0,0.0,2.3586,2.267,2.1827,2.1067,1.9445,1.7471,0.0,0.0,0.0,1.0725,1.0021,0.0,0.0,0.0,0.0,1.6453,1.9296,0.0,2.1516,2.3076,2.3369,2.2904,2.3117,2.2851,2.2409,2.2625,2.2597,2.245,2.2388,2.2367,2.2353,2.23,2.2328,2.2412,2.2634,2.274,2.2854,2.3123,2.3437,2.3698,2.3698,2.3942,2.4153,2.4025,2.3988,2.3988,2.3988,2.3882,2.3648,2.3207,0.0,0.0,0.0,0.0,0.0,0.0,0.0,0.0,0.0,0.0,0.0,0.0,0.0,0.0,0.0,0.0,0.0,0.0,0.0,1.8874,0.0,2.2639,2.3459,0.0,0.0,2.4194,2.4194,2.4194,2.4194,2.4194,2.4194,2.4194,2.4194,2.4194,2.4194,2.4268,2.5062,2.5905,2.6677,2.669,2.6741,2.6808,2.6882,2.7295,2.7754,0.0,0.0,0.0,0.0,0.0,0.0,0.0,2.2864,0.0,2.3466,2.387,2.4083,2.3975,2.4368,2.4555,2.4357,2.4334,2.4233,2.3952,2.379,2.3615,2.3443,2.2922,0.0,2.1491,2.0195,1.8465,1.6293,0.0,0.0,1.1247,1.0127,0.0,0.0,0.0,1.4674,0.0,0.0,0.0,2.1401,2.2666,2.2996,2.2695,2.271,2.2544,2.2324,2.246,2.2405,2.2296,2.2296,2.2296,2.2296,2.2296,2.2296,2.2338,2.245,2.2487,2.2527,2.2693,2.3086,2.3437,2.3437,2.3821,2.4194,2.4194,2.4194,2.4194,2.4194,2.4194,2.3951,2.3153,2.2336,0.0,0.0,0.0,0.0,0.0,0.0,0.0,0.0,0.0,0.0,0.0,0.0,0.0,0.0,0.0,0.0,0.0,0.0,1.9023,0.0,0.0,0.0,2.4352,0.0,2.4194,2.4194,2.4194,2.4194,2.4194,2.4194,2.4194,2.4194,2.4194,2.4194,2.4253,2.4887,2.5265,2.5524,2.6237,2.635,2.6191,2.6785,2.7264,2.7582,0.0,2.0863,0.0,0.0,2.1941,0.0,2.2896,2.3671,2.4063,2.3693,2.366,2.3592,2.3483,2.4091,2.4445,2.4275,2.4205,2.4027,2.3719,2.3566,2.3369,2.3105,2.3045,2.2639,2.1855,2.1044,1.9536,0.0,0.0,0.0,1.1959,1.0617,0.0,0.0,0.0,0.0,0.0,0.0,2.0778,2.1524,2.2357,2.2673,2.2586,2.2381,2.2296,2.2296,2.2296,2.2296,2.2296,2.2296,2.2296,2.2296,2.2296,2.2296,2.2296,2.2296,2.2296,2.2296,2.2296,2.2734,2.3195,2.3195,2.3703,2.4194,2.4194,2.4194,2.4194,2.4194,2.4194,2.3951,2.3153,2.2611,0.0,0.0,0.0,0.0,0.0,0.0,0.0,0.0,0.0,0.0,0.0,0.0,0.0,0.0,0.0,0.0,1.4649,1.6597,1.8998,0.0,0.0,2.3384,2.4281,0.0,2.4218,2.4257,2.4218,2.4194,2.4194,2.4194,2.4194,2.4194,2.4194,2.4161,2.4129,2.4411,2.4409,2.4334,2.5593,2.5878,2.5709,2.6605,2.7095,2.7357,0.0,0.0,0.0,0.0,0.0,0.0,2.2988,2.3671,2.419,2.4141,2.4127,2.4206,2.4362,2.4443,2.4495,2.4469,2.4183,2.3923,2.3719,2.3129,2.2784,2.2753,2.2517,2.2041,2.1283,2.1172,1.9695,0.0,0.0,1.4571,1.2597,1.1906,1.2514,0.0,0.0,0.0,0.0,2.0594,2.1486,2.1981,2.2498,2.2557,2.2335,2.2317,2.2296,2.2296,2.2296,2.2296,2.2296,2.2296,2.2296,2.2296,2.2296,2.2296,2.2296,2.2296,2.2296,2.2296,2.2296,2.2734,2.3195,2.3195,2.3703,2.4194,2.4194,2.4194,2.4194,2.4194,2.4194,2.3951,2.3153,2.3524,2.3497,0.0,0.0,0.0,0.0,0.0,0.0,0.0,0.0,0.0,0.0,1.295,0.0,0.0,0.0,0.0,1.4679,1.5073,1.7034,2.0998,2.1763,2.2593,2.3586,2.4004,2.4289,2.4465,2.4284,2.4194,2.4194,2.4194,2.4194,2.4194,2.4194,2.4021,2.3737,2.3475,2.3596,2.3918,2.3776,2.4501,2.5601,2.5717,2.6414,2.7311,0.0,0.0,0.0,0.0,0.0,0.0,0.0,2.3988,2.4194,2.4194,2.4194,2.4233,2.4317,2.414,2.4025,2.4025,2.3705,2.3395,2.3123,2.2615,2.2259,2.2053,2.1938,2.1734,2.1442,2.1271,2.0371,0.0,0.0,1.5816,1.4789,1.3619,1.4095,0.0,0.0,1.9425,2.0083,2.1244,2.1828,2.203,2.2343,2.2402,2.2296,2.2296,2.2296,2.2296,2.2296,2.2296,2.2296,2.2296,2.2296,2.2296,2.2296,2.2296,2.2296,2.2296,2.2296,2.2296,2.2296,2.2594,2.2904,2.2904,2.3247,2.3593,2.3593,2.3764,2.3902,2.3902,2.4064,2.4098,2.3786,2.3414,2.3196,2.3235,0.0,0.0,0.0,0.0,0.0,0.0,0.0,0.0,0.0,0.0,0.0,0.0,0.0,0.0,1.4067,1.4726,1.6677,2.0297,0.0,2.2525,2.3367,2.3933,2.4242,2.4326,2.4242,2.4194,2.4194,2.4194,2.4194,2.4194,2.4194,2.4113,2.3966,2.3414,2.3305,2.3497,2.3639,2.4363,2.5347,2.5743,2.6494,2.7311,2.3153,0.0,2.3001,0.0,2.3363,2.3367,2.3826,2.3907,2.3907,2.3907,2.3907,2.3937,2.4031,2.3746,2.3555,2.3555,2.3259,2.2893,2.2548,2.2176,2.1784,2.1437,2.1422,0.0,2.1597,2.1411,2.0995,2.0352,1.8555,1.7467,1.7055,1.6157,0.0,0.0,2.025,2.124,2.128,2.2027,2.2352,2.2353,2.2305,2.2296,2.2296,2.2296,2.2296,2.2296,2.2296,2.2296,2.2296,2.2296,2.2296,2.2296,2.2296,2.2296,2.2296,2.2296,2.2296,2.2296,2.2296,2.2494,2.2701,2.2701,2.2953,2.3195,2.3195,2.3386,2.3577,2.3682,2.3976,2.4194,2.4194,2.354,2.3107,2.3451,0.0,0.0,0.0,0.0,0.0,0.0,1.7318,1.6312,1.5219,0.0,0.0,0.0,0.0,0.0,0.0,0.0,0.0,0.0,0.0,0.0,2.3434,2.3941,2.4233,2.4284,2.4228,2.4194,2.4194,2.4194,2.4194,2.4194,2.4194,2.4151,2.4016,2.3544,2.3224,2.3086,2.3421,2.3974,2.4668,2.5231,2.6105,2.6997,2.3195,2.3459,2.3588,2.3253,2.3476,2.3588,2.3253,2.3206,2.3206,2.3206,2.3206,2.3346,2.3671,2.3403,2.32,2.32,2.2904,2.2541,2.2121,2.1786,2.1422,0.0,0.0,2.1189,2.1589,2.1597,2.1465,2.1197,0.0,0.0,1.9177,1.9748,2.0187,2.0525,2.2217,2.2969,2.2974,2.3119,2.3195,2.3135,2.2531,2.2296,2.2296,2.2296,2.2296,2.2296,2.2296,2.2296,2.2296,2.2296,2.2296,2.2296,2.2296,2.2296,2.2296,2.2296,2.2296,2.2296,2.2296,2.2494,2.2701,2.2701,2.2953,2.3195,2.3195,2.32,2.3306,2.3621,2.3976,2.4194,2.4194,2.419,2.3657,2.2088,0.0,0.0,0.0,0.0,0.0,0.0,1.6881,1.5959,1.6075,0.0,0.0,0.0,0.0,0.0,0.0,0.0,0.0,2.1406,2.2784,0.0,2.3786,2.4054,2.4298,2.4495,2.4294,2.4194,2.4194,2.4194,2.4194,2.4194,2.4194,2.4011,2.3703,2.3698,2.3294,2.2708,2.2701,2.2993,2.3468,2.3808,2.4905,2.6261,2.2584,2.2826,2.299,2.2885,2.3135,2.3311,2.323,2.3195,2.31,2.2834,2.2587,2.2383,2.2221,2.2357,2.2447,0.0,2.1881,2.1496,0.0,2.0951,2.0666,2.0525,2.0525,2.0732,2.1173,2.146,2.1707,2.1955,0.0,0.0,0.0,2.1537,2.2123,2.2254,2.3341,2.3685,2.3472,2.3273,2.3069,2.2804,2.21,2.1823,2.1823,2.1823,2.1823,2.1853,2.2187,2.2099,2.1823,2.1823,2.1645,2.14,2.14,2.1591,2.1772,2.1484,2.1615,2.1823,2.1823,2.2123,2.2433,2.2433,2.2514,2.2584,2.2584,2.2901,2.3306,2.3621,2.379,2.3865,2.3865,2.3494,2.2979,2.2389,2.1833,0.0,2.0246,0.0,0.0,0.0,1.8202,1.7694,0.0,1.6469,0.0,0.0,0.0,0.0,0.0,0.0,0.0,0.0,2.2448,0.0,2.3468,2.3945,2.4233,2.4294,2.4233,2.4194,2.4194,2.4194,2.4194,2.4194,2.4194,2.4006,2.3682,2.3448,2.323,2.3021,2.2791,2.3278,2.4073,2.3942,2.4556,2.5549,2.2296,2.252,2.2673,2.2577,2.2676,2.2743,2.2615,2.2467,2.2289,2.2029,2.1814,2.1591,2.1349,2.1386,0.0,2.1672,2.1275,2.0926,2.0756,2.0466,2.0229,2.0072,2.0063,2.0278,2.0739,2.1158,0.0,2.2032,2.1751,2.1655,2.1777,2.2656,2.3209,2.3465,2.3831,2.3896,2.3671,2.3206,2.2915,2.2691,2.2096,2.1853,2.1853,2.1853,2.174,2.1643,2.1928,2.1749,2.1368,2.1368,2.1205,2.0967,2.0797,2.091,2.1102,2.1015,2.1173,2.1407,2.1552,2.1816,2.2085,2.2261,2.2296,2.2296,2.2296,2.268,2.3069,2.3288,2.342,2.3516,2.3516,2.3165,2.2669,2.2009,2.1393,2.0734,2.0047,0.0,0.0,0.0,0.0,0.0,0.0,1.7979,1.7926,0.0,0.0,0.0,0.0,0.0,2.0318,2.1022,2.2956,2.3955,2.3866,2.409,2.4194,2.4194,2.4194,2.4123,2.4011,2.4011,2.4011,2.4011,2.4011,2.3952,2.3853,2.3527,2.3299,2.3165,2.2835,2.3078,2.3602,2.349,2.3963,2.4778,2.2296,2.25,2.2579,0.0,2.2153,2.1958,2.1612,2.1236,2.0999,2.0967,2.0951,2.0934,2.091,2.0516,2.0424,2.087,0.0,0.0,2.0289,2.0263,2.0089,1.9726,1.9708,1.9892,2.0297,2.0739,2.1158,2.1597,2.2089,2.2624,2.3165,2.3189,2.3538,2.4127,2.3806,2.3655,2.3588,2.2966,2.273,2.2743,2.2388,2.2244,2.2254,2.2216,2.1935,2.1552,2.1552,2.1299,2.0951,2.0951,2.0926,2.0829,2.039,2.0263,2.034,2.078,2.0926,2.1031,2.1407,2.1536,2.1658,2.2099,2.2209,2.2216,2.2254,2.2467,2.2669,2.2695,2.2953,2.3165,2.3165,2.3147,2.2641,2.1114,2.1098,2.074,1.92,1.9174,0.0,0.0,0.0,0.0,1.7974,1.9241,1.9829,0.0,0.0,0.0,0.0,0.0,2.2116,2.2872,2.4122,2.48,2.48,2.4406,2.4194,2.4194,2.4194,2.4049,2.3724,2.3724,2.3724,2.3724,2.3724,2.3902,2.4146,2.3827,2.3522,2.3195,2.2848,2.2563,2.2381,2.2619,2.3213,2.3959,0.0,0.0,2.2267,2.1838,2.1739,2.1588,2.1205,2.1055,2.087,2.0508,2.0466,2.0355,2.005,1.9909,1.9883,1.9997,2.0006,1.9962,1.9847,1.9839,1.98,1.9693,1.9708,1.9892,2.0297,2.0407,2.0846,2.1597,2.2272,2.268,2.2829,2.3081,2.3276,2.3431,2.3357,2.3171,2.2929,2.2772,2.2597,2.2374,2.1933,2.1772,2.1735,2.1423,2.1245,2.1134,2.1134,2.0846,2.0466,2.0466,2.0261,1.9989,1.9874,1.9839,1.9856,1.9971,2.0234,2.0491,2.0576,2.087,2.1166,2.1284,2.1307,2.1385,2.1705,2.2003,2.2323,2.2643,2.2765,2.2822,2.2822,2.2649,2.2073,2.0743,2.0743,2.0461,1.9169,1.9174,1.9254,0.0,1.9765,2.0231,2.0283,2.0671,2.0912,0.0,0.0,2.1716,2.1502,2.2786,2.3596,2.3781,2.4452,2.48,2.48,2.4406,2.4194,2.4194,2.4194,2.4161,2.4084,2.4084,2.4084,2.4084,2.4084,2.3986,2.3811,2.3724,2.366,2.3527,2.2935,2.281,2.2959,2.2765,2.2829,2.3186,2.1714,2.1714,2.1622,2.1368,2.1149,2.0927,2.0707,2.0515,2.0304,2.0061,1.9811,1.9579,1.9354,1.9123,1.8968,1.8968,1.9415,1.9708,1.9708,1.9708,1.9708,1.9708,1.9708,1.98,2.0026,2.0219,2.0724,2.1597,2.2223,2.2573,2.2708,2.2891,2.3057,2.3189,2.3045,2.2873,2.2689,2.2577,2.2422,2.2282,2.2017,2.1794,2.1583,2.1361,2.1039,2.0674,2.0674,2.0406,2.0035,2.0035,1.9883,1.9708,1.9708,1.9708,1.9708,1.9708,1.9847,2.0078,2.0254,2.0491,2.0739,2.0943,2.0991,2.1055,2.1275,2.1618,2.1929,2.2158,2.2371,2.252,2.252,2.2126,2.1491,2.0549,2.0335,1.9987,1.9129,1.9174,1.9478,1.9937,2.0396,2.0908,2.1532,2.2007,2.2176,2.1977,2.2755,0.0,2.2718,2.393,2.449,2.411,2.4569,2.48,2.48,2.4406,2.4194,2.4194,2.4194,2.4113,2.3976,2.3976,2.3976,2.3976,2.3976,2.3966,2.3917,2.3751,2.3698,2.3655,2.3129,2.2947,2.2972,2.2947,2.2835,2.283,2.0991,2.0991,2.0975,2.091,2.0558,2.028,2.0212,1.9927,1.9681,1.9593,1.9179,1.8874,1.8798,1.837,1.8106,1.8106,1.893,1.946,1.946,1.946,1.9488,1.9584,1.9584,1.9621,1.9708,2.0158,2.0781,2.1506,2.2032,2.2412,2.2634,2.2634,2.2796,2.3057,2.277,2.2634,2.2615,2.2409,2.2296,2.2289,2.2216,2.1967,2.1574,2.1383,2.0846,2.0171,2.0024,1.9793,1.9575,1.9488,1.9575,1.9699,1.9603,1.963,1.9708,1.9708,1.9708,1.9773,2.0115,2.0219,2.0321,2.0698,2.0797,2.0813,2.0878,2.1213,2.1521,2.1582,2.1964,2.2296,2.2296,2.1793,2.1157,2.0515,2.0199,1.9805,1.9097,0.0,1.9947,2.0678,2.0836,2.1264,2.2268,2.3037,2.3295,2.2873,2.4238,2.4838,2.4272,2.4916,2.4983,2.4298,2.4648,2.4815,2.4757,2.4388,2.4194,2.4194,2.4194,2.4059,2.3779,2.3779,2.3779,2.3779,2.3779,2.3932,2.417,2.3832,2.3698,2.3671,2.3335,2.3027,2.2822,2.3147,2.3099,2.2904,2.0991,2.0991,2.0878,2.0483,2.0348,2.0193,1.9847,1.9738,1.9548,1.9071,1.8949,1.8727,1.8273,1.8155,1.8106,1.8106,1.8253,1.8351,1.8351,1.8351,1.8554,1.8996,1.9015,1.9234,1.9699,2.0473,2.0959,2.1086,2.1901,2.2314,2.2353,2.2353,2.2388,2.2436,2.2381,2.2353,2.2363,2.2324,2.2296,2.2275,2.1869,2.1666,2.1483,2.0337,1.9827,1.9597,1.8755,1.8684,1.8949,1.8506,1.8949,1.9621,1.9169,1.9341,1.9708,1.9708,1.9708,1.9702,1.9773,1.9791,1.9809,1.9874,1.9892,1.9989,2.0323,2.0756,2.1181,2.1521,2.1964,2.2296,2.2296,2.2219,2.1756,2.0595,2.1097,2.1018,1.9255,0.0,2.1197,2.0629,2.1776,2.275,2.3103,2.3196,2.3581,2.4384,2.4198,2.427,2.4833,2.5134,2.5248,2.5115,2.5022,2.4828,2.4557,2.4321,2.4194,2.4194,2.4194,2.417,2.4113,2.4113,2.4113,2.4113,2.4113,2.4156,2.417,2.3832,2.3698,2.3671,2.3335,2.3165,2.3159,2.3505,2.3588,2.3588,2.0302,2.0302,2.0234,2.0008,1.9982,1.9918,1.9735,1.9708,1.9521,1.8968,1.865,1.8263,1.7737,1.7415,1.7113,1.6781,1.675,1.675,1.675,1.7599,1.8214,1.8458,1.8467,1.8717,1.9253,2.0407,2.0991,2.0991,2.1879,2.2296,2.2296,2.2296,2.2296,2.2296,2.2296,2.2296,2.2296,2.2296,2.2142,2.1906,2.1688,2.1313,2.083,2.0207,1.9656,1.9163,1.8708,1.8506,1.8477,1.8525,1.8864,1.9271,1.9323,1.9497,1.9708,1.9708,1.9497,1.9262,1.9262,1.9262,1.9262,1.9262,1.9488,1.9747,1.9921,2.0313,2.0748,2.1189,2.1613,2.2003,2.2244,2.1972,2.1608,2.1307,2.135,2.1202,2.0593,2.1253,2.1808,2.1832,2.2529,2.3203,2.3725,2.3852,2.4118,2.4608,2.4456,2.4525,2.4982,2.5091,2.5198,2.5303,2.504,2.4778,2.4503,2.4303,2.4194,2.4194,2.4194,2.4194,2.4194,2.4194,2.4194,2.4194,2.4194,2.4194,2.4185,2.4026,2.3976,2.3942,2.38,2.3639,2.3516,2.3855,2.3865,2.3758,1.9708,1.9708,1.9708,1.9708,1.9708,1.9708,1.9708,1.9593,1.9323,1.8788,1.8253,1.7666,1.6988,1.6548,1.6041,1.5443,1.5387,1.5454,1.5588,1.6802,1.7639,1.7907,1.8155,1.8477,1.8893,2.0282,2.0991,2.0991,2.1879,2.2296,2.2296,2.2296,2.2296,2.2296,2.2296,2.2296,2.2289,2.2187,2.1928,2.1582,2.1384,2.083,2.011,1.9878,1.9341,1.8698,1.8574,1.8341,1.8145,1.8429,1.8688,1.8949,1.9234,1.9406,1.9521,1.9521,1.9132,1.8736,1.8874,1.8902,1.893,1.9043,1.9396,1.9708,1.9708,2.0017,2.0433,2.0902,2.1322,2.1733,2.2209,2.1837,2.1571,2.1943,0.0,2.1423,2.1756,2.2058,2.2438,2.2946,2.3171,2.3524,2.4135,2.433,2.4444,2.4499,2.4685,2.4862,2.4998,2.504,2.5113,2.5221,2.4946,2.4727,2.4563,2.4312,2.4194,2.4194,2.4194,2.4194,2.4194,2.4194,2.4194,2.4194,2.4194,2.4194,2.4185,2.4127,2.4084,2.4084,2.4084,2.3922,2.3735,2.4079,2.4049,2.3842,1.9708,1.9708,1.9708,1.9708,1.9708,1.9708,1.9708,1.9271,1.8765,1.8234,1.7686,1.6946,1.584,1.5687,1.5421,1.4812,1.4766,1.4994,1.5565,1.5731,1.6264,1.7309,1.8312,1.8864,1.8902,2.0282,2.0991,2.0991,2.1879,2.2296,2.2296,2.2296,2.2296,2.2296,2.2296,2.2296,2.2275,2.1847,2.1636,2.1529,2.0716,2.0102,1.9543,1.8622,1.822,1.8096,1.7595,1.7717,1.8037,1.7565,1.8086,1.8826,1.8361,1.8564,1.8959,1.8959,1.8583,1.8273,1.8765,1.8902,1.9015,1.953,1.9681,1.9708,1.9708,2.0017,2.0433,2.0902,2.1322,2.1733,2.2209,2.2252,2.2166,2.2025,0.0,0.0,2.1871,2.2812,2.342,2.3033,2.3653,2.4135,2.419,2.4209,2.4298,2.4486,2.4685,2.4862,2.4998,2.519,2.5203,2.5028,2.4886,2.4793,2.4779,2.4397,2.4194,2.4194,2.4194,2.4194,2.4194,2.4194,2.4194,2.4194,2.4194,2.4194,2.4175,2.3853,2.3748,2.3748,2.3748,2.3719,2.3735,2.4079,2.418,2.4166,1.963,1.9708,1.9708,1.9708,1.9708,1.9708,1.9708,1.9234,1.8708,1.8175,1.7626,1.6872,1.5731,1.5599,1.5219,1.4225,1.448,1.4801,1.5028,1.5387,1.6113,1.725,1.8017,1.8564,1.8893,2.0282,2.0991,2.0991,2.1879,2.2296,2.2296,2.2296,2.2296,2.2289,2.2003,2.1869,2.1816,2.1054,2.0587,2.0303,1.9647,1.9091,1.8631,1.8249,1.7897,1.7615,1.7757,1.7717,1.7615,1.7757,1.8076,1.837,1.8165,1.8243,1.8341,1.8017,1.7767,1.7727,1.8263,1.865,1.8949,1.9151,1.9442,1.9708,1.9708,1.9827,2.013,2.0845,2.1118,2.1446,2.2173,2.2296,2.2327,2.2419,0.0,2.3006,2.2985,2.3565,2.3931,2.3772,2.4006,2.4194,2.4194,2.4194,2.4233,2.4312,2.4384,2.4559,2.4854,2.5027,2.5085,2.501,2.4745,2.4611,2.4611,2.4348,2.4194,2.4194,2.4194,2.4194,2.4194,2.4194,2.4194,2.4185,2.3986,2.4006,2.4161,2.3604,2.3516,2.3698,2.3698,2.3698,2.3735,2.4079,2.4194,2.4194,1.9341,1.9442,1.9497,1.9681,1.9708,1.9639,1.947,1.8987,1.8458,1.7927,1.7213,1.6403,1.5421,1.514,1.4629,1.3612,1.4072,1.4503,1.4698,1.5444,1.6309,1.726,1.7817,1.8351,1.8893,2.0136,2.0854,2.0991,2.1592,2.2034,2.2289,2.202,2.1959,2.2053,2.1606,2.1321,2.1101,2.0339,1.9762,1.9302,1.8787,1.829,1.7857,1.7857,1.7727,1.7595,1.7977,1.7867,1.7605,1.7987,1.7997,1.7857,1.7857,1.7967,1.7967,1.726,1.7291,1.7585,1.7797,1.8361,1.894,1.9114,1.9424,1.9708,1.9708,1.9708,1.996,2.0813,2.0991,2.1268,2.2144,2.2296,2.2388,2.266,2.2821,2.3057,2.3488,2.3735,2.3922,2.4026,2.4146,2.4194,2.4194,2.4194,2.4228,2.4289,2.4294,2.4435,2.4782,2.4884,2.4904,2.4848,2.462,2.4465,2.441,2.4261,2.4194,2.4194,2.4194,2.4194,2.4194,2.4194,2.4194,2.4185,2.3966,2.3922,2.4006,2.3549,2.3426,2.3544,2.3544,2.3544,2.3582,2.3917,2.4036,2.4064,1.8798,1.8893,1.9052,1.9603,1.9699,1.9521,1.8977,1.8438,1.7907,1.7363,1.6296,1.5365,1.4755,1.4155,1.3564,1.2954,1.3455,1.4062,1.4663,1.5832,1.6731,1.7281,1.7817,1.8351,1.8893,1.9814,2.0525,2.0983,2.0991,2.1447,2.2275,2.1392,2.1213,2.1574,2.1166,2.07,2.0172,1.9759,1.9284,1.8745,1.8284,1.7777,1.7291,1.7291,1.7615,1.8096,1.8096,1.8096,1.8096,1.8096,1.7747,1.7302,1.7302,1.7666,1.7897,1.6827,1.726,1.7987,1.7442,1.8096,1.9015,1.9566,1.9708,1.9708,1.9708,1.9708,1.9945,2.0813,2.0991,2.1268,2.2144,2.2296,2.2388,2.2654,2.2484,2.2514,2.3099,2.3195,2.3311,2.366,2.3991,2.4185,2.4208,2.4208,2.4275,2.4482,2.4499,2.4598,2.479,2.4797,2.4708,2.4507,2.4499,2.4406,2.4194,2.4194,2.4194,2.4194,2.4194,2.4194,2.4194,2.4194,2.4194,2.4194,2.4208,2.4006,2.3698,2.3692,2.3505,2.3195,2.3195,2.3195,2.3248,2.3566,2.3698,2.3735,1.8234,1.8046,1.8076,1.8977,1.8836,1.865,1.8874,1.8135,1.734,1.6741,1.6035,1.5219,1.4178,1.3909,1.3564,1.2954,1.3455,1.4237,1.5264,1.6051,1.6731,1.7281,1.7442,1.7977,1.8883,1.951,2.0034,2.0508,2.0837,2.1134,2.1377,2.1126,2.1063,2.1158,2.0707,2.0232,1.9724,1.8901,1.8231,1.77,1.7188,1.689,1.6731,1.6731,1.6848,1.7034,1.7404,1.7534,1.7534,1.7534,1.7422,1.7302,1.7302,1.7415,1.7544,1.7605,1.7575,1.7666,1.8263,1.838,1.8467,1.8996,1.9415,1.9708,1.9708,1.9927,2.0193,2.0449,2.0999,2.1491,2.1764,2.2085,2.2338,2.2415,2.2514,2.2634,2.2822,2.3051,2.3248,2.334,2.3449,2.3588,2.3821,2.3842,2.3973,2.4271,2.4428,2.4532,2.4598,2.4583,2.4551,2.4503,2.4361,2.4252,2.4194,2.4194,2.4194,2.4194,2.4194,2.4194,2.4194,2.4194,2.4194,2.4185,2.3942,2.3795,2.3666,2.3189,2.2947,2.2854,2.2854,2.2854,2.2898,2.3236,2.3352,2.3397,1.7676,1.7514,1.7565,1.8429,1.8322,1.8145,1.8253,1.7507,1.6744,1.6154,1.5386,1.4607,1.3886,1.3588,1.3298,1.2929,1.3455,1.4202,1.5186,1.56,1.593,1.6251,1.65,1.7242,1.8554,1.8859,1.9244,1.9706,2.0026,2.0351,2.0684,2.0541,2.0574,2.0691,2.0041,1.9468,1.8948,1.8127,1.7463,1.6961,1.6627,1.65,1.65,1.65,1.6627,1.6869,1.7178,1.7302,1.7302,1.7302,1.7157,1.6982,1.6982,1.7271,1.7595,1.7493,1.7686,1.7987,1.8214,1.8341,1.8487,1.8826,1.929,1.9708,1.9708,1.9892,2.0106,2.0272,2.087,2.1407,2.1567,2.1988,2.2296,2.2296,2.244,2.2537,2.2537,2.2808,2.3003,2.3003,2.3117,2.3288,2.3476,2.3615,2.3832,2.417,2.4317,2.4384,2.4384,2.4384,2.4384,2.4384,2.4257,2.4194,2.4194,2.4194,2.4194,2.4194,2.4194,2.4194,2.4194,2.4194,2.4194,2.4185,2.3991,2.3758,2.3459,2.3063,2.2764,2.2537,2.2537,2.2537,2.2583,2.2885,2.3003,2.3069,1.7053,1.7188,1.7404,1.7937,1.7997,1.7797,1.7288,1.671,1.6088,1.5443,1.4388,1.3662,1.3533,1.3084,1.2798,1.2798,1.3409,1.4027,1.4572,1.4663,1.4698,1.4698,1.5231,1.6261,1.7844,1.7973,1.8251,1.8735,1.8793,1.9262,2.0078,1.9773,1.9815,2.0143,1.9288,1.8583,1.8007,1.7504,1.6993,1.65,1.65,1.65,1.65,1.65,1.6805,1.7229,1.7229,1.7229,1.7229,1.7229,1.6898,1.6511,1.6552,1.724,1.7857,1.6919,1.7676,1.8631,1.7696,1.8165,1.8912,1.8959,1.9341,1.9708,1.9708,1.9735,1.9847,2.0184,2.0674,2.115,2.1483,2.1967,2.2296,2.2296,2.2296,2.2296,2.2296,2.2514,2.265,2.265,2.2929,2.3123,2.3147,2.3494,2.3832,2.417,2.4194,2.4194,2.4194,2.4194,2.4194,2.4194,2.4194,2.4194,2.4194,2.4194,2.4194,2.4194,2.4194,2.4194,2.419,2.417,2.4161,2.4161,2.4161,2.3761,2.3159,2.3189,2.2832,2.2296,2.2296,2.2296,2.2321,2.2566,2.265,2.2746,1.5951,1.6343,1.6848,1.7384,1.7126,1.678,1.6615,1.6134,1.5195,1.3611,1.3171,1.2616,1.1561,1.1802,1.2043,1.2043,1.3116,1.3862,1.398,1.4445,1.4698,1.4698,1.4824,1.5298,1.6122,1.7027,1.7723,1.8255,1.8269,1.8588,1.9176,1.9118,1.9118,1.9196,1.8982,1.837,1.7463,1.7353,1.6993,1.65,1.65,1.65,1.65,1.65,1.6563,1.6669,1.6669,1.6669,1.6669,1.6669,1.6595,1.6563,1.6993,1.7291,1.7504,1.7696,1.8007,1.8312,1.8506,1.8717,1.8996,1.9415,1.9612,1.9708,1.9708,1.9938,2.0106,1.9883,2.0699,2.1399,2.1166,2.1766,2.2296,2.2296,2.2296,2.2296,2.2296,2.2356,2.2388,2.2388,2.2446,2.2591,2.2784,2.3352,2.3832,2.417,2.4194,2.4194,2.4194,2.4194,2.4194,2.4194,2.4194,2.4194,2.4194,2.4194,2.4194,2.4194,2.4194,2.4194,2.4185,2.3922,2.3806,2.3806,2.3806,2.3426,2.2835,2.3093,2.2832,2.2296,2.2296,2.2296,2.231,2.2377,2.2388,2.244,1.5599,1.5853,1.6171,1.6448,1.6028,1.5633,1.5586,1.5118,1.4262,1.2978,1.2827,1.2448,1.1391,1.1907,1.232,1.232,1.2975,1.3372,1.3372,1.367,1.3836,1.3836,1.4119,1.4549,1.5163,1.6037,1.6778,1.7343,1.7585,1.7867,1.8145,1.84,1.8525,1.8516,1.8253,1.7837,1.7281,1.7034,1.6763,1.6536,1.6812,1.6936,1.6936,1.6936,1.6936,1.6887,1.6599,1.65,1.65,1.65,1.65,1.6541,1.6837,1.7097,1.7302,1.7333,1.7887,1.8487,1.8516,1.8893,1.935,1.963,1.9708,1.9708,1.9708,1.9856,2.0008,1.9991,2.0691,2.1306,2.1283,2.184,2.2296,2.2296,2.2296,2.2296,2.2296,2.2296,2.2296,2.2296,2.2296,2.2415,2.2669,2.3159,2.3593,2.3932,2.4103,2.4194,2.4194,2.4194,2.4194,2.4194,2.4194,2.4194,2.4194,2.4194,2.4194,2.4194,2.4194,2.4127,2.3966,2.3785,2.3604,2.3454,2.3454,2.3165,2.2714,2.2898,2.2702,2.2296,2.2296,2.2374,2.248,2.248,2.2594,2.2747,1.5286,1.5376,1.5454,1.5454,1.5028,1.4663,1.456,1.412,1.3486,1.258,1.2518,1.2267,1.1541,1.2209,1.2761,1.2893,1.2905,1.2905,1.2905,1.2905,1.2905,1.2905,1.3372,1.3932,1.4526,1.5141,1.5787,1.65,1.6951,1.7209,1.7312,1.7767,1.7967,1.7947,1.7493,1.725,1.7139,1.6803,1.6649,1.6712,1.7299,1.7537,1.7537,1.7537,1.7537,1.7462,1.6873,1.6599,1.65,1.65,1.65,1.65,1.65,1.6816,1.7087,1.6627,1.7565,1.8669,1.8224,1.8883,1.9708,1.9708,1.9708,1.9708,1.9708,1.9708,1.9791,2.0132,2.0632,2.1094,2.143,2.1945,2.2296,2.2296,2.2296,2.2296,2.2296,2.2296,2.2296,2.2296,2.2296,2.2415,2.2669,2.2953,2.3283,2.3671,2.3966,2.4146,2.4208,2.4194,2.4194,2.4194,2.4194,2.4194,2.4194,2.4146,2.4108,2.4108,2.4064,2.3912,2.3698,2.3577,2.3375,2.3111,2.3111,2.2929,2.2634,2.2676,2.2543,2.2296,2.2296,2.244,2.2628,2.2628,2.2846,2.3105,1.4039,1.4457,1.4812,1.4812,1.4744,1.4514,1.3991,1.3851,1.3142,1.1308,1.1078,1.0834,1.0141,1.1191,1.2212,1.2835,1.2905,1.2905,1.2905,1.2905,1.2905,1.2905,1.298,1.3298,1.3909,1.4514,1.5366,1.65,1.6563,1.6858,1.7302,1.7374,1.7415,1.7415,1.7333,1.7045,1.6643,1.7082,1.7274,1.7324,1.7865,1.8091,1.8091,1.8091,1.8091,1.8028,1.7463,1.6936,1.65,1.65,1.65,1.65,1.65,1.6541,1.6584,1.6522,1.7312,1.8194,1.8125,1.8883,1.9708,1.9708,1.9708,1.9708,1.9708,1.9708,1.9726,1.9764,2.0423,2.1023,2.1071,2.1751,2.2296,2.2296,2.2296,2.2296,2.2296,2.2296,2.2296,2.2296,2.2296,2.2415,2.2669,2.274,2.3027,2.366,2.3735,2.3896,2.418,2.4194,2.4194,2.4194,2.4194,2.4194,2.4194,2.3912,2.3774,2.3751,2.3465,2.3454,2.3682,2.3099,2.2816,2.2772,2.2772,2.2599,2.2367,2.2606,2.2543,2.2296,2.2296,2.2314,2.2339,2.2339,2.2527,2.2727,1.3321,1.3758,1.3947,1.3163,1.3054,1.2858,1.2214,1.2116,1.1672,1.0415,1.0568,1.0542,0.9878,1.1002,1.2104,1.2835,1.2905,1.2905,1.2905,1.2905,1.2905,1.2905,1.2905,1.3188,1.3791,1.4062,1.4618,1.5489,1.6162,1.6616,1.6858,1.6502,1.635,1.6339,1.6004,1.5731,1.5534,1.6141,1.6385,1.6492,1.7712,1.8204,1.823,1.8519,1.8656,1.8543,1.7701,1.7011,1.65,1.65,1.65,1.65,1.65,1.65,1.65,1.65,1.7055,1.7727,1.8027,1.866,1.9332,1.963,1.9708,1.9708,1.9708,1.9708,1.9764,1.9991,2.0347,2.0682,2.0951,2.1315,2.1569,2.1569,2.1757,2.1913,2.1913,2.2128,2.2296,2.2296,2.2296,2.2349,2.2463,2.2619,2.2829,2.3117,2.35,2.3751,2.3912,2.4099,2.4194,2.4194,2.4194,2.4103,2.3917,2.3779,2.3617,2.3414,2.3081,2.3003,2.3129,2.2841,2.2625,2.2484,2.2484,2.2405,2.2317,2.2433,2.2415,2.2296,2.2296,2.2395,2.2554,2.2734,2.2768,2.2676]},{"header":{"parameterUnit":"m.s-1","parameterCategory":1,"la1":30.6,"la2":28.766,"lo1":-90.7593,"lo2":-88.6598,"dy":0.0162,"dx":0.0183,"nx":116,"ny":114,"refTime":"2024-06-11T18:00:00:Z","depth":0,"parameterNumber":3,"parameterNumberName":"V-component_of_WINDS"},"data":[0.0,0.0,0.0,0.0,0.0,0.0,0.0,0.0,0.0,0.0,0.0,0.0,0.0,0.0,0.0,0.0,0.0,0.0,0.0,0.0,0.0,0.0,0.0,0.0,0.0,0.0,0.0,0.0,0.0,0.0,0.0,0.0,0.0,0.0,0.0,0.0,0.0,0.0,0.0,0.0,0.0,0.0,0.0,0.0,0.0,0.0,0.0,0.0,0.0,0.0,0.0,0.0,0.0,0.0,0.0,0.0,0.0,0.0,0.0,0.0,0.0,0.0,0.0,0.0,0.0,0.0,0.0,0.0,0.0,0.0,0.0,0.0,0.0,0.0,0.0,0.0,0.0,0.0,0.0,0.0,0.0,0.0,0.0,0.0,0.0,0.0,0.0,0.0,0.0,0.0,0.0,0.0,0.0,0.0,0.0,0.0,0.0,0.0,0.0,0.0,0.0,0.0,0.0,0.0,0.0,0.0,0.0,0.0,0.0,0.0,0.0,0.0,0.0,0.0,0.0,0.0,0.0,0.0,0.0,0.0,0.0,0.0,0.0,0.0,0.0,0.0,0.0,0.0,0.0,0.0,0.0,0.0,0.0,0.0,0.0,0.0,0.0,0.0,0.0,0.0,0.0,0.0,0.0,0.0,0.0,0.0,0.0,0.0,0.0,0.0,0.0,0.0,0.0,0.0,0.0,0.0,0.0,0.0,0.0,0.0,0.0,0.0,0.0,0.0,0.0,0.0,0.0,0.0,0.0,0.0,0.0,0.0,0.0,0.0,0.0,0.0,0.0,0.0,0.0,0.0,0.0,0.0,0.0,0.0,0.0,0.0,0.0,0.0,0.0,0.0,0.0,0.0,0.0,0.0,0.0,0.0,0.0,0.0,0.0,0.0,0.0,0.0,0.0,0.0,0.0,0.0,0.0,0.0,0.0,0.0,0.0,0.0,0.0,0.0,0.0,0.0,0.0,0.0,0.0,0.0,0.0,0.0,0.0,0.0,0.0,0.0,0.0,0.0,0.0,0.0,0.0,0.0,0.0,0.0,0.0,0.0,0.0,0.0,0.0,0.0,0.0,0.0,0.0,0.0,0.0,0.0,0.0,0.0,0.0,0.0,0.0,0.0,0.0,0.0,0.0,0.0,0.0,0.0,0.0,0.0,0.0,0.0,0.0,0.0,0.0,0.0,0.0,0.0,0.0,0.0,0.0,0.0,0.0,0.0,0.0,0.0,0.0,0.0,0.0,0.0,0.0,0.0,0.0,0.0,0.0,0.0,0.0,0.0,0.0,0.0,0.0,0.0,0.0,0.0,0.0,0.0,0.0,0.0,0.0,0.0,0.0,0.0,0.0,0.0,0.0,0.0,0.0,0.0,0.0,0.0,0.0,0.0,0.0,0.0,0.0,0.0,0.0,0.0,0.0,0.0,0.0,0.0,0.0,0.0,0.0,0.0,0.0,0.0,0.0,0.0,0.0,0.0,0.0,0.0,0.0,0.0,0.0,0.0,0.0,0.0,0.0,0.0,0.0,0.0,0.0,0.0,0.0,0.0,0.0,0.0,0.0,0.0,0.0,0.0,0.0,0.0,0.0,0.0,0.0,0.0,0.0,0.0,0.0,0.0,0.0,0.0,0.0,0.0,0.0,0.0,0.0,0.0,0.0,0.0,0.0,0.0,0.0,0.0,0.0,0.0,0.0,0.0,0.0,0.0,0.0,0.0,0.0,0.0,0.0,0.0,0.0,0.0,0.0,0.0,0.0,0.0,0.0,0.0,0.0,0.0,0.0,0.0,0.0,0.0,0.0,0.0,0.0,0.0,0.0,0.0,0.0,0.0,0.0,0.0,0.0,0.0,0.0,0.0,0.0,0.0,0.0,0.0,0.0,0.0,0.0,0.0,0.0,0.0,0.0,0.0,0.0,0.0,0.0,0.0,0.0,0.0,0.0,0.0,0.0,0.0,0.0,0.0,0.0,0.0,0.0,0.0,0.0,0.0,0.0,0.0,0.0,0.0,0.0,0.0,0.0,0.0,0.0,0.0,0.0,0.0,0.0,0.0,0.0,0.0,0.0,0.0,0.0,0.0,0.0,0.0,0.0,0.0,0.0,0.0,0.0,0.0,0.0,0.0,0.0,0.0,0.0,0.0,0.0,0.0,0.0,0.0,0.0,0.0,0.0,0.0,0.0,0.0,0.0,0.0,0.0,0.0,0.0,0.0,0.0,0.0,0.0,0.0,0.0,0.0,0.0,0.0,0.0,0.0,0.0,0.0,0.0,0.0,0.0,0.0,0.0,0.0,0.0,0.0,0.0,0.0,0.0,0.0,0.0,0.0,0.0,0.0,0.0,0.0,0.0,0.0,0.0,0.0,0.0,0.0,0.0,0.0,0.0,0.0,0.0,0.0,0.0,0.0,0.0,0.0,0.0,0.0,0.0,0.0,0.0,0.0,0.0,0.0,0.0,0.0,0.0,0.0,0.0,0.0,0.0,0.0,0.0,0.0,0.0,0.0,0.0,0.0,0.0,0.0,0.0,0.0,0.0,0.0,0.0,0.0,0.0,0.0,0.0,0.0,0.0,0.0,0.0,0.0,0.0,0.0,0.0,0.0,0.0,0.0,0.0,0.0,0.0,0.0,0.0,0.0,0.0,0.0,0.0,0.0,0.0,0.0,0.0,0.0,0.0,0.0,0.0,0.0,0.0,0.0,0.0,0.0,0.0,0.0,0.0,0.0,0.0,0.0,0.0,0.0,0.0,0.0,0.0,0.0,0.0,0.0,0.0,0.0,0.0,0.0,0.0,0.0,0.0,0.0,0.0,0.0,0.0,0.0,0.0,0.0,0.0,0.0,0.0,0.0,0.0,0.0,0.0,0.0,0.0,0.0,0.0,0.0,0.0,0.0,0.0,0.0,0.0,0.0,0.0,0.0,0.0,0.0,0.0,0.0,0.0,0.0,0.0,0.0,0.0,0.0,0.0,0.0,0.0,0.0,0.0,0.0,0.0,0.0,0.0,0.0,0.0,0.0,0.0,0.0,0.0,0.0,0.0,0.0,0.0,0.0,0.0,0.0,0.0,0.0,0.0,0.0,0.0,0.0,0.0,0.0,0.0,0.0,0.0,0.0,0.0,0.0,0.0,0.0,0.0,0.0,0.0,0.0,0.0,0.0,0.0,0.0,0.0,0.0,0.0,0.0,0.0,0.0,0.0,0.0,0.0,0.0,0.0,0.0,0.0,0.0,0.0,0.0,0.0,0.0,0.0,0.0,0.0,0.0,0.0,0.0,0.0,0.0,0.0,0.0,0.0,0.0,0.0,0.0,0.0,0.0,0.0,0.0,0.0,0.0,0.0,0.0,0.0,0.0,0.0,0.0,0.0,0.0,0.0,0.0,0.0,0.0,0.0,0.0,0.0,0.0,0.0,0.0,0.0,0.0,0.0,0.0,0.0,0.0,0.0,0.0,0.0,0.0,0.0,0.0,0.0,0.0,0.0,0.0,0.0,0.0,0.0,0.0,0.0,0.0,0.0,0.0,0.0,0.0,0.0,0.0,0.0,0.0,0.0,0.0,0.0,0.0,0.0,0.0,0.0,0.0,0.0,0.0,0.0,0.0,0.0,0.0,0.0,0.0,0.0,0.0,0.0,0.0,0.0,0.0,0.0,0.0,0.0,0.0,0.0,0.0,0.0,0.0,0.0,0.0,0.0,0.0,0.0,0.0,0.0,0.0,0.0,0.0,0.0,0.0,0.0,0.0,0.0,0.0,0.0,0.0,0.0,0.0,0.0,0.0,0.0,0.0,0.0,0.0,0.0,0.0,0.0,0.0,0.0,0.0,0.0,0.0,0.0,0.0,0.0,0.0,0.0,0.0,0.0,0.0,0.0,0.0,0.0,0.0,0.0,0.0,0.0,0.0,0.0,0.0,0.0,0.0,0.0,0.0,0.0,0.0,0.0,0.0,0.0,0.0,0.0,0.0,0.0,0.0,0.0,0.0,0.0,0.0,0.0,0.0,0.0,0.0,0.0,0.0,0.0,0.0,0.0,0.0,0.0,0.0,0.0,0.0,0.0,0.0,0.0,0.0,0.0,0.0,0.0,0.0,0.0,0.0,0.0,0.0,0.0,0.0,0.0,0.0,0.0,0.0,0.0,0.0,0.0,0.0,0.0,0.0,0.0,0.0,0.0,0.0,0.0,0.0,0.0,0.0,0.0,0.0,0.0,0.0,0.0,0.0,0.0,0.0,0.0,0.0,0.0,0.0,0.0,0.0,0.0,0.0,0.0,0.0,0.0,0.0,0.0,0.0,0.0,0.0,0.0,0.0,0.0,0.0,0.0,0.0,0.0,0.0,0.0,0.0,0.0,0.0,0.0,0.0,0.0,0.0,0.0,0.0,0.0,0.0,0.0,0.0,0.0,0.0,0.0,0.0,0.0,0.0,0.0,0.0,0.0,0.0,0.0,0.0,0.0,0.0,0.0,0.0,0.0,0.0,0.0,0.0,0.0,0.0,0.0,0.0,0.0,0.0,0.0,0.0,0.0,0.0,0.0,0.0,0.0,0.0,0.0,0.0,0.0,0.0,0.0,0.0,0.0,0.0,0.0,0.0,0.0,0.0,0.0,0.0,0.0,0.0,0.0,0.0,0.0,0.0,0.0,0.0,0.0,0.0,0.0,0.0,0.0,0.0,0.0,0.0,0.0,0.0,0.0,0.0,0.0,0.0,0.0,0.0,0.0,0.0,0.0,0.0,0.0,0.0,0.0,0.0,0.0,0.0,0.0,0.0,0.0,0.0,0.0,0.0,0.0,0.0,0.0,0.0,0.0,0.0,0.0,0.0,0.0,0.0,0.0,0.0,0.0,0.0,0.0,0.0,0.0,0.0,0.0,0.0,0.0,0.0,0.0,0.0,0.0,0.0,0.0,0.0,0.0,0.0,0.0,0.0,0.0,0.0,0.0,0.0,0.0,0.0,0.0,0.0,0.0,0.0,0.0,0.0,0.0,0.0,0.0,0.0,0.0,0.0,0.0,0.0,0.0,0.0,0.0,0.0,0.0,0.0,0.0,0.0,0.0,0.0,0.0,0.0,0.0,0.0,0.0,0.0,0.0,0.0,0.0,0.0,0.0,0.0,0.0,0.0,0.0,0.0,0.0,0.0,0.0,0.0,0.0,0.0,0.0,0.0,0.0,0.0,0.0,0.0,0.0,0.0,0.0,0.0,0.0,0.0,0.0,0.0,0.0,0.0,0.0,0.0,0.0,0.0,0.0,0.0,0.0,0.0,0.0,0.0,0.0,0.0,0.0,0.0,0.0,0.0,0.0,0.0,0.0,0.0,0.0,0.0,0.0,0.0,0.0,0.0,0.0,0.0,0.0,0.0,0.0,0.0,0.0,0.0,0.0,0.0,0.0,0.0,0.0,0.0,0.0,0.0,0.0,0.0,0.0,0.0,0.0,0.0,0.0,0.0,0.0,0.0,0.0,0.0,0.0,0.0,0.0,0.0,0.0,0.0,0.0,0.0,0.0,0.0,0.0,0.0,0.0,0.0,0.0,0.0,0.0,0.0,0.0,0.0,0.0,0.0,0.0,0.0,0.0,0.0,0.0,0.0,0.0,0.0,0.0,0.0,0.0,0.0,0.0,0.0,0.0,0.0,0.0,0.0,0.0,0.0,0.0,0.0,0.0,0.0,0.0,0.0,0.0,0.0,0.0,0.0,0.0,0.0,0.0,0.0,0.0,0.0,0.0,0.0,0.0,0.0,0.0,0.0,0.0,0.0,0.0,0.0,0.0,0.0,0.0,0.0,0.0,0.0,0.0,0.0,0.0,0.0,0.0,0.0,0.0,0.0,0.0,0.0,0.0,0.0,0.0,0.0,0.0,0.0,0.0,0.0,0.0,0.0,0.0,0.0,0.0,0.0,0.0,0.0,0.0,0.0,0.0,0.0,0.0,0.0,0.0,0.0,0.0,0.0,0.0,0.0,0.0,0.0,0.0,0.0,0.0,0.0,0.0,0.0,0.0,0.0,0.0,0.0,0.0,0.0,0.0,0.0,0.0,0.0,0.0,0.0,0.0,0.0,0.0,0.0,0.0,0.0,0.0,0.0,0.0,0.0,0.0,0.0,0.0,0.0,1.2391,0.0,0.0,0.0,0.0,0.0,0.0,0.0,0.0,0.0,0.0,0.0,0.0,0.0,0.0,0.0,0.0,0.0,0.0,0.0,0.0,0.0,0.0,0.0,0.0,0.9007,0.9598,0.988,0.9905,0.9905,0.9905,0.0,0.0,0.0,0.0,0.0,0.9243,0.8979,0.8854,0.8919,0.9185,0.9505,0.985,1.0036,0.9595,0.8612,0.0,0.0,0.0,0.0,0.0,0.0,0.0,0.0,0.0,0.0,0.0,0.0,0.0,0.0,0.0,0.0,0.0,0.0,0.0,0.0,0.0,0.0,0.0,0.0,0.0,0.0,0.0,0.0,0.0,0.0,0.0,0.0,0.0,0.0,0.0,0.0,0.0,0.0,0.0,0.0,0.0,0.0,0.0,0.0,0.0,0.0,0.0,0.0,0.0,0.0,0.0,0.0,0.0,0.0,0.0,0.0,0.0,0.0,0.0,0.0,0.0,0.0,0.0,0.0,0.0,0.0,0.0,0.0,0.0,0.0,0.0,1.333,0.0,0.0,0.0,0.0,0.0,0.0,0.0,0.0,0.0,0.0,0.0,0.0,0.0,0.0,0.0,0.0,0.0,0.0,0.0,0.0,0.0,0.8218,0.8411,0.9236,0.9851,1.0043,1.0055,1.0018,0.9926,0.9991,0.0,0.0,0.0,0.953,0.9626,0.9633,0.9775,1.0086,1.0557,1.1151,1.1865,1.2451,1.2239,1.1308,1.0083,0.0,0.0,0.0,0.0,0.0,0.0,0.0,0.0,0.0,0.0,0.0,0.0,0.0,0.0,0.0,0.0,0.0,0.0,0.0,0.0,0.0,0.0,0.0,0.0,0.0,0.0,0.0,0.0,0.0,0.0,0.0,0.0,0.0,0.0,0.0,0.0,0.0,0.0,0.0,0.0,0.0,0.0,0.0,0.0,0.0,0.0,0.0,0.0,0.0,0.0,0.0,0.0,0.0,0.0,0.0,0.0,0.0,0.0,0.0,0.0,0.0,0.0,0.0,1.65,1.6979,1.7386,1.7386,1.7475,1.7585,1.6352,1.5513,1.4965,1.4248,0.0,0.0,0.0,0.0,0.0,0.0,0.0,0.0,0.0,0.0,0.0,0.0,0.0,0.0,0.0,0.0,0.0,0.0,0.0,0.7901,0.8893,0.9178,0.9666,1.0599,1.0678,1.0481,1.0016,1.0372,0.0,0.0,0.9854,1.0059,1.0526,1.0526,1.1022,1.2033,1.307,1.3856,1.4417,1.4971,1.5368,1.5481,1.2859,1.1682,1.1657,0.0,0.0,0.0,0.0,0.0,0.0,0.0,0.0,0.0,0.0,0.0,0.0,0.0,0.0,0.0,0.0,0.0,0.0,0.0,0.0,0.0,0.0,0.0,0.0,0.0,0.0,0.0,0.0,0.0,0.0,0.0,0.0,0.0,0.0,0.0,0.0,0.0,0.0,0.0,0.0,0.0,1.2977,1.3577,0.0,0.0,0.0,0.0,0.0,0.0,0.0,0.0,0.0,0.0,0.0,0.0,0.0,1.5513,1.6268,1.7142,1.7776,1.8188,1.9005,1.9639,2.0096,2.0096,2.0585,2.14,2.0302,0.0,1.5909,1.5801,0.0,0.0,0.0,0.0,0.0,0.0,0.0,0.0,0.0,0.0,0.0,0.0,0.0,0.0,0.0,0.0,0.0,0.0,0.0,0.0,0.0,0.9943,1.0606,1.1602,1.1972,1.1919,1.1374,1.1263,1.0953,1.0369,0.9884,0.987,1.0407,1.0712,1.1814,1.3752,1.4857,1.5686,1.6256,1.6848,1.7207,1.7364,1.6088,1.4845,1.3634,1.2902,0.0,0.0,0.0,0.0,0.0,0.0,0.0,0.0,0.0,0.0,0.0,0.0,0.0,0.0,0.0,0.0,0.0,0.0,0.0,0.0,0.0,0.0,0.0,0.0,0.0,0.0,0.0,0.0,0.0,0.0,0.0,0.0,0.0,0.0,0.0,0.0,0.0,0.0,0.0,1.2893,1.447,1.414,1.466,1.4317,0.0,0.0,0.0,0.0,0.0,0.0,0.0,0.0,0.0,1.7672,1.7918,1.819,1.8498,1.9131,1.9668,2.006,2.1102,2.1806,2.2246,2.2883,2.3446,2.3821,2.2707,2.1353,1.9811,1.817,1.6894,1.5918,0.0,0.0,0.0,0.0,1.538,1.5073,0.0,0.0,0.0,0.0,0.0,0.0,0.0,0.0,0.0,0.0,0.0,0.0,1.0028,1.0792,1.1634,1.2736,1.3194,1.3207,1.2671,1.2106,1.1538,1.0958,1.0162,1.0067,1.0748,1.1838,1.3343,1.5234,1.6459,1.7291,1.7751,1.8325,1.8618,1.8618,1.8618,1.7542,1.5683,1.4738,1.3742,0.0,0.0,0.0,0.0,0.0,0.0,0.0,0.0,0.0,0.0,0.0,0.0,0.0,0.0,0.0,0.0,0.0,0.0,0.0,0.0,0.0,0.0,0.0,0.0,0.0,0.0,0.0,0.0,0.0,0.0,0.0,0.0,0.0,0.0,0.0,0.0,0.0,0.0,1.4681,1.5937,1.5052,1.615,1.6193,0.0,0.0,0.0,0.0,0.0,0.0,1.8108,1.9152,2.0048,2.0761,2.1081,2.1252,2.125,2.1596,2.1984,2.2392,2.3236,2.3865,2.4296,2.5147,2.5681,2.5877,2.4758,2.4028,2.3401,2.037,1.8701,1.7988,1.7532,1.7376,1.7425,1.7871,1.7822,1.7662,0.0,0.0,0.0,0.0,0.0,0.0,0.0,0.0,0.0,0.0,0.0,0.9589,1.0805,1.1428,1.2366,1.3885,1.4041,1.383,0.0,1.2693,1.2128,1.1583,1.0957,1.1155,1.2271,1.4866,1.6291,1.6407,1.8058,1.8883,1.8933,1.9472,1.9723,1.9723,1.9723,1.9083,1.7958,1.6834,1.6032,1.5357,0.0,0.0,0.0,0.0,0.0,0.0,0.0,0.0,0.0,0.0,0.0,0.0,0.0,0.0,0.0,0.0,0.0,0.0,0.0,0.0,0.0,0.0,0.0,0.0,0.0,0.0,0.0,0.0,0.0,0.0,0.0,0.0,0.0,0.0,0.0,0.0,0.0,0.0,0.0,1.7306,1.9133,0.0,0.0,0.0,0.0,1.8007,1.9255,2.0491,2.1497,2.1973,2.2832,2.4201,2.4269,2.4495,2.4942,2.4965,2.5164,2.5574,2.5634,2.5903,2.6363,2.6405,2.6986,2.7893,2.6823,2.6084,2.5383,2.192,2.0214,1.9727,1.9326,1.9178,1.9209,1.961,1.9757,1.9805,0.0,0.0,0.0,0.0,0.0,0.6599,0.6599,0.6867,0.7251,0.7738,0.8772,1.0078,1.1726,1.2809,1.3878,1.5024,1.5459,1.5412,1.4881,1.4,1.3409,1.3216,1.2299,1.2659,1.4488,1.5821,1.7027,1.8105,1.9058,1.971,2.0113,2.064,2.0891,2.0892,2.0527,2.0176,1.9723,1.8594,1.7206,1.5697,1.4832,1.3236,0.0,0.0,0.0,0.0,0.0,0.0,0.0,0.0,0.0,0.0,0.0,0.0,0.0,0.0,0.0,0.0,0.0,0.0,0.0,0.0,0.0,0.0,0.0,0.0,0.0,0.0,0.0,0.0,0.0,0.0,0.0,0.0,0.0,0.0,0.0,0.0,0.0,1.9547,2.1129,0.0,1.9368,2.0413,2.1018,2.0554,2.2057,2.343,2.4448,2.5172,2.5781,2.6285,2.6301,2.6228,2.6037,2.6037,2.6107,2.6255,2.6953,2.7367,2.7542,2.8291,2.8831,2.9126,2.8008,2.7417,2.7127,2.5191,2.313,2.1242,2.1793,2.1586,2.0996,2.1123,2.1182,2.1211,0.0,0.0,0.0,0.0,0.6599,0.6599,0.6599,0.7035,0.7609,0.8274,0.9499,1.0935,1.2583,1.3825,1.4929,1.5888,1.6298,1.6348,1.5984,1.4969,1.4371,1.4371,1.3819,1.4278,1.5932,1.6864,1.7979,1.9271,1.9823,2.0402,2.0981,2.1331,2.1507,2.1482,2.1118,2.0968,2.0918,1.9974,1.8523,1.6809,1.597,1.4758,1.3313,0.0,0.0,0.0,0.0,0.0,0.0,0.0,0.0,0.0,0.0,0.0,0.0,0.0,0.0,0.0,0.0,0.0,0.0,0.0,0.0,0.0,0.0,0.0,0.0,0.0,0.0,0.0,0.0,0.0,0.0,0.0,0.0,0.0,0.0,0.0,2.1245,2.1245,2.2849,2.3358,2.1878,2.2973,2.3752,2.3673,2.4921,2.6077,2.6932,2.753,2.7922,2.813,2.8135,2.7972,2.7606,2.7617,2.7617,2.7617,2.8339,2.8668,2.8708,2.9456,2.9792,2.9753,2.9008,2.8458,2.8064,2.7747,2.598,2.3515,2.4231,2.4079,2.3464,2.3464,2.3464,2.3381,0.0,0.0,0.0,0.6599,0.6599,0.6599,0.659,0.7546,0.833,0.8489,1.039,1.22,1.3383,1.4432,1.5436,1.6418,1.65,1.65,1.65,1.5502,1.4931,1.4956,1.5475,1.6019,1.6588,1.8193,1.9296,1.9849,2.0465,2.1018,2.1532,2.1545,2.1557,2.1557,2.1532,2.152,2.1495,2.0955,2.0088,1.8933,1.7252,1.655,1.6293,0.0,0.0,0.0,0.0,0.0,0.0,0.0,0.0,0.0,0.0,0.0,0.0,0.0,0.0,0.0,0.0,0.0,0.0,0.0,0.0,0.0,0.0,0.0,0.0,0.0,0.0,0.0,0.0,0.0,0.0,0.0,0.0,0.0,1.9874,2.1316,2.2383,2.242,2.4343,2.5247,2.423,2.6092,2.7349,2.7349,2.7846,2.838,2.8888,2.8932,2.9195,2.9779,2.9792,2.9792,2.9792,2.9792,2.9792,2.9792,2.9792,2.9792,2.9792,2.9792,2.9792,2.9792,2.9792,2.9177,2.8235,2.9334,2.8542,2.6607,2.6554,2.6524,2.6504,2.6504,2.6472,2.6219,0.0,0.0,0.6599,0.6599,0.6599,0.653,0.634,0.7193,0.8052,0.858,1.0851,1.2806,1.3811,1.5219,1.6197,1.6488,1.65,1.65,1.65,1.5856,1.5653,1.6034,1.662,1.755,1.8857,1.9334,2.0062,2.1029,2.1581,2.1933,2.2096,2.2483,2.2671,2.2631,2.2245,2.2069,2.2046,2.1507,2.1105,2.0665,1.8983,1.7578,1.6395,0.0,0.0,0.0,0.0,0.0,0.0,0.0,0.0,0.0,0.0,0.0,0.0,0.0,0.0,0.0,0.0,0.0,0.0,0.0,0.0,0.0,0.0,0.0,0.0,0.0,0.0,0.0,0.0,0.0,0.0,0.0,0.0,2.1605,2.1605,2.306,2.4415,2.5255,2.6231,2.6871,2.6967,2.7865,2.8455,2.8455,2.9001,2.9402,2.9553,2.9553,2.9628,2.9779,2.9792,2.9792,2.9792,2.9792,2.9792,2.9792,2.9792,2.9792,2.9792,2.9792,2.9792,2.9792,2.9792,2.9624,2.9365,2.9663,2.9436,2.8811,2.7988,2.7189,2.6504,2.6504,2.5975,2.5094,0.0,0.637,0.6405,0.6325,0.637,0.6375,0.6232,0.71,0.8124,0.9071,1.1366,1.3297,1.4321,1.5678,1.65,1.65,1.65,1.64,1.6172,1.6072,1.6296,1.6861,1.7639,1.8618,1.9773,2.005,2.0715,2.1832,2.2159,2.2408,2.2631,2.2957,2.3108,2.3095,2.2769,2.2646,2.2594,2.2071,2.1832,2.1732,2.0539,1.9321,1.8155,1.719,1.6397,1.5677,1.4732,1.4068,1.3592,1.3203,0.0,0.0,0.0,0.0,0.0,0.0,0.0,0.0,0.0,0.0,0.0,0.0,0.0,0.0,0.0,0.0,0.0,0.0,0.0,0.0,0.0,0.0,0.0,0.0,2.2096,2.3766,2.4032,2.4895,2.5912,2.7035,2.7632,2.8097,2.8392,2.8944,2.927,2.927,2.9603,2.9792,2.9792,2.9792,2.9792,2.9792,2.9792,2.9792,2.9792,2.9792,2.9792,2.9792,2.9792,2.9792,2.9792,2.9792,2.9792,2.9792,2.9792,2.9792,2.9792,2.9792,2.9792,0.0,0.0,0.0,0.0,0.0,2.7157,2.6025,0.0,0.6047,0.6107,0.5927,0.6052,0.617,0.617,0.7157,0.8371,0.9691,1.1758,1.3541,1.4692,1.5706,1.6348,1.64,1.64,1.626,0.0,1.6346,1.6887,1.755,1.8493,1.9321,1.9974,2.0528,2.1319,2.2383,2.2383,2.2631,2.3108,2.3108,2.3108,2.3108,2.3108,2.3108,2.307,2.2581,2.2383,2.2332,2.1807,2.1193,2.044,1.8957,1.8594,1.8721,1.7287,1.6468,1.5856,1.449,0.0,0.0,0.0,0.0,0.0,0.0,0.0,0.0,0.0,0.0,0.0,0.0,0.0,0.0,0.0,0.0,0.0,0.0,0.0,0.0,0.0,0.0,0.0,0.0,2.4032,2.5954,2.6675,2.6776,2.7123,2.8084,2.8618,2.8932,2.8988,2.949,2.9792,2.9792,2.9792,2.9792,2.9792,0.0,0.0,0.0,0.0,2.9792,2.9792,2.9792,2.9792,2.9792,2.9792,2.9792,2.9792,2.9792,2.9792,2.9792,2.9792,2.9792,2.9792,2.9792,2.9792,2.9792,2.9792,2.9792,2.9792,2.9663,2.8956,2.7956,0.0,0.5927,0.5945,0.59,0.5932,0.5959,0.5959,0.7068,0.8325,0.951,1.135,1.2994,1.4132,1.483,1.5377,1.5819,1.5856,1.6195,1.701,1.716,1.7664,1.8656,1.8895,1.9685,2.1129,2.1294,2.187,2.2945,2.2945,2.2995,2.3108,2.3108,2.3108,2.3108,2.3108,2.3108,2.3095,2.2995,2.2945,2.2895,2.2357,2.128,1.9949,1.961,1.902,1.8306,1.7997,1.7825,1.7638,1.6911,1.627,1.569,1.5178,0.0,0.0,0.0,0.0,0.0,0.0,0.0,0.0,0.0,0.0,0.0,0.0,0.0,0.0,0.0,0.0,0.0,0.0,0.0,0.0,2.3888,2.5389,2.6821,2.8247,2.843,2.8518,2.8731,2.8844,2.9095,2.9578,2.9729,2.9792,2.9792,2.9792,2.9792,2.9792,2.9792,2.9792,2.9792,2.9792,2.9792,2.9792,2.9792,2.9792,2.9792,0.0,0.0,2.9792,2.9792,2.9792,2.9792,2.9792,2.9792,2.9792,2.9792,2.9792,2.9792,2.9792,2.9792,2.9682,2.8767,2.8287,2.7956,0.53,0.5519,0.5661,0.5524,0.5614,0.5698,0.5698,0.6836,0.8045,0.9026,1.1052,1.2722,1.3555,1.4164,1.4727,1.5248,1.5299,1.5766,1.6873,1.7223,1.7877,1.8958,1.956,2.0376,2.1482,2.1757,2.2282,2.3108,2.3108,2.3108,2.3108,2.3108,2.3108,2.3108,2.3108,2.3108,2.3108,2.3108,2.3108,2.3083,2.2807,2.2044,2.099,2.0439,1.9924,1.9409,1.9108,1.8832,1.8568,1.828,1.7816,1.7262,1.6721,1.583,1.4886,0.0,0.0,0.0,0.0,0.0,0.0,0.0,0.0,0.0,0.0,0.0,0.0,0.0,0.0,1.9264,0.0,0.0,2.4101,2.5787,2.6979,2.7984,2.8794,2.9157,2.9346,2.9346,2.9346,2.9478,2.9767,2.9792,2.9792,2.9792,2.9792,2.9792,2.9792,2.9792,2.9792,2.9792,2.9792,2.9792,2.9792,2.9792,2.9792,2.9792,2.9792,2.9792,2.9792,2.9792,2.9792,2.9792,2.9792,2.9792,2.9792,2.9792,2.9792,2.9792,2.9792,2.9792,2.9721,2.9145,2.8956,2.8799,0.475,0.5049,0.5277,0.5059,0.5204,0.5377,0.5483,0.6632,0.7784,0.8592,1.0666,1.2287,1.2831,1.3316,1.3871,1.4507,1.4771,1.5412,1.6599,1.7236,1.8028,1.9108,2.015,2.0943,2.1495,2.2033,2.2571,2.3108,2.3108,2.3108,2.3108,2.3108,2.3108,2.3108,2.3108,2.3108,2.3108,2.3108,2.3108,2.3108,2.3108,2.2844,2.2332,2.1256,2.0779,2.0616,2.0025,1.9459,1.8983,1.8882,1.8493,1.7953,1.7399,1.6886,1.631,1.5349,1.4752,0.0,0.0,0.0,0.0,0.0,0.0,0.0,0.0,0.0,1.8931,1.9586,2.0525,2.1731,2.3292,2.4438,2.5657,2.7331,2.8329,2.8938,2.907,2.9503,2.9792,2.9792,2.9792,2.9792,2.9792,2.9792,2.9792,2.9792,2.9792,2.9792,2.9792,2.9792,2.9792,2.9792,2.9792,2.9792,2.9792,2.9792,2.9792,2.9792,2.9792,2.9792,2.9792,2.9792,2.9792,2.9792,2.9792,2.9792,2.9792,2.9792,2.9792,2.9792,2.9792,2.9792,2.9792,2.9792,2.9792,2.9663,0.0,0.4745,0.4775,0.4745,0.4765,0.4952,0.5431,0.6632,0.7784,0.8592,0.9985,1.1121,1.1713,1.1842,1.2286,1.3294,1.4321,1.5575,1.7186,1.7802,1.8593,1.966,2.0352,2.0943,2.1495,2.2033,2.2571,2.3108,2.3108,2.3108,2.3108,2.3108,2.3108,2.3108,2.3108,2.3108,2.3108,2.3108,2.3108,2.3108,2.3108,2.3055,2.2895,2.182,2.1105,2.0616,2.0025,1.9459,1.8933,1.8443,1.7928,1.7398,1.6798,1.655,1.6385,1.5781,0.0,1.5422,1.4931,1.5201,1.5972,1.746,1.7919,1.8757,0.0,0.0,2.1058,2.2357,2.2927,2.3615,2.5058,2.587,2.6834,2.8455,2.8831,2.9095,2.9616,2.9754,2.9792,2.9792,2.9792,2.9792,2.9792,2.9792,2.9792,2.9792,2.9792,2.9792,2.9792,2.9792,2.9792,2.9792,2.9792,2.9792,2.9792,2.9792,2.9792,2.9792,2.9792,2.9792,2.9792,2.9792,2.9792,2.9792,2.9792,2.9792,2.9792,2.9792,2.9792,2.9792,2.9792,2.9792,2.9792,2.9792,2.9792,2.9792,0.0,0.4237,0.4237,0.4237,0.4491,0.477,0.5001,0.6269,0.7328,0.7664,0.9078,1.0247,1.0734,1.1275,1.1687,1.1903,1.3453,1.4994,1.6319,1.7526,1.8531,1.9296,2.0201,2.0943,2.1495,2.2033,2.2571,2.3108,2.3108,2.3108,2.3108,2.3108,2.3108,2.3108,2.3108,2.3108,2.3108,2.3108,2.3108,2.3108,2.3108,2.2907,2.2558,2.1782,2.0954,2.01,1.9535,1.9183,0.0,0.0,1.8053,1.7776,1.72,1.7024,1.6911,1.6323,1.6635,0.0,1.7681,1.7955,0.0,0.0,2.0379,2.1415,2.2794,2.2928,2.3087,2.4301,2.4644,2.5209,2.6759,2.7256,2.7876,0.0,2.9428,2.9515,2.9754,2.9792,2.9666,2.9327,2.9591,2.9792,2.9792,2.9792,2.9792,2.9792,2.9792,2.9792,2.9792,2.9792,2.9792,2.9792,2.9792,2.9792,2.9792,2.9792,2.9792,2.9792,2.9792,2.9792,2.9792,2.9792,2.9792,2.9792,2.9792,2.9792,2.9792,2.9792,2.9792,2.9792,2.9792,2.9792,2.9792,2.9792,2.9792,2.9792,0.0,0.39,0.388,0.3802,0.4171,0.4527,0.4676,0.5839,0.6776,0.6971,0.8295,0.9361,0.9775,1.0423,1.087,1.0992,1.266,1.4284,1.5605,1.7124,1.828,1.897,1.9924,2.0717,2.1268,2.1945,2.2495,2.2882,2.3032,2.3108,2.3108,2.3108,2.3108,2.3108,2.3108,2.3108,2.3108,2.3108,2.3007,2.2882,2.2882,2.2558,2.2008,2.1306,2.0514,1.9736,1.9196,1.8807,0.0,0.0,1.7728,1.7639,1.7098,1.7035,1.7135,1.7,1.7765,1.8781,1.9409,0.0,0.0,2.1181,2.2372,2.3421,2.371,2.4126,2.4707,2.5653,2.5854,2.6251,2.762,2.7871,2.8247,2.9377,2.9553,2.9616,2.9786,2.9654,2.9453,2.9183,2.9402,2.9616,2.9779,2.9792,2.9792,2.9792,2.9792,2.9792,2.9792,2.9792,2.9792,2.9792,2.9792,2.9792,2.9792,2.9792,2.9792,2.9792,2.9792,2.9792,2.9792,2.9792,2.9792,2.9792,2.9792,2.9792,2.9792,2.9792,2.9792,2.9792,2.9792,2.9792,2.9792,2.9792,2.9792,2.9792,0.0,0.0,0.3817,0.3559,0.3746,0.4099,0.4616,0.5401,0.6191,0.6901,0.7727,0.8401,0.8797,0.8864,0.9461,1.0874,1.207,1.3582,1.5572,1.6771,1.7902,1.8958,1.9535,2.0113,2.0704,2.1757,2.2307,2.232,2.2844,2.3108,2.3108,2.3108,2.3108,2.3108,2.3108,2.3108,2.3108,2.3108,2.2794,2.232,2.232,2.2008,2.1393,2.0275,1.9836,1.9736,1.9196,0.0,0.0,0.0,1.655,1.6461,1.5919,1.6109,0.0,1.784,1.8907,0.0,0.0,0.0,2.1694,2.2757,2.3499,2.4243,2.5285,2.5536,2.5741,2.6348,2.6461,2.665,2.7223,2.7324,2.767,2.8756,2.8932,2.9132,2.9716,2.9296,2.9132,2.9704,2.927,2.9157,0.0,2.9792,2.9792,2.9792,2.9792,2.9792,2.9792,2.9792,2.9792,2.9792,2.9792,2.9792,2.9792,2.9792,2.9792,2.9792,2.9792,2.9792,2.9792,2.9792,2.9792,2.9792,2.9792,2.9792,2.9792,2.9792,2.9792,2.9792,2.9792,2.9792,2.9792,2.9792,2.9792,2.9792,0.0,0.0,0.0,0.3517,0.358,0.375,0.4114,0.5193,0.6059,0.6308,0.7458,0.0,0.0,0.0,0.0,0.0,1.1326,1.2814,1.4522,1.5992,1.7138,1.7914,1.8794,1.9535,2.0088,2.0841,2.1407,2.1769,2.1945,2.2046,2.2046,2.2046,2.2046,2.2046,2.2046,2.2046,2.2046,2.2046,2.2146,2.2232,2.152,2.1118,2.088,2.01,1.8894,1.764,0.0,0.0,0.0,1.6158,1.5969,1.6007,1.6183,0.0,0.0,1.8293,1.8983,1.9547,2.0839,0.0,2.2834,2.3948,2.4641,2.5247,2.6017,2.6197,2.626,2.6449,2.6168,2.608,2.6663,2.6776,2.7123,2.8179,2.8668,2.9107,2.9716,2.9628,2.9428,2.922,2.939,0.0,0.0,0.0,0.0,2.9792,2.9792,2.9792,2.9792,2.9792,2.9792,2.9792,2.9792,2.9792,2.9792,2.9792,2.9792,2.9792,2.9792,2.9792,2.9792,2.9792,2.9792,2.9792,2.9792,2.9792,2.9792,2.9792,2.9792,2.9792,2.9792,2.9792,2.9792,2.9792,2.9792,2.9792,0.0,0.0,0.0,0.0,0.0,0.0,0.0,0.0,0.0,0.0,0.0,0.0,0.0,0.0,0.0,0.0,0.0,0.0,1.3688,1.5125,1.6271,1.7036,1.7552,1.8167,1.8932,1.951,2.0065,2.0615,2.0997,2.1282,2.1456,2.1269,2.1188,2.1162,2.0985,2.0891,2.0891,2.0891,2.1087,2.1326,2.0456,2.0091,2.0016,1.9245,1.7928,0.0,0.0,0.0,0.0,1.5465,1.554,0.0,0.0,0.0,1.7891,1.897,1.971,2.0588,2.2408,2.3298,2.3973,2.5121,2.5678,2.6017,2.6411,2.6336,2.6118,2.5929,2.5423,2.5071,2.5251,2.5288,2.5778,2.7286,2.7821,2.8448,2.9628,2.9616,2.9396,2.9233,2.9371,2.9396,0.0,0.0,0.0,2.9792,2.9792,2.9792,2.9792,2.9792,2.9792,2.9792,2.9792,2.9792,2.9792,2.9792,2.9792,2.9792,2.9792,2.9792,2.9792,2.9792,2.9792,2.9792,2.9792,2.9792,2.9792,2.9792,2.9792,2.9792,2.9792,2.9792,2.9792,2.9792,2.9792,2.9792,0.0,0.0,0.0,0.0,0.0,0.0,0.0,0.0,0.0,0.0,0.0,0.0,0.0,0.0,0.0,0.0,0.0,0.0,1.3004,1.4165,1.5276,1.6335,1.5944,1.6206,1.7297,1.7865,1.8411,1.8916,1.997,2.0741,2.1239,2.0716,2.0481,2.0444,1.9953,1.9723,1.9723,1.9723,1.9736,1.9712,1.9116,1.8893,1.8793,1.7716,0.0,0.0,0.0,0.0,0.0,0.0,0.0,0.0,0.0,0.0,0.0,1.9874,2.1054,2.2596,2.3766,2.4494,2.5143,2.6273,2.6512,2.6487,2.6461,2.5979,2.5398,2.4829,2.4252,2.369,0.0,0.0,2.3788,2.6021,2.6461,2.7291,2.944,2.9283,2.9157,0.0,0.0,0.0,0.0,0.0,0.0,2.9792,0.0,2.9792,2.9792,2.9792,2.9792,2.9792,2.9792,2.9792,2.9792,2.9792,2.9792,2.9792,2.9792,2.9792,2.9792,2.9792,2.9792,2.9792,2.9792,2.9792,2.9792,2.9792,2.9792,2.9792,2.9792,2.9792,2.9792,2.9792,2.9792,2.9792,0.0,0.0,0.0,0.0,0.0,0.0,0.0,0.0,0.0,0.0,0.0,0.0,0.0,0.0,0.0,0.0,0.0,0.0,1.1491,1.2857,1.3961,1.468,1.5349,1.5841,1.613,1.7098,1.7669,1.7804,1.848,1.8882,1.9013,1.8882,1.881,1.881,1.8666,1.8606,1.8606,1.8606,1.8842,1.9078,0.0,1.7404,1.7691,0.0,0.0,0.0,0.0,0.0,0.0,0.0,0.0,0.0,0.0,0.0,1.9974,0.0,0.0,2.3233,2.477,2.5615,2.6218,2.6922,2.6801,2.6386,2.5929,2.5398,2.4729,2.3735,2.2784,2.1972,0.0,0.0,0.0,2.4393,2.6017,0.0,2.8932,2.9371,0.0,2.9779,0.0,2.9628,2.9798,2.9792,0.0,0.0,2.9792,2.9792,2.9792,2.9792,2.9792,2.9792,2.9792,2.9792,2.9792,2.9792,2.9792,2.9792,2.9792,2.9792,2.9792,2.9792,2.9792,2.9792,2.9792,2.9792,2.9792,2.9792,2.9792,2.9792,2.9792,2.9792,2.9792,2.9792,2.9792,2.9792,0.0,0.0,0.0,0.0,0.0,0.0,0.0,0.0,0.0,0.0,0.0,0.0,0.0,0.0,0.0,0.0,0.0,0.0,0.0,1.1552,1.2608,1.3447,1.3984,1.4485,1.4994,1.5852,1.6294,1.6253,1.7061,0.0,1.7445,1.7215,1.7098,1.7087,1.6854,1.6746,1.6746,1.6746,0.0,0.0,0.0,0.0,0.0,0.0,0.0,0.0,0.0,0.0,0.0,0.0,0.0,1.9798,2.0011,2.0626,2.1467,2.2623,0.0,2.4214,2.5887,2.6419,2.6625,2.716,2.6695,2.5891,2.5071,2.4293,2.3311,2.1943,2.099,0.0,0.0,0.0,0.0,0.0,0.0,0.0,2.8681,2.9428,2.9792,0.0,2.9792,0.0,2.9792,2.9792,2.9792,0.0,2.9792,2.9792,2.9792,2.9792,2.9792,2.9792,2.9792,2.9792,2.9792,2.9792,2.9792,2.9792,2.9792,2.9792,2.9792,2.9792,2.9792,2.9792,0.0,2.9792,2.9792,2.9792,2.9792,2.9792,2.9792,2.9792,2.9792,2.9792,2.9792,2.9792,0.0,0.0,0.0,0.0,0.0,0.0,0.0,0.0,0.0,0.0,0.0,0.0,0.0,0.0,0.0,0.0,0.0,0.0,0.0,0.0,0.0,1.2239,1.2238,1.2714,1.377,1.4362,1.4689,1.4708,0.0,0.0,0.0,0.0,0.0,0.0,0.0,0.0,0.0,0.0,0.0,0.0,0.0,0.0,0.0,0.0,0.0,0.0,0.0,0.0,0.0,0.0,1.9422,2.0918,2.152,2.2422,2.3434,2.4578,2.4904,2.5256,2.6871,2.6914,2.6625,2.716,2.6444,2.5297,2.4142,2.3059,2.1793,2.0053,0.0,1.8799,1.8196,1.8967,2.0392,2.2533,0.0,2.6189,2.848,2.9315,2.9704,2.9779,2.9792,2.9792,2.9792,2.9792,2.9792,2.9792,2.9792,2.9792,2.9792,2.9792,2.9792,2.9792,2.9792,2.9792,2.9792,2.9792,2.9792,2.9792,2.9792,2.9792,2.9792,2.9792,2.9792,2.9792,2.9792,2.9792,2.9792,2.9792,2.9792,2.9792,2.9792,2.9792,2.9792,2.9792,2.9792,2.9792,0.0,0.0,0.0,0.0,0.0,0.0,0.0,0.0,0.0,0.0,0.4802,0.5494,0.0,0.0,0.0,0.0,0.0,0.0,0.0,0.0,0.0,1.0106,1.0848,1.1544,1.2185,0.0,0.0,0.0,0.0,0.0,0.0,0.0,0.0,0.0,0.0,0.0,0.0,0.0,0.0,0.0,0.0,0.0,0.0,0.0,0.0,0.0,0.0,0.0,0.0,0.0,1.9987,2.1532,2.2521,2.3286,2.4067,2.5146,2.546,2.5724,2.6972,2.6914,2.6625,2.716,2.6444,2.5184,2.3609,2.2759,0.0,0.0,1.9017,1.8612,1.765,1.8381,1.9726,2.1489,0.0,0.0,0.0,0.0,2.9233,0.0,0.0,0.0,0.0,0.0,0.0,0.0,0.0,2.9792,2.9792,2.9792,2.9792,2.9792,2.9792,2.9792,2.9792,2.9792,2.9792,2.9792,2.9792,2.9792,2.9792,2.9792,2.9792,2.9792,2.9792,0.0,2.9792,2.9792,2.9792,2.9792,2.9792,2.9792,2.9792,2.9792,2.9792,2.9792,0.0,0.0,0.0,0.0,0.0,0.0,0.0,0.2798,0.3105,0.3721,0.444,0.4923,0.5005,0.5313,0.0,0.0,0.0,0.0,0.0,0.0,0.0,0.0,0.0,1.032,0.0,0.0,0.0,0.0,0.0,0.0,0.0,0.0,0.0,0.0,0.0,0.0,0.0,0.0,0.0,0.0,0.0,0.0,0.0,0.0,0.0,0.0,0.0,0.0,0.0,0.0,1.8819,2.0538,2.2493,2.3712,2.4566,2.5372,2.5598,2.5837,2.6997,2.6914,2.6625,2.716,2.603,2.4397,2.3001,0.0,0.0,0.0,1.8504,1.834,1.7811,0.0,0.0,0.0,0.0,0.0,0.0,0.0,0.0,0.0,0.0,0.0,0.0,0.0,0.0,0.0,0.0,2.9792,2.9792,2.9792,2.9792,2.9792,2.9792,2.9792,2.9792,2.9792,2.9792,2.9792,2.9792,2.9792,2.9792,2.9792,2.9792,2.9792,2.9792,2.9792,2.9792,2.9792,2.9792,2.9792,2.9792,2.9792,2.9792,2.9792,2.9792,2.9792,0.0,0.0,0.0,0.0,0.0,0.0,0.0,0.2469,0.2825,0.3727,0.4281,0.4486,0.4192,0.4483,0.4768,0.0,0.0,0.0,0.0,0.0,0.0,0.0,0.0,0.0,0.0,0.0,0.0,0.0,0.0,0.0,0.0,0.0,0.0,0.0,0.0,0.0,0.0,0.0,0.0,0.0,0.0,0.0,0.0,0.0,0.0,0.0,0.0,0.0,0.0,0.0,1.7453,1.907,2.1478,2.3083,2.4214,2.4867,2.5234,2.5649,2.667,2.6725,2.6562,2.6859,2.5464,2.3667,2.2419,2.0893,0.0,0.0,1.8239,1.8245,1.8265,0.0,1.9301,0.0,0.0,0.0,0.0,0.0,0.0,0.0,0.0,0.0,0.0,0.0,0.0,0.0,0.0,2.9792,2.9792,2.9792,2.9792,2.9792,2.9792,2.9792,2.9792,2.9792,2.9792,2.9792,2.9792,2.9792,2.9792,2.9792,2.9792,2.9792,2.9792,2.9792,2.9792,2.9792,2.9792,2.9792,2.9792,2.9792,2.9792,2.9792,2.9792,2.9792,0.0,0.0,0.0,0.0,0.0,0.0,0.0,0.2382,0.2853,0.3851,0.4347,0.4451,0.4059,0.4643,0.4799,0.0,0.0,0.0,0.0,0.0,0.0,0.0,0.0,0.0,0.0,0.0,0.0,0.0,0.0,0.0,0.0,0.0,0.0,0.0,0.0,0.0,0.0,0.0,0.0,0.0,0.0,0.0,0.0,0.0,0.0,0.0,0.0,0.0,0.0,0.0,0.0,1.7763,1.8983,2.0488,2.1995,2.3035,0.0,0.0,2.5598,2.6118,2.6386,2.5891,2.487,2.3566,2.194,0.0,0.0,1.893,1.872,1.8685,1.8796,1.8874,1.9117,0.0,0.0,2.1687,0.0,0.0,0.0,0.0,0.0,0.0,0.0,0.0,0.0,0.0,0.0,2.9792,2.9792,2.9792,2.9792,2.9792,2.9792,2.9792,2.9792,2.9792,2.9792,2.9792,2.9792,2.9792,2.9792,2.9792,2.9792,2.9792,2.9792,2.9792,0.0,2.9792,2.9792,2.9792,2.9792,2.9792,2.9792,2.9792,2.9792,2.9792,0.0,0.0,0.0,0.0,0.0,0.0,0.2321,0.2452,0.2891,0.3979,0.4571,0.47,0.4174,0.4632,0.4604,0.3661,0.0,0.0,0.0,0.0,0.0,0.0,0.0,0.0,0.0,0.0,0.0,0.0,0.0,0.0,0.0,0.0,0.0,0.0,0.0,0.0,0.0,0.0,0.0,0.0,0.0,0.0,0.0,0.0,0.0,0.0,0.0,0.0,0.0,0.0,0.0,0.0,1.6015,1.7173,0.0,0.0,2.2684,2.3487,2.4393,2.5046,2.5423,2.5184,2.3803,2.2404,2.2061,0.0,1.8771,1.9272,1.9019,1.8836,1.9297,1.9123,1.8981,1.9225,1.8899,1.9473,2.198,0.0,0.0,0.0,0.0,0.0,0.0,0.0,0.0,0.0,2.9792,2.9792,2.9792,2.9792,2.9792,2.9792,2.9792,2.9792,2.9792,2.9792,2.9792,2.9792,2.9792,2.9792,2.9792,2.9792,2.9792,2.9792,2.9792,2.9792,0.0,2.9792,2.9792,2.9792,2.9792,2.9792,2.9792,2.9792,2.9792,2.9792,0.0,0.0,0.0,0.0,0.0,0.1926,0.2294,0.2535,0.3046,0.406,0.4758,0.4948,0.438,0.4581,0.4333,0.3301,0.3154,0.0,0.0,0.0,0.0,0.0,0.0,0.0,0.0,0.0,0.0,0.0,0.0,0.0,0.0,0.0,0.0,0.0,0.0,0.0,0.0,0.0,0.0,0.0,0.0,0.0,0.0,0.0,0.0,0.0,0.0,0.0,0.0,0.0,0.0,0.0,0.0,0.0,0.0,0.0,2.1017,2.2071,2.3188,2.4029,2.4528,2.4336,2.2899,2.1545,0.0,1.9675,1.8078,1.9422,1.9016,1.8664,1.9534,1.9253,1.8841,1.8679,1.8056,1.8295,2.0393,2.1294,0.0,0.0,0.0,0.0,0.0,0.0,0.0,0.0,2.9792,2.9792,2.9792,2.9792,2.9792,2.9792,2.9792,2.9792,2.9792,2.9792,2.9792,2.9792,2.9792,2.9792,2.9792,2.9792,2.9792,2.9792,2.9792,2.9792,0.0,2.9792,2.9792,2.9792,2.9792,2.9792,2.9792,2.9792,2.9792,2.9792,0.0,0.0,0.0,0.0,0.0,0.0,0.1985,0.2622,0.3359,0.41,0.4836,0.5118,0.465,0.4485,0.4022,0.3086,0.2822,0.0,0.0,0.0,0.0,0.0,0.0,0.0,0.0,0.0,0.0,0.0,0.0,0.0,0.0,0.0,0.0,0.0,0.0,0.0,0.0,0.0,0.0,0.0,0.0,0.0,0.0,0.0,0.0,0.0,0.0,0.0,0.0,0.0,0.0,0.0,0.0,0.0,0.0,0.0,1.8994,2.0943,2.2033,2.315,2.3866,2.3271,2.2295,2.1354,0.0,1.8747,1.7515,1.9333,1.8634,1.8117,1.9444,1.9253,1.8731,1.8194,1.8147,1.8777,2.0456,2.162,0.0,0.0,0.0,0.0,0.0,0.0,0.0,2.9792,2.9792,0.0,2.9792,2.9792,2.9792,2.9792,2.9792,2.9792,2.9792,2.9792,2.9792,2.9792,2.9792,2.9792,2.9792,2.9792,2.9792,2.9792,2.9792,2.9792,0.0,2.9792,2.9792,2.9792,2.9792,2.9792,2.9792,2.9792,2.9792,2.9792,0.0,0.0,0.0,0.0,0.0,0.0,0.0,0.2199,0.2728,0.3786,0.3932,0.3999,0.4172,0.4074,0.3669,0.2868,0.2737,0.0,0.0,0.0,0.0,0.0,0.0,0.0,0.0,0.0,0.0,0.488,0.511,0.0,0.0,0.0,0.0,0.0,0.0,0.0,0.0,0.0,0.0,0.0,0.0,0.0,0.0,0.0,0.0,0.0,0.0,0.0,0.0,0.0,0.0,0.0,0.0,0.0,0.0,1.3913,0.0,0.0,1.9748,2.0576,2.1079,2.089,2.0309,1.9723,1.943,1.8109,1.7209,1.8132,1.7693,1.7411,1.8313,1.8403,1.8418,1.8685,1.8727,0.0,0.0,0.0,0.0,0.0,0.0,0.0,0.0,0.0,0.0,2.9792,2.9792,2.9792,2.9792,2.9792,2.9792,2.9792,2.9792,2.9792,2.9792,2.9792,2.9792,2.9792,2.9792,2.9792,2.9792,2.9792,2.9792,2.9792,2.9792,2.9792,2.9792,2.9792,2.9792,2.9792,2.9792,2.9792,2.9792,2.9792,2.9792,2.9792,0.0,0.0,0.0,0.0,0.0,0.0,0.0,0.2117,0.2534,0.3286,0.3376,0.3484,0.3781,0.3665,0.3429,0.3071,0.2832,0.0,0.0,0.0,0.0,0.0,0.0,0.0,0.0,0.3314,0.3787,0.411,0.4407,0.5122,0.6194,0.0,0.0,0.0,0.0,0.0,0.0,0.0,0.0,0.0,0.0,0.0,0.0,0.0,0.0,0.0,0.0,0.0,0.0,0.0,0.0,0.0,0.0,0.0,0.0,0.0,1.3762,1.5735,0.0,1.8635,1.9246,1.9447,1.8934,1.836,1.8254,1.7107,1.628,1.7081,1.6777,1.6633,1.7515,1.7579,1.7683,1.826,1.8189,0.0,0.0,0.0,0.0,0.0,0.0,0.0,0.0,0.0,2.9792,2.9792,2.9792,2.9792,2.9792,2.9792,2.9792,2.9792,2.9792,2.9792,2.9792,2.9792,2.9792,2.9792,2.9792,2.9792,2.9792,2.9792,2.9792,2.9792,2.9792,2.9792,0.0,2.9792,2.9792,2.9792,2.9792,2.9792,2.9792,2.9792,2.9792,2.9792,0.0,0.0,0.0,0.0,0.0,0.0,0.0,0.2276,0.2643,0.2661,0.3077,0.3392,0.3421,0.3227,0.3203,0.3453,0.0,0.0,0.0,0.0,0.0,0.0,0.0,0.0,0.0,0.2569,0.2825,0.3283,0.3744,0.4714,0.613,0.5837,0.5874,0.0,0.0,0.0,0.0,0.0,0.0,0.0,0.0,0.0,0.0,0.0,0.0,0.0,0.0,0.0,0.0,0.0,0.0,0.0,0.0,0.0,0.0,0.0,0.0,0.0,0.0,1.7075,0.0,0.0,1.8,1.7246,1.7138,1.5883,0.0,1.614,1.5869,1.5815,1.7001,1.68,1.6659,1.7319,0.0,0.0,0.0,0.0,0.0,0.0,0.0,0.0,0.0,0.0,2.9682,2.9682,2.9753,2.9792,2.9792,2.9792,2.9792,2.9792,2.9792,2.9792,2.9792,2.9792,2.9792,2.9792,2.9792,2.9792,2.9792,2.9792,2.9792,0.0,2.9792,2.9792,2.9792,2.9792,2.9792,2.9792,2.9792,2.9792,2.9792,2.9792,2.9792,2.9792,0.0,0.0,0.0,0.0,0.0,0.0,0.0,0.0,0.0,0.0,0.2249,0.232,0.2625,0.2338,0.2154,0.0,0.0,0.0,0.0,0.0,0.0,0.0,0.0,0.0,0.0,0.1284,0.2105,0.3069,0.3484,0.4319,0.5518,0.5645,0.5879,0.6201,0.6277,0.0,0.0,0.0,0.0,0.0,0.0,0.0,0.0,0.0,0.0,0.0,0.0,0.0,0.0,0.0,0.0,0.0,0.0,0.0,0.0,0.0,0.9693,1.0614,1.2493,0.0,1.5189,1.5734,1.5983,1.5963,0.0,1.5317,1.5257,1.5017,0.0,0.0,1.6326,1.6181,0.0,0.0,0.0,0.0,0.0,0.0,0.0,0.0,0.0,0.0,0.0,0.0,2.8498,2.8498,2.9307,2.9792,2.9792,2.9792,2.9792,2.9792,2.9792,2.9792,2.9792,2.9792,2.9792,2.9792,2.9792,2.9792,2.9792,2.9792,2.9792,2.9792,2.9792,2.9792,2.9792,2.9792,2.9792,2.9792,2.9792,2.9792,2.9792,2.9792,2.9792,2.9792,0.0,0.0,0.0,0.0,0.0,0.0,0.0,0.0,0.0,0.0,0.0,0.0,0.0,0.0,0.0,0.0,0.0,0.0,0.0,0.0,0.0,0.0,0.0,0.0,0.0,0.046,0.128,0.2452,0.3467,0.4425,0.5314,0.5986,0.6353,0.6464,0.6302,0.0,0.0,0.0,0.0,0.0,0.0,0.0,0.0,0.0,0.0,0.0,0.5466,0.5783,0.0,0.6516,0.6909,0.7256,0.0,0.0,0.0,0.0,0.8584,0.9408,1.0795,1.2472,1.4055,1.5037,1.5293,1.5238,1.4876,0.0,0.0,0.0,0.0,0.0,0.0,0.0,0.0,0.0,0.0,0.0,0.0,0.0,0.0,0.0,0.0,0.0,0.0,0.0,2.7032,2.7032,2.8266,2.9028,2.9028,2.9514,2.9792,2.9792,2.9792,2.9792,2.9792,2.9792,2.9792,2.9792,2.9792,2.9792,2.9792,2.9792,2.9792,2.9792,2.9792,2.9792,2.9792,2.9792,2.9792,2.9792,2.9792,2.9792,2.9792,2.9792,2.9792,2.9792,0.0,0.0,0.0,0.0,0.0,0.0,0.0,0.0,0.0,0.0,0.0,0.0,0.0,0.0,0.0,0.0,0.0,0.0,0.0,0.0,0.0,0.0,0.0,0.0,0.0,0.0,0.0565,0.1726,0.344,0.4619,0.5295,0.6447,0.7002,0.7019,0.6308,0.0,0.0,0.0,0.0,0.0,0.0,0.0,0.0,0.0,0.0,0.0,0.0,0.0,0.0,0.5965,0.6214,0.6422,0.6539,0.0,0.0,0.0,0.0,0.0,0.995,1.1705,1.3475,1.4839,1.4891,1.4609,1.4609,0.0,0.0,0.0,0.0,0.0,0.0,0.0,0.0,0.0,0.0,0.0,0.0,0.0,0.0,0.0,0.0,0.0,2.3492,2.4667,2.5461,2.5461,2.6964,2.7866,2.7866,2.8918,2.9528,2.9528,2.9528,2.9528,2.9528,2.9704,2.9792,2.9792,2.9792,2.9792,2.9792,2.9792,2.9792,2.9792,0.0,0.0,2.9792,2.9792,2.9792,2.9792,2.9792,2.9792,2.9792,2.9792,2.9792,2.9792,0.0,0.0,0.0,0.0,0.0,0.0,0.0,0.0,0.0,0.0,0.0,0.0,0.0,0.0,0.0,0.0,0.0,0.0,0.0,0.0,0.0,0.0,0.0,0.0,0.0,0.0,0.0451,0.1377,0.2949,0.4208,0.5152,0.6354,0.7353,0.8096,0.6931,0.6185,0.5789,0.0,0.0,0.0,0.0,0.0,0.0,0.0,0.0,0.0,0.0,0.0,0.0,0.5422,0.5469,0.5504,0.5522,0.0,0.0,0.0,0.0,0.0,0.9913,1.0963,1.176,1.2613,1.306,1.329,1.329,0.0,0.0,0.0,0.0,0.0,0.0,0.0,0.0,0.0,0.0,0.0,0.0,0.0,0.0,0.0,0.0,2.3492,2.3492,2.3716,2.3859,2.3859,2.5695,2.684,2.684,2.7804,2.836,2.836,2.836,2.836,2.836,2.9315,2.9792,2.9792,2.9792,2.9792,2.9792,2.9792,2.9792,2.9792,0.0,2.9792,2.9792,2.9792,2.9792,2.9792,2.9792,2.9792,2.9792,2.9792,2.9792,2.9792,0.0,0.0,0.0,0.0,0.0,0.0,0.0,0.0,0.0,0.0,0.0,0.0,0.0,0.0,0.0,0.0,0.0,0.0,0.0,0.0,0.0,0.0,0.0,0.0,0.0,0.1277,0.182,0.1572,0.3774,0.4964,0.524,0.6557,0.7495,0.8018,0.6817,0.5921,0.5279,0.0,0.0,0.0,0.0,0.0,0.0,0.0,0.0,0.0,0.0,0.0,0.0,0.0,0.5392,0.5511,0.5511,0.0,0.0,0.0,0.0,0.0,0.8981,0.9791,1.0521,1.1308,1.2504,1.3495,1.3495,0.0,0.0,0.0,0.0,0.0,0.0,0.0,0.0,0.0,0.0,0.0,0.0,0.0,0.0,0.0,0.0,2.1936,2.1936,2.2119,2.2271,2.2271,2.4428,2.5747,2.5747,2.7249,2.8109,2.8109,2.8109,2.8109,2.8109,2.8624,2.9026,2.9327,2.9641,2.9792,2.9792,2.9792,2.9792,2.9792,0.0,2.9792,2.9792,2.9792,2.9792,2.9792,2.9792,2.9792,2.9792,2.9792,2.9792,2.9792,0.0,0.0,0.0,0.0,0.0,0.0,0.0,0.0,0.0,0.0,0.0,0.0,0.0,0.0,0.0,0.0,0.0,0.0,0.0,0.0,0.0,0.0,0.0,0.0264,0.0833,0.2649,0.312,0.2155,0.4483,0.5659,0.5766,0.6812,0.7433,0.7637,0.6575,0.5632,0.4829,0.0,0.0,0.0,0.0,0.0,0.0,0.0,0.0,0.0,0.0,0.0,0.0,0.0,0.0,0.0,0.0,0.0,0.0,0.6669,0.7144,0.7808,0.8324,0.9014,0.9802,1.0621,0.0,1.3444,1.3747,0.0,0.0,0.0,0.0,0.0,0.0,0.0,0.0,0.0,0.0,0.0,0.0,0.0,0.0,0.0,2.0605,2.0605,2.0605,2.0879,2.1054,2.1054,2.3289,2.4657,2.4657,2.6601,2.772,2.772,2.772,2.772,2.772,2.7846,2.8185,2.8718,2.9189,2.9402,2.9402,2.9528,2.9591,2.9591,2.9729,2.9792,2.9792,2.9792,2.9792,2.9792,2.9792,2.9792,2.9792,2.9792,2.9792,2.9792,0.0,0.0,0.0,0.0,0.0,0.0,0.0,0.0,0.0,0.0,0.0,0.0,0.0,0.0,0.0,0.0,0.0,0.0,0.0,0.0,0.0,0.0,0.0,0.1048,0.3294,0.3517,0.3464,0.3195,0.4261,0.5566,0.7068,0.7039,0.7138,0.7304,0.6473,0.5689,0.0,0.0,0.0,0.0,0.0,0.0,0.0,0.0,0.0,0.0,0.0,0.0,0.0,0.0,0.0,0.0,0.0,0.0,0.6605,0.6955,0.7359,0.7885,0.8726,0.9267,0.9815,1.0684,1.1326,0.0,1.3259,1.3209,0.0,0.0,0.0,0.0,0.0,0.0,0.0,0.0,0.0,0.0,0.0,0.0,0.0,2.0595,2.0605,2.0605,2.0605,2.0635,2.0635,2.0635,2.247,2.3608,2.3608,2.552,2.6612,2.6612,2.6612,2.6612,2.6612,2.7097,2.762,2.816,2.821,2.8222,2.8247,2.8743,2.8969,2.9007,2.9566,2.9792,2.9792,2.9792,2.9792,2.9792,2.9792,2.9792,2.9792,2.9792,2.9792,2.9792,0.0,0.0,0.0,0.0,0.0,0.0,0.0,0.0,0.0,0.0,0.0,0.0,0.0,0.0,0.0,0.0,0.0,0.0,0.0,0.0,0.0,0.0,0.0,0.0606,0.1895,0.3028,0.379,0.4169,0.4941,0.6009,0.7308,0.6811,0.6474,0.6273,0.5513,0.0,0.0,0.0,0.0,0.0,0.0,0.0,0.0,0.0,0.0,0.0,0.0,0.0,0.0,0.0,0.4685,0.5218,0.5502,0.618,0.6901,0.705,0.7381,0.7771,0.8102,0.8881,0.9748,1.0371,1.0752,0.0,0.0,1.3398,0.0,0.0,0.0,0.0,0.0,0.0,0.0,0.0,0.0,0.0,0.0,0.0,2.0264,2.0576,2.0605,2.0605,2.0605,2.0605,2.0605,2.0605,2.1811,2.2571,2.2571,2.3879,2.4642,2.4642,2.5235,2.5564,2.5564,2.6392,2.6896,2.711,2.777,2.8109,2.8109,2.8304,2.8392,2.8417,2.8649,2.875,2.875,2.875,2.875,2.875,2.875,2.8548,2.8339,2.8991,2.9036,2.879,0.0,0.0,0.0,0.0,0.0,0.0,0.0,0.0,0.0,0.0,0.0,0.0,0.0,0.0,0.0,0.0,0.0,0.0,0.0,0.0,0.0,0.0,0.0179,0.0481,0.0893,0.2379,0.3548,0.4353,0.5084,0.5999,0.7035,0.6326,0.5848,0.5575,0.0,0.0,0.0,0.0,0.0,0.0,0.0,0.0,0.0,0.0,0.0,0.0,0.0,0.0,0.0,0.0,0.448,0.5147,0.551,0.6216,0.6962,0.7216,0.7588,0.7915,0.7915,0.8743,0.9663,0.0,0.0,0.0,1.2517,1.33,0.0,0.0,0.0,0.0,0.0,0.0,0.0,0.0,0.0,0.0,0.0,1.961,1.9824,2.0146,2.0185,2.0185,2.0185,2.0302,2.0381,2.0381,2.1388,2.1989,2.1989,2.2962,2.3496,2.3496,2.4174,2.4528,2.4528,2.5217,2.5704,2.6037,2.6779,2.7282,2.7595,2.777,2.7846,2.7858,2.8034,2.8109,2.8109,2.8109,2.7901,2.7631,2.7631,2.7212,2.6725,2.7461,2.7678,2.7686,0.0,0.0,0.0,0.0,0.0,0.0,0.0,0.0,0.0,0.0,0.0,0.0,0.0,0.0,0.0,0.0,0.0,0.0,0.0,0.0,0.0,0.0,0.0577,0.0903,0.0906,0.1754,0.2662,0.3605,0.4473,0.5371,0.6269,0.5606,0.5317,0.5346,0.0,0.0,0.0,0.0,0.0,0.0,0.0,0.0,0.0,0.0,0.0,0.0,0.0,0.0,0.0,0.0,0.418,0.4603,0.5742,0.6283,0.6668,0.7466,0.8029,0.8395,0.8395,0.8977,0.0,0.0,0.0,0.0,0.0,1.2837,0.0,0.0,0.0,0.0,0.0,0.0,0.0,0.0,0.0,0.0,1.8598,1.8996,1.9296,1.9305,1.9305,1.9305,1.9305,1.9668,1.9883,1.9883,2.1194,2.196,2.196,2.2932,2.3467,2.3467,2.3467,2.3485,2.3478,2.3496,2.4,2.4998,2.4998,2.5511,2.6512,2.7047,2.7286,2.7324,2.7846,2.8084,2.8084,2.8066,2.7477,2.6578,2.6578,2.6003,2.5191,2.5179,2.5766,2.6571,0.0,0.0,0.0,0.0,0.0,0.0,0.0,0.0,0.0,0.0,0.0,0.0,0.0,0.0,0.0,0.0,0.0,0.0,0.0,0.0,0.0,0.0,0.0579,0.1102,0.1522,0.1922,0.2754,0.4022,0.4467,0.4782,0.4955,0.4665,0.4159,0.3503,0.0,0.0,0.0,0.0,0.0,0.0,0.0,0.0,0.0,0.0,0.0,0.0,0.0,0.0,0.0,0.0,0.0,0.0,0.555,0.6482,0.7391,0.7627,0.7829,0.7945,0.78,0.0,0.0,0.0,0.0,0.0,0.0,0.0,0.0,0.0,0.0,0.0,0.0,0.0,0.0,0.0,0.0,0.0,1.8559,1.8715,1.8927,1.9248,1.9305,1.9305,1.9305,1.9404,1.9473,1.9473,1.9857,2.0111,2.0111,2.0376,2.0549,2.0549,2.1227,2.1736,2.2022,2.2723,2.337,2.3945,2.3945,2.4838,2.6499,2.6663,2.6738,2.6751,2.6914,2.6959,2.6924,2.621,2.5329,2.4415,2.4415,2.4013,2.3535,2.4287,2.4487,2.4564,0.0,0.0,0.0,0.0,0.0,0.0,0.0,0.0,0.0,0.0,0.0,0.0,0.0,0.0,0.0,0.0,0.0,0.0,0.0,0.0,0.0,0.0,0.0348,0.0827,0.143,0.1793,0.2476,0.3488,0.4075,0.4248,0.4052,0.4315,0.4055,0.3388,0.0,0.353,0.0,0.0,0.0,0.0,0.3072,0.3213,0.3501,0.0,0.0,0.0,0.0,0.0,0.0,0.0,0.0,0.0,0.5227,0.0,0.7047,0.7547,0.769,0.7762,0.8114,0.0,0.0,0.0,0.0,0.0,0.0,0.0,0.0,0.0,0.0,0.0,0.0,0.0,0.0,0.0,0.0,0.0,1.8332,1.8371,1.8469,1.875,1.8779,1.8779,1.8779,1.8936,1.9023,1.9023,1.9189,1.9305,1.9305,1.9305,1.9305,1.9305,1.9883,2.0329,2.0559,2.1165,2.179,2.2422,2.2422,2.3366,2.5074,2.5244,2.5311,2.5311,2.5311,2.5311,2.5258,2.4642,2.3818,2.2906,2.2906,2.2471,2.1937,2.2592,2.2857,2.3039,0.0,0.0,0.0,0.0,0.0,0.0,0.0,0.0,0.0,0.0,0.0,0.0,0.0,0.0,0.0,0.0,0.0,0.0,0.0,0.0,0.0,0.0,0.0,0.0284,0.0889,0.1491,0.1978,0.2343,0.336,0.3694,0.3401,0.4266,0.4489,0.4196,0.0,0.4287,0.0,0.0,0.0,0.3148,0.3346,0.3442,0.3464,0.3437,0.0,0.0,0.0,0.0,0.0,0.0,0.0,0.0,0.4846,0.5379,0.6057,0.7284,0.7554,0.7695,0.0,0.0,0.0,0.0,0.0,0.0,0.0,0.0,0.0,0.0,0.0,0.0,0.0,0.0,0.0,0.0,0.0,1.7896,1.7991,1.794,1.7896,1.7991,1.7991,1.7991,1.7991,1.8325,1.8549,1.8549,1.8945,1.917,1.917,1.917,1.917,1.917,1.917,1.9208,1.9247,1.9247,1.9727,2.0648,2.0648,2.1321,2.2593,2.318,2.3462,2.3496,2.3496,2.3441,2.3368,2.3368,2.2776,2.1868,2.1868,2.1355,2.0605,2.0605,2.1136,2.1876,0.0,0.0,0.0,0.0,0.0,0.0,0.0,0.0,0.0,0.0,0.0,0.0,0.0,0.0,0.0,0.0,0.0,0.0,0.0,0.0,0.0,0.0,0.0,0.0283,0.0887,0.1488,0.1842,0.1931,0.2479,0.2652,0.0,0.0,0.0,0.2554,0.0,0.3612,0.0,0.0,0.0,0.3378,0.302,0.2998,0.3159,0.2955,0.2676,0.0,0.0,0.0,0.0,0.0,0.0,0.0,0.4785,0.5438,0.6119,0.6974,0.7135,0.7181,0.0,0.7986,0.0,0.0,0.0,0.0,0.0,0.0,0.0,0.0,0.0,0.0,0.0,0.0,0.0,0.0,1.7371,1.7156,1.7896,1.7371,1.7173,1.7906,1.7991,1.7991,1.7991,1.8069,1.8127,1.8127,1.8215,1.8281,1.8281,1.8281,1.8281,1.8281,1.8281,1.842,1.8752,1.8744,1.9053,1.9622,1.9622,1.9771,2.0143,2.2124,2.3192,2.3496,2.3496,2.3054,2.2328,2.2328,2.1764,2.0895,2.0895,2.0789,2.0605,2.0605,2.0731,2.1011,0.0,0.0,0.0,0.0,0.0,0.0,0.0,0.0,0.0,0.0,0.0,0.0,0.0,0.0,0.0,0.0,0.0,0.0,0.0,0.0,0.0,0.0,0.0,0.0146,0.0462,0.1343,0.1798,0.1798,0.2011,0.0,0.0,0.0,0.0,0.2905,0.0,0.4,0.0,0.0,0.3522,0.3479,0.3197,0.3089,0.3084,0.2945,0.2702,0.2464,0.2638,0.0,0.0,0.0,0.0,0.0,0.0,0.0,0.5562,0.6491,0.6558,0.6546,0.0,0.0,0.0,0.0,0.0,0.0,0.0,0.0,0.0,0.0,0.0,0.0,0.0,0.0,0.0,1.7637,1.73,1.7222,1.791,1.7579,1.7449,1.794,1.7991,1.7991,1.7991,1.7991,1.7991,1.7991,1.7991,1.7991,1.7991,1.7991,1.7991,1.7991,1.7991,1.8098,1.8313,1.8313,1.844,1.8682,1.8682,1.8779,1.902,2.0491,2.1293,2.1507,2.1692,2.147,2.1013,2.1245,2.1039,2.0605,2.0605,2.0605,2.0605,2.0605,2.0605,2.0673,0.0,0.0,0.0,0.0,0.0,0.0,0.0,0.0,0.0,0.0,0.0,0.0,0.0,0.0,0.0,0.0,0.0,0.0,0.0,0.0,0.0,0.0,0.0,0.0,0.0,0.0977,0.1594,0.1798,0.0,0.0,0.0,0.0,0.0,0.3707,0.0,0.0,0.0,0.0,0.3715,0.3495,0.3453,0.3298,0.3089,0.2988,0.2805,0.2605,0.2562,0.2573,0.2654,0.2939,0.0,0.0,0.0,0.0,0.4829,0.5857,0.5902,0.5883,0.0,0.0,0.0,0.0,0.0,0.0,0.0,0.0,0.0,0.0,0.0,0.0,0.0,0.0,0.0,1.7197,1.7135,1.7218,1.7701,1.7649,1.7588,1.7759,1.7776,1.7776,1.7776,1.7844,1.79,1.79,1.7952,1.7991,1.7991,1.7991,1.7991,1.7991,1.7991,1.7991,1.7991,1.7991,1.7991,1.7991,1.7991,1.8176,1.851,1.8906,1.9168,1.9325,1.9658,1.9805,1.9834,2.0214,2.038,2.039,2.0439,2.0468,2.0488,2.0576,2.0605,2.0605,0.0,0.0,0.0,0.0,0.0,0.0,0.0,0.0,0.0,0.0,0.0,0.2059,0.1825,0.1191,0.0,0.0,0.0,0.0,0.0,0.0,0.0,0.0,0.0,0.0,0.0,0.0156,0.0753,0.1798,0.0,0.0,0.0,0.0,0.0,0.3202,0.0,0.0,0.0,0.0,0.0,0.3479,0.325,0.3132,0.3041,0.2519,0.2297,0.2237,0.2006,0.2072,0.2313,0.2643,0.2934,0.0,0.0,0.0,0.0,0.5017,0.5224,0.5396,0.0,0.0,0.0,0.0,0.0,0.0,0.0,0.0,0.0,0.0,0.0,0.0,0.0,0.0,1.6314,1.6732,1.6107,1.5875,1.6741,1.6166,1.5963,1.6792,1.6872,1.6872,1.6872,1.7246,1.7487,1.7487,1.7803,1.7991,1.7991,1.7991,1.7991,1.7991,1.7991,1.7991,1.7991,1.7991,1.7991,1.7991,1.7991,1.802,1.8079,1.8154,1.8584,1.9287,1.9364,1.9375,1.9375,1.9452,1.9471,1.9511,1.9863,1.9981,2.0049,2.0439,2.0605,2.0605,0.0,0.0,0.0,0.0,0.0,0.0,0.0,0.0,0.0,0.0,0.0,0.1929,0.1809,0.1261,0.0,0.0,0.0,0.0,0.0,0.0,0.0,0.0,0.0,0.0,0.0,0.0,0.0262,0.0,0.0,0.0,0.0,0.2899,0.3253,0.0,0.0,0.0,0.0,0.0,0.0,0.349,0.3372,0.3434,0.3537,0.2934,0.28,0.2847,0.224,0.2099,0.0,0.0,0.0,0.0,0.368,0.0,0.0,0.0,0.0,0.0,0.0,0.0,0.0,0.0,0.0,0.0,0.0,0.0,0.0,0.0,0.0,0.0,0.0,0.0,1.5855,1.6279,1.6013,1.5964,1.6611,1.6345,1.6249,1.6649,1.6697,1.6697,1.6697,1.6888,1.7021,1.7021,1.7171,1.7262,1.7262,1.7262,1.7262,1.7262,1.7262,1.7262,1.7262,1.7262,1.7396,1.7656,1.7656,1.7783,1.7991,1.7991,1.8213,1.8584,1.8818,1.8908,1.8927,1.9189,1.9305,1.9325,1.9492,1.9561,1.959,1.9804,1.9872,1.9872,0.0,0.0,0.0,0.0,0.0,0.0,0.0,0.0,0.0,0.0,0.0,0.0,0.1806,0.0,0.0,0.0,0.0,0.0,0.0,0.0,0.0,0.0,0.0,0.0,0.0,0.0,0.0,0.0,0.0,0.0,0.2359,0.2895,0.3381,0.0,0.3976,0.0,0.0,0.0,0.0,0.0,0.0,0.3876,0.406,0.3676,0.3654,0.3721,0.2844,0.0,0.0,0.0,0.0,0.0,0.0,0.0,0.0,0.0,0.0,0.0,0.0,0.0,0.0,0.0,0.0,0.0,0.0,0.0,0.0,0.0,0.0,0.0,0.0,1.5249,1.5518,1.588,1.5928,1.6031,1.6332,1.6365,1.6365,1.6365,1.6365,1.6365,1.6365,1.6488,1.6547,1.6547,1.6638,1.6697,1.6697,1.6697,1.6697,1.6697,1.6697,1.6697,1.6697,1.6697,1.6879,1.7217,1.735,1.7565,1.7852,1.7942,1.7991,1.8027,1.8322,1.8442,1.8461,1.8828,1.8965,1.8975,1.9082,1.9121,1.9131,1.9266,1.9305,1.9305,0.0,0.0,0.0,0.0,0.0,0.0,0.0,0.0,0.0,0.0,0.0,0.0,0.0,0.0,0.0,0.0,0.0,0.0,0.0,0.0,0.0,0.0,0.0,0.0,0.0,0.0,0.0,0.0,0.0,0.0,0.2218,0.2568,0.3116,0.3814,0.4077,0.44,0.4703,0.0,0.0,0.0,0.0,0.0,0.4402,0.4626,0.4723,0.4612,0.0,0.0,0.0,0.0,0.0,0.0,0.0,0.0,0.0,0.0,0.0,0.0,0.0,0.0,0.0,0.0,0.0,0.0,0.0,0.0,0.0,0.0,0.0,0.0,1.4042,1.4835,1.5405,1.5425,1.5435,1.5435,1.5464,1.5464,1.5464,1.5464,1.5464,1.5464,1.5464,1.5865,1.6124,1.6124,1.6479,1.6697,1.6697,1.6697,1.6697,1.6697,1.6697,1.6697,1.6697,1.6697,1.6716,1.6746,1.7187,1.7409,1.7448,1.7832,1.7991,1.7991,1.802,1.803,1.803,1.8066,1.8076,1.8115,1.8498,1.8637,1.8685,1.9131,1.9305,1.9305,0.0,0.0,0.0,0.0,0.0,0.0,0.0,0.0,0.0,0.0,0.0,0.0,0.0,0.1905,0.1627,0.1191,0.0,0.0,0.0,0.0,0.0,0.0,0.0,0.0,0.0,0.0,0.0,0.0,0.0,0.0681,0.1382,0.2022,0.2773,0.361,0.3618,0.3966,0.4497,0.3799,0.0,0.0,0.0,0.0,0.0,0.5153,0.5356,0.5579,0.0,0.0,0.0,0.0,0.0,0.0,0.0,0.3735,0.362,0.3527,0.0,0.0,0.0,0.0,0.0,0.0,0.0,0.0,0.0,0.0,0.0,0.0,0.0,0.0,1.3588,1.4172,1.465,1.4971,1.501,1.5107,1.5357,1.5396,1.5396,1.5396,1.5396,1.5396,1.5396,1.5557,1.5644,1.5644,1.5776,1.5874,1.5874,1.5874,1.5874,1.5874,1.5874,1.5874,1.5874,1.5874,1.6025,1.6324,1.6496,1.6705,1.6966,1.7412,1.7607,1.7627,1.7891,1.7991,1.7991,1.7991,1.7991,1.801,1.8157,1.8215,1.8235,1.8391,1.8467,1.8467,0.0,0.0,0.0,0.0,0.0,0.0,0.0,0.0,0.0,0.2735,0.0,0.0,0.0,0.0,0.18,0.1798,0.1433,0.1202,0.1202,0.0,0.0,0.0,0.0,0.0,0.0,0.0,0.0,0.0,0.0,0.0,0.0,0.1655,0.2462,0.3298,0.3204,0.374,0.0,0.0,0.0,0.4709,0.0,0.0,0.573,0.0,0.6211,0.0,0.0,0.0,0.0,0.0,0.0,0.0,0.0,0.3842,0.3501,0.3501,0.3863,0.0,0.4482,0.0,0.0,0.0,0.0,0.0,0.0,0.0,0.0,0.0,0.0,1.2478,1.3165,1.3525,1.3883,1.4473,1.457,1.4668,1.4927,1.5107,1.5205,1.5205,1.5322,1.5396,1.5396,1.5396,1.5396,1.5396,1.5396,0.0,1.5396,1.5396,1.5396,1.5396,1.5396,1.5396,1.5396,1.5396,1.5557,1.588,1.6016,1.6236,1.6508,1.6963,1.7168,1.7187,1.7617,1.7881,1.7991,1.7991,1.7991,1.7991,1.7991,1.7991,1.7991,1.7991,1.7991,1.7991,0.0,0.0,0.0,0.0,0.0,0.0,0.0,0.0,0.3014,0.2746,0.0,0.0,0.0,0.0,0.0,0.1803,0.1798,0.1798,0.1798,0.1798,0.0,0.0,0.0,0.0,0.0,0.0,0.0,0.0,0.0,0.0,0.0,0.0,0.2189,0.2896,0.29,0.3785,0.5245,0.0,0.4968,0.532,0.0,0.5694,0.5856,0.0,0.0,0.0,0.6713,0.6253,0.0,0.0,0.0,0.0,0.0,0.4003,0.3514,0.3514,0.3754,0.0,0.0,0.0,0.0,0.0,0.0,0.0,0.0,0.0,0.0,0.0,0.0,1.1994,1.2727,1.2893,1.3167,1.3938,1.4062,1.4094,1.4091,1.4488,1.478,1.478,1.5127,1.5357,1.5357,1.5357,1.5357,1.5357,1.5357,1.5357,1.5357,1.5376,1.5386,1.5396,1.5396,1.5396,1.5396,1.5396,1.5396,1.5405,1.5855,1.6075,1.6085,1.6498,1.6677,1.6707,1.7178,1.7598,1.7961,1.7981,1.7991,1.7991,1.7991,1.7991,1.7991,1.7991,1.7991,1.7991,0.0,0.0,0.0,0.0,0.0,0.3501,0.3501,0.3437,0.3293,0.0,0.0,0.0,0.2122,0.1918,0.1801,0.1798,0.1798,0.1798,0.1798,0.18,0.1725,0.1558,0.1552,0.1474,0.1305,0.0,0.0,0.0,0.0,0.0,0.0,0.0,0.0,0.0,0.2958,0.3534,0.434,0.4003,0.0,0.0,0.5115,0.5574,0.0,0.0,0.0,0.0,0.0,0.7146,0.6956,0.0,0.6159,0.5582,0.0,0.0,0.0,0.3859,0.4067,0.0,0.4052,0.0,0.0,0.0,0.0,0.0,0.0,0.0,0.0,0.0,0.0,1.1401,1.2003,1.2547,1.2971,1.3206,1.3486,1.3776,1.4065,1.4211,1.428,1.428,1.4387,1.4465,1.4465,1.4465,1.4465,0.0,1.4465,1.4465,1.4465,1.4785,1.5098,1.5386,1.5396,1.5396,1.5396,1.5396,1.5396,1.5396,1.5537,1.5586,1.5605,1.606,1.6265,1.6295,1.6719,1.6966,1.7113,1.7737,1.7991,1.7991,1.7991,1.7991,1.7991,1.7991,1.7991,1.7991,0.0,0.0,0.0,0.0,0.0,0.3501,0.3501,0.3501,0.3362,0.0,0.0,0.0,0.2248,0.2011,0.1863,0.1804,0.1797,0.1797,0.1797,0.1798,0.1796,0.1796,0.1796,0.18,0.1798,0.0864,0.0,0.0,0.0,0.1622,0.128,0.1633,0.1992,0.2345,0.2753,0.3129,0.3463,0.0,0.0,0.0,0.5303,0.0,0.0,0.7007,0.7361,0.0,0.0,0.0,0.7635,0.7439,0.6927,0.0,0.0,0.4797,0.4496,0.4241,0.4456,0.0,0.0,0.0,0.0,0.0,0.0,0.0,0.0,0.7468,0.0,0.0,0.9977,1.1077,1.1619,1.2191,1.2607,1.2607,1.2969,1.333,1.3561,1.3734,1.3851,1.3851,1.3997,1.4091,1.4091,1.4091,1.4091,1.4091,1.4091,1.4091,1.4091,1.4361,1.4707,1.5137,1.5146,1.5234,1.5396,1.5396,1.5396,1.5396,1.5396,1.5396,1.5405,1.5674,1.5806,1.5825,1.626,1.6455,1.6504,1.7181,1.7561,1.7764,1.7922,1.7991,1.7991,1.7991,1.7991,1.7991,0.0,0.0,0.3501,0.3501,0.3501,0.3514,0.3552,0.3521,0.3355,0.0,0.3023,0.2891,0.2267,0.208,0.1958,0.1853,0.1818,0.1804,0.1824,0.1807,0.1797,0.1797,0.1797,0.1798,0.1798,0.1274,0.0674,0.0,0.1208,0.1798,0.1798,0.1803,0.1818,0.1869,0.2443,0.2713,0.2783,0.0,0.0,0.4874,0.5708,0.6285,0.0,0.0,0.7866,0.0,0.8289,0.8223,0.7999,0.7965,0.739,0.0,0.0,0.5447,0.5286,0.4716,0.4924,0.0,0.4981,0.4927,0.0,0.0,0.0,0.0,0.6262,0.7188,0.8057,0.0,0.0,1.0632,1.118,1.1699,1.2057,1.2057,1.249,1.2844,1.2883,1.3216,1.3425,1.3425,1.3756,1.3968,1.3968,1.3968,1.3968,1.3968,1.3968,1.3987,1.4036,1.4023,1.4254,1.4711,1.4717,1.4893,1.5249,1.5308,1.5327,1.5327,1.5376,1.5396,1.5396,1.5396,1.5396,1.5415,1.5835,1.6016,1.6056,1.6459,1.6943,1.7438,1.7793,1.7952,1.7991,1.7991,1.7991,1.7991,0.0,0.3501,0.3501,0.3501,0.3501,0.3591,0.3859,0.367,0.3639,0.4018,0.3596,0.2988,0.228,0.2078,0.2032,0.2114,0.1923,0.1846,0.1951,0.186,0.1797,0.1797,0.1797,0.1798,0.1798,0.1683,0.1089,0.0,0.1208,0.1798,0.1798,0.1798,0.1913,0.2143,0.2529,0.2821,0.3075,0.0,0.0,0.4813,0.5001,0.0,0.6933,0.7113,0.7644,0.8309,0.8375,0.8503,0.8584,0.0,0.7873,0.7243,0.0,0.0,0.0,0.5564,0.0,0.561,0.5541,0.5727,0.5851,0.5549,0.0,0.0,0.5291,0.5694,0.6295,0.0,0.0,0.0,0.9152,1.0301,1.1141,1.1141,1.1825,1.2469,1.2844,1.2974,1.301,1.301,1.3088,1.3125,1.3125,1.3125,1.3125,1.3125,1.3125,1.3271,1.36,1.362,1.3805,1.4221,1.4244,1.427,1.4358,1.4736,1.4916,1.4926,1.5254,1.5396,1.5396,1.5396,1.5396,1.5405,1.5498,1.5537,1.5566,1.6021,1.6676,1.7409,1.7487,1.7715,1.7991,1.7991,1.7991,1.7991,0.0,0.3501,0.3501,0.3501,0.3501,0.3611,0.3951,0.3859,0.3901,0.4345,0.3812,0.316,0.2522,0.2328,0.2208,0.211,0.2097,0.2097,0.2097,0.2192,0.2176,0.2006,0.2,0.1938,0.1802,0.18,0.1502,0.0898,0.1502,0.1798,0.1803,0.1936,0.216,0.246,0.2765,0.305,0.0,0.0,0.4203,0.4648,0.5257,0.0,0.7261,0.7393,0.7931,0.8603,0.8603,0.8684,0.8717,0.8147,0.7958,0.0,0.0,0.6914,0.6931,0.0,0.6243,0.6314,0.6183,0.6171,0.6106,0.5739,0.0,0.0,0.0,0.5565,0.6159,0.6895,0.7397,0.0,0.0,0.0,1.0546,1.0335,1.1201,1.2053,1.2533,1.2776,1.2905,1.2905,1.2905,1.2905,1.2905,1.2905,1.2905,1.2905,1.2905,1.2981,1.3196,1.3193,1.3389,1.3796,1.3792,1.3899,1.4091,1.4328,1.457,1.4799,1.5,1.5205,1.5396,1.5396,1.5396,1.5396,1.5396,1.5396,1.5415,1.5644,1.5909,1.6204,1.6818,1.7171,1.7386,1.7617,1.7695,1.7725,0.0,0.3538,0.3517,0.3569,0.359,0.3709,0.4026,0.4079,0.4166,0.4406,0.4074,0.3631,0.3177,0.0,0.0,0.0,0.2596,0.261,0.0,0.0,0.2659,0.2387,0.2264,0.2128,0.1973,0.186,0.1803,0.1798,0.1803,0.1803,0.1803,0.2076,0.238,0.2716,0.0,0.0,0.0,0.0,0.0,0.4736,0.0,0.6562,0.7294,0.7682,0.8157,0.8638,0.8751,0.8791,0.8691,0.7926,0.0,0.8221,0.7185,0.7337,0.0,0.0,0.0,0.0,0.0,0.0,0.0,0.0,0.0,0.6035,0.0,0.0,0.0,0.7391,0.0,0.0,0.0,0.0,0.0,0.0,0.0,0.0,0.0,1.2203,0.0,1.2762,1.2767,1.2766,1.2766,1.27,1.2719,1.2895,1.2749,1.2729,1.2895,1.2905,1.3049,1.3379,1.3376,1.3532,1.386,1.3948,1.4163,1.4555,1.4633,1.4883,1.5278,1.5278,1.5327,1.5396,1.5396,1.5396,1.5396,1.5396,1.5146,1.489,1.6114,1.654,1.6504,1.6883,1.7024,1.7066,0.3854,0.3662,0.358,0.3812,0.3908,0.4033,0.4309,0.4355,0.4405,0.4561,0.4774,0.0,0.0,0.0,0.0,0.0,0.0,0.0,0.3031,0.0,0.3037,0.2996,0.2485,0.2329,0.2593,0.2077,0.1798,0.1798,0.1798,0.1798,0.1803,0.2076,0.2376,0.2721,0.3226,0.0,0.0,0.0,0.4782,0.0,0.5703,0.5988,0.0,0.724,0.7729,0.8072,0.8611,0.8791,0.8751,0.0,0.8342,0.8328,0.0,0.7826,0.7885,0.0,0.0,0.0,0.0,0.0,0.0,0.0,0.5974,0.0,0.0,0.0,0.6237,0.6372,0.0,0.0,0.0,0.0,0.0,0.0,0.0,0.0,0.9958,1.0606,1.1439,1.2272,1.2323,1.2281,1.2281,1.1955,1.2075,1.2834,1.2183,1.2074,1.2866,1.2905,1.2913,1.2974,1.2974,1.2991,1.304,1.3389,1.3591,1.3649,1.402,1.442,1.4868,1.4868,1.5059,1.5396,1.5396,1.5396,1.5396,1.5396,1.4961,1.4411,1.567,1.5944,1.5636,1.5707,1.5725,1.5612,0.4099,0.3916,0.0,0.388,0.3794,0.3868,0.4329,0.4991,0.5314,0.4943,0.5014,0.0,0.0,0.0,0.0,0.0,0.0,0.4582,0.0,0.0,0.0,0.3636,0.3047,0.2716,0.2698,0.2107,0.1801,0.1798,0.1801,0.1801,0.1809,0.2274,0.2653,0.2955,0.3537,0.0,0.4462,0.0,0.0,0.0,0.0,0.0,0.0,0.7268,0.8017,0.8458,0.8704,0.8791,0.8724,0.0,0.8242,0.0,0.0,0.0,0.0,0.0,0.0,0.0,0.0,0.0,0.0,0.0,0.0,0.0,0.4827,0.0,0.5917,0.0,0.0,0.0,0.0,0.0,0.0,0.0,0.881,0.0,0.0,0.0,1.0134,0.0,0.0,0.0,1.1414,1.1545,1.1752,1.2124,1.1811,1.1858,1.2459,1.2744,1.2905,1.2905,1.2905,1.2905,1.2905,1.3069,1.3271,1.3493,1.3669,1.3981,1.4391,1.4391,1.4625,1.5049,1.5049,1.5186,1.5366,1.4903,1.4228,1.3563,1.4091,1.4204,1.4075,1.4307,1.44,1.4387,0.4359,0.0,0.0,0.0,0.3753,0.3836,0.4416,0.5333,0.5819,0.5452,0.0,0.0,0.587,0.5512,0.0,0.0,0.0,0.5606,0.0,0.0,0.4768,0.437,0.3707,0.0,0.0,0.2394,0.2001,0.1913,0.1836,0.1836,0.1924,0.2453,0.284,0.3131,0.3809,0.4369,0.4793,0.0,0.0,0.5307,0.5481,0.5854,0.642,0.7499,0.8272,0.8791,0.8791,0.8791,0.8718,0.8211,0.8196,0.0,0.8116,0.0,0.0,0.0,0.0,0.0,0.8218,0.0,0.0,0.0,0.0,0.0,0.0,0.0,0.0,0.0,0.0,0.0,0.0,0.0,0.0,0.0,0.0,0.8933,0.0,0.0,0.0,0.0,0.0,0.0,0.0,1.0831,1.1027,1.1379,1.1194,1.1397,1.2164,1.2517,1.2766,1.2905,1.2905,1.2905,1.2905,1.2905,1.3049,1.334,1.334,1.3555,1.3938,1.3938,1.4186,1.4596,1.4517,1.4753,1.5158,1.4257,1.3539,1.2978,1.2757,1.2543,1.2398,1.2923,1.3106,1.3154,0.4631,0.4262,0.0,0.0,0.0,0.4161,0.4708,0.5097,0.5528,0.0,0.0,0.0,0.0,0.0,0.0,0.0,0.0,0.666,0.5997,0.0,0.528,0.5258,0.4436,0.3967,0.0,0.3109,0.2515,0.2188,0.1929,0.1935,0.2193,0.254,0.2843,0.3135,0.4005,0.4542,0.482,0.5138,0.5769,0.6516,0.6267,0.6831,0.7827,0.0,0.8272,0.8791,0.8791,0.0,0.0,0.8476,0.8395,0.0,0.0,0.0,0.0,0.0,0.0,0.0,0.0,0.0,0.0,0.6035,0.0,0.0,0.0,0.0,0.5582,0.0,0.0,0.0,0.0,0.0,0.0,0.0,0.0,0.0,0.0,0.0,0.0,0.0,0.0,0.0,0.0,0.957,0.9591,0.0,1.0137,1.041,1.2116,1.2202,1.243,1.2895,1.2905,1.2905,1.2905,1.2905,1.2915,1.2913,1.2913,1.3137,1.3513,1.3513,1.3747,1.4099,1.3774,1.4086,1.4736,1.3533,1.3024,1.2917,1.2143,1.1367,1.0776,1.1569,1.1864,1.1864,0.0,0.0,0.0,0.0,0.0,0.3924,0.4681,0.5006,0.0,0.0,0.0,0.0,0.0,0.0,0.6913,0.0,0.0,0.7661,0.7037,0.6639,0.0,0.0,0.0,0.4759,0.0,0.0,0.3089,0.2795,0.2524,0.2443,0.254,0.2826,0.3014,0.314,0.4011,0.4676,0.0,0.0,0.0,0.0,0.0,0.7328,0.8235,0.0,0.0,0.8791,0.8791,0.8791,0.0,0.8697,0.8835,0.9008,0.8752,0.8848,0.9025,0.8848,0.8791,0.0,0.0,0.0,0.7435,0.6313,0.0,0.0,0.0,0.0,0.0,0.0,0.0,0.0,0.0,0.0,0.0,0.0,0.0,0.0,0.0,0.0,0.0,0.0,0.0,0.0,0.0,0.0,0.0,0.0,0.9767,0.0,1.172,1.1629,1.1966,1.2861,1.2427,1.2415,1.2905,1.2415,1.2166,1.2166,1.2166,1.2017,1.174,1.2682,1.308,1.3032,1.2918,1.3181,1.3585,1.2364,1.1879,1.1827,1.1241,1.117,1.1422,1.1694,1.1803,1.195,0.4338,0.0,0.0,0.0,0.0,0.0,0.0,0.0,0.0,0.0,0.575,0.0,0.6775,0.0,0.663,0.0,0.7783,0.7899,0.7651,0.7348,0.0,0.6754,0.6113,0.0,0.0,0.0,0.3788,0.3418,0.3034,0.2846,0.2848,0.302,0.0,0.0,0.0,0.4737,0.532,0.0,0.6177,0.0,0.0,0.7861,0.0,0.0,0.8644,0.8791,0.0,0.8791,0.8831,0.9074,0.9328,0.9537,0.9522,0.9526,0.9494,0.9233,0.8982,0.8791,0.8791,0.8454,0.0,0.6845,0.6103,0.0,0.4257,0.0,0.0,0.0,0.0,0.0,0.0,0.0,0.0,0.0,0.0,0.0,0.0,0.6151,0.0,0.0,0.0,0.0,0.0,0.0,0.8625,0.9338,0.925,0.0,0.0,1.1352,1.1649,1.2272,1.1969,1.191,1.2157,1.1674,1.1441,1.1441,1.1441,1.1216,1.0826,1.1742,1.2057,1.1882,1.1773,1.2037,1.2446,1.1325,1.1041,1.1249,1.0777,1.0926,1.1413,1.1694,1.2166,1.281,0.0,0.0,0.0,0.0,0.4256,0.0,0.0,0.0,0.6369,0.0,0.6169,0.6267,0.622,0.6219,0.6621,0.7606,0.75,0.0,0.7917,0.7694,0.0,0.0,0.6794,0.6512,0.6243,0.0,0.0,0.0,0.3444,0.315,0.3145,0.3127,0.0,0.0,0.4129,0.0,0.5333,0.5941,0.6713,0.7576,0.8161,0.8434,0.8487,0.8717,0.8844,0.8897,0.8857,0.887,0.8995,0.964,0.9878,1.0,1.0606,1.0389,0.9891,0.9814,0.9348,0.8844,0.8811,0.8791,0.856,0.7572,0.7308,0.0,0.0,0.0,0.6698,0.0,0.0,0.0,0.0,0.0,0.0,0.0,0.0,0.0,0.0,0.0,0.0,0.0,0.0,0.0,0.0,0.0,0.7646,0.8877,0.8615,0.0,0.0,1.1235,1.1352,1.1169,1.1509,1.1408,1.08,1.0771,1.075,1.075,1.075,1.0724,1.0699,1.0771,1.0775,1.0736,1.0409,1.0709,1.1351,1.0449,1.0532,1.1182,1.0817,1.0713,1.0863,1.1593,1.2886,1.4258,0.446,0.4427,0.4549,0.0,0.4822,0.4916,0.0,0.0,0.0,0.0,0.5191,0.5089,0.636,0.6498,0.6817,0.7637,0.8133,0.0,0.0,0.0,0.0,0.8041,0.7544,0.7122,0.6807,0.5931,0.0,0.4967,0.0,0.0,0.3767,0.0,0.0,0.0,0.0,0.0,0.5333,0.5941,0.6821,0.7831,0.8235,0.882,0.0,0.0,0.9426,1.0218,0.9723,0.9865,1.0312,1.0491,1.0876,1.1229,1.0902,1.1015,1.1091,1.009,0.9679,0.9439,0.8929,0.8791,0.8606,0.7807,0.7442,0.7068,0.0,0.0,0.0,0.0,0.0,0.0,0.0,0.0,0.0,0.0,0.0,0.0,0.0,0.0,0.0,0.0,0.0,0.0,0.0,0.0,0.7825,0.8494,0.8456,0.0,0.0,0.0,0.9596,1.0571,1.042,1.0478,1.08,1.0308,1.0064,1.0064,1.0064,0.9801,0.9348,1.0351,1.0529,1.0046,0.9969,1.0045,1.0209,0.9924,0.9925,1.0201,1.1135,1.222,1.322,1.2833,1.3711,1.5094,0.5118,0.0,0.0,0.5636,0.0,0.0,0.5607,0.0,0.0,0.5466,0.496,0.0,0.5929,0.608,0.6551,0.761,0.8076,0.0,0.8611,0.0,0.0,0.8409,0.8074,0.7734,0.7406,0.692,0.0,0.5479,0.0,0.0,0.3991,0.0,0.0,0.0,0.0,0.4649,0.0,0.6287,0.7205,0.7969,0.8715,0.9332,0.0,0.9705,1.0312,1.1191,1.08,1.0733,1.0838,1.1141,1.1491,1.1789,1.1733,1.1758,1.1653,1.0902,1.0466,1.0154,0.9775,0.9465,0.9139,0.8718,0.8287,0.7822,0.729,0.7162,0.7224,0.0,0.754,0.7757,0.0,0.0,0.0,0.0,0.0,0.0,0.0,0.0,0.0,0.0,0.0,0.0,0.0,0.0,0.0,0.0,0.0,0.0,0.0,0.0,0.9146,0.9636,0.9756,0.984,0.993,0.9549,0.9361,0.9361,0.9361,0.9159,0.8818,0.9575,0.9723,0.9361,0.9361,0.9361,0.9377,0.9445,0.9566,0.9798,1.0861,1.2473,1.41,1.3297,1.3801,1.4888,0.0,0.0,0.0,0.0,0.0,0.0,0.0,0.5956,0.0,0.5162,0.0,0.5471,0.5471,0.557,0.6195,0.7576,0.0,0.7912,0.8425,0.8755,0.8834,0.8601,0.8634,0.8494,0.8143,0.8066,0.0,0.0,0.0,0.0,0.4044,0.0,0.0,0.0,0.0,0.0,0.0,0.6787,0.7699,0.8131,0.932,0.9904,1.0115,1.061,1.1279,1.1935,1.1827,1.1491,1.1162,1.1749,1.1935,1.2055,1.2703,1.2464,1.1935,1.1827,1.1391,1.0914,1.0813,1.0312,0.9801,0.9801,0.9296,0.8744,0.8503,0.8456,0.8456,0.8456,0.8223,0.8342,0.0,0.0,0.0,0.0,0.0,0.0,0.0,0.0,0.0,0.0,0.0,0.0,0.0,0.0,0.0,0.0,0.0,0.0,0.0,0.0,0.9045,0.8601,0.9258,0.9357,0.8811,0.8791,0.8791,0.8791,0.8791,0.8791,0.8791,0.8791,0.8791,0.8791,0.8791,0.8791,0.8818,0.9091,0.9545,1.0137,1.0748,1.238,1.4264,1.3575,1.3621,1.4055,0.0,0.0,0.0,0.0,0.0,0.6609,0.6661,0.6629,0.6495,0.618,0.6274,0.6367,0.6367,0.6388,0.6759,0.763,0.7696,0.0,0.0,0.0,0.0,0.9559,0.9872,0.9847,0.9393,0.8951,0.8054,0.0,0.0,0.0,0.432,0.3759,0.0,0.0,0.0,0.0,0.6019,0.7059,0.0,0.8789,0.9514,1.0466,1.1404,1.0965,1.1596,1.263,1.203,1.2126,1.2556,1.2666,1.2703,1.2727,1.2859,1.281,1.2584,1.1972,1.1728,1.1504,1.0952,1.0312,0.9801,0.9801,0.9296,0.8791,0.8744,0.8731,0.8731,0.8731,0.8678,0.8636,0.8648,0.0,0.0,0.0,0.0,0.0,0.0,0.0,0.0,0.0,0.0,0.0,0.0,0.0,0.0,0.0,0.0,0.0,0.0,0.0,0.7186,0.0,0.8436,0.8698,0.0,0.0,0.8791,0.8791,0.8791,0.8791,0.8791,0.8791,0.8791,0.8791,0.8791,0.8791,0.8818,0.9091,1.0335,1.2157,1.282,1.3939,1.5167,1.5035,1.4228,1.3312,0.0,0.0,0.0,0.0,0.0,0.0,0.0,0.7747,0.0,0.6522,0.6452,0.6636,0.7016,0.7132,0.7463,0.8209,0.8275,0.8567,0.927,0.9627,0.9948,1.03,1.0506,0.0,1.0064,0.9877,0.9056,0.7576,0.0,0.0,0.4695,0.4027,0.0,0.0,0.0,0.5368,0.0,0.0,0.0,0.9015,1.0314,1.1216,1.1814,1.1869,1.2304,1.2856,1.2498,1.2596,1.2905,1.2905,1.2905,1.2905,1.2905,1.2905,1.2832,1.2476,1.2369,1.2295,1.1987,1.112,1.0312,1.0312,0.9549,0.8791,0.8791,0.8791,0.8791,0.8791,0.8791,0.8717,0.8456,0.813,0.0,0.0,0.0,0.0,0.0,0.0,0.0,0.0,0.0,0.0,0.0,0.0,0.0,0.0,0.0,0.0,0.0,0.0,0.6238,0.0,0.0,0.0,0.8222,0.0,0.8791,0.8791,0.8791,0.8791,0.8791,0.8791,0.8791,0.8791,0.8791,0.8791,0.8858,0.9506,1.0659,1.2089,1.2726,1.3845,1.5065,1.4847,1.4288,1.3621,0.0,0.7722,0.0,0.0,0.7959,0.0,0.8362,0.863,0.8344,0.7074,0.691,0.7072,0.7489,0.7639,0.7943,0.8507,0.8705,0.9073,0.9749,1.0064,1.0466,1.099,1.1162,1.1103,1.0793,1.0882,1.0143,0.0,0.0,0.0,0.5215,0.4479,0.0,0.0,0.0,0.0,0.0,0.0,0.8833,0.9373,1.1101,1.1898,1.2104,1.2679,1.2905,1.2905,1.2905,1.2905,1.2905,1.2905,1.2905,1.2905,1.2905,1.2905,1.2905,1.2905,1.2905,1.2905,1.2905,1.1866,1.08,1.08,0.9788,0.8791,0.8791,0.8791,0.8791,0.8791,0.8791,0.8717,0.8456,0.823,0.0,0.0,0.0,0.0,0.0,0.0,0.0,0.0,0.0,0.0,0.0,0.0,0.0,0.0,0.0,0.0,0.4322,0.4966,0.5526,0.0,0.0,0.7415,0.7423,0.0,0.8725,0.856,0.8725,0.8791,0.8791,0.8791,0.8791,0.8791,0.8791,0.8883,0.9081,1.0018,1.0915,1.177,1.2396,1.3525,1.4768,1.4445,1.4274,1.4109,0.0,0.0,0.0,0.0,0.0,0.0,0.8395,0.863,0.8745,0.8593,0.8574,0.835,0.7754,0.7692,0.7723,0.7803,0.8356,0.9019,0.9749,1.0939,1.1641,1.1703,1.2353,1.2486,1.2041,1.2039,1.1199,0.0,0.0,0.7625,0.5983,0.5239,0.5001,0.0,0.0,0.0,0.0,0.8308,0.9412,1.0352,1.1386,1.22,1.2798,1.2869,1.2905,1.2905,1.2905,1.2905,1.2905,1.2905,1.2905,1.2905,1.2905,1.2905,1.2905,1.2905,1.2905,1.2905,1.2905,1.1866,1.08,1.08,0.9788,0.8791,0.8791,0.8791,0.8791,0.8791,0.8791,0.8717,0.8456,0.8577,0.8538,0.0,0.0,0.0,0.0,0.0,0.0,0.0,0.0,0.0,0.0,0.4443,0.0,0.0,0.0,0.0,0.4002,0.4118,0.4644,0.57,0.6641,0.6934,0.6527,0.8032,0.8467,0.7817,0.848,0.8791,0.8791,0.8791,0.8791,0.8791,0.8791,0.9146,0.9756,1.0467,1.1413,1.2468,1.3145,1.3968,1.4799,1.4754,1.451,1.4198,0.0,0.0,0.0,0.0,0.0,0.0,0.0,0.8731,0.8791,0.8791,0.8791,0.8685,0.8388,0.8712,0.8968,0.8968,0.9577,1.0263,1.0952,1.1883,1.2577,1.2974,1.328,1.3351,1.3156,1.253,1.1747,0.0,0.0,0.8487,0.7103,0.6287,0.5883,0.0,0.0,0.7106,0.7409,0.9086,1.0034,1.0523,1.1896,1.2642,1.2905,1.2905,1.2905,1.2905,1.2905,1.2905,1.2905,1.2905,1.2905,1.2905,1.2905,1.2905,1.2905,1.2905,1.2905,1.2905,1.2905,1.2172,1.1404,1.1404,1.0686,1.0,1.0,0.9692,0.94,0.94,0.9087,0.8771,0.8657,0.8929,0.9006,0.8514,0.0,0.0,0.0,0.0,0.0,0.0,0.0,0.0,0.0,0.0,0.0,0.0,0.0,0.0,0.332,0.3417,0.3908,0.4896,0.0,0.6686,0.6936,0.8182,0.8659,0.8361,0.8659,0.8791,0.8791,0.8791,0.8791,0.8791,0.8791,0.8956,0.929,1.0364,1.1069,1.1571,1.2536,1.3211,1.3691,1.4068,1.4198,1.4198,1.0889,0.0,0.9645,0.0,0.938,0.8941,0.9325,0.9387,0.9387,0.9387,0.9387,0.9309,0.9119,0.9684,1.009,1.009,1.0707,1.1383,1.2052,1.2723,1.3382,1.4038,1.4062,0.0,1.3792,1.3057,1.2383,1.178,1.0713,0.962,0.8515,0.7545,0.0,0.0,0.7408,0.777,0.789,0.9735,1.0527,1.0662,1.2253,1.2905,1.2905,1.2905,1.2905,1.2905,1.2905,1.2905,1.2905,1.2905,1.2905,1.2905,1.2905,1.2905,1.2905,1.2905,1.2905,1.2905,1.2905,1.2356,1.1802,1.1802,1.1304,1.08,1.08,1.0427,1.0038,0.984,0.9263,0.8791,0.8791,0.9036,0.9073,0.8608,0.0,0.0,0.0,0.0,0.0,0.0,0.5795,0.5163,0.4598,0.0,0.0,0.0,0.0,0.0,0.0,0.0,0.0,0.0,0.0,0.0,0.6706,0.8098,0.8685,0.848,0.8699,0.8791,0.8791,0.8791,0.8791,0.8791,0.8791,0.891,0.9159,1.0115,1.0737,1.1166,1.1982,1.2613,1.3099,1.3328,1.368,1.3998,1.08,1.0261,1.0012,1.0674,1.0223,1.0012,1.0674,1.0775,1.0775,1.0775,1.0775,1.0517,0.9865,1.0389,1.0788,1.0788,1.1404,1.2064,1.274,1.3416,1.4062,0.0,0.0,1.441,1.3804,1.3792,1.3267,1.2192,0.0,0.0,1.0237,0.9039,0.8118,0.7509,0.8114,0.8389,0.849,1.0113,1.08,1.0927,1.2329,1.2905,1.2905,1.2905,1.2905,1.2905,1.2905,1.2905,1.2905,1.2905,1.2905,1.2905,1.2905,1.2905,1.2905,1.2905,1.2905,1.2905,1.2905,1.2356,1.1802,1.1802,1.1304,1.08,1.08,1.0788,1.0606,0.9935,0.9263,0.8791,0.8791,0.8804,0.8611,0.8012,0.0,0.0,0.0,0.0,0.0,0.0,0.5434,0.4917,0.4449,0.0,0.0,0.0,0.0,0.0,0.0,0.0,0.0,0.3786,0.5496,0.0,0.5328,0.7627,0.8441,0.7723,0.8454,0.8791,0.8791,0.8791,0.8791,0.8791,0.8791,0.9172,0.9788,0.9801,1.0585,1.1789,1.1802,1.2501,1.3413,1.2759,1.2982,1.3507,1.223,1.1646,1.1229,1.1441,1.0927,1.0547,1.0771,1.08,1.0956,1.1369,1.1852,1.2232,1.2445,1.2281,1.2156,0.0,1.3148,1.3876,0.0,1.4687,1.5118,1.5309,1.5309,1.5028,1.4433,1.4003,1.3433,1.2676,0.0,0.0,0.0,0.8893,0.8313,0.8127,0.851,0.8929,0.9424,1.0392,1.1065,1.1603,1.2969,1.3505,1.3505,1.3505,1.3505,1.3457,1.3053,1.3164,1.3505,1.3505,1.3789,1.4131,1.4131,1.3838,1.3588,1.4002,1.3836,1.3505,1.3505,1.3047,1.2547,1.2547,1.24,1.223,1.223,1.1496,1.0606,0.9935,0.9627,0.9491,0.9491,1.0231,1.0427,0.9131,0.9197,0.0,0.7532,0.0,0.0,0.0,0.5728,0.5042,0.0,0.3679,0.0,0.0,0.0,0.0,0.0,0.0,0.0,0.0,0.5636,0.0,0.666,0.8085,0.8685,0.8454,0.8685,0.8791,0.8791,0.8791,0.8791,0.8791,0.8791,0.9185,0.984,1.0287,1.0724,1.1166,1.1628,1.1877,1.2035,1.238,1.2766,1.3141,1.2905,1.2307,1.1898,1.2163,1.1851,1.1635,1.1883,1.2119,1.2403,1.2782,1.3221,1.3656,1.403,1.3938,0.0,1.3526,1.4249,1.4789,1.5028,1.5387,1.5698,1.593,1.5941,1.5666,1.5051,1.4456,0.0,1.3238,1.2716,1.1651,1.0097,0.9559,0.9026,0.8569,0.8984,0.9413,0.9865,1.0775,1.1425,1.1907,1.3016,1.3457,1.3457,1.3457,1.3601,1.3755,1.3372,1.3624,1.4143,1.4143,1.4387,1.4732,1.4971,1.4778,1.4503,1.4663,1.4433,1.4085,1.3862,1.3517,1.3188,1.2966,1.2905,1.2905,1.2905,1.2011,1.1065,1.0644,1.0351,1.0179,1.0179,1.0864,1.0995,0.9727,0.9525,0.9083,0.7834,0.0,0.0,0.0,0.0,0.0,0.0,0.3811,0.3383,0.0,0.0,0.0,0.0,0.0,0.3869,0.4241,0.5697,0.6657,0.7041,0.8207,0.8791,0.8791,0.8791,0.8929,0.9172,0.9172,0.9172,0.9172,0.9172,0.927,0.9471,1.0154,1.0572,1.0864,1.1541,1.1838,1.1929,1.2147,1.2424,1.2676,1.2905,1.2344,1.2116,0.0,1.2919,1.3096,1.3768,1.4341,1.4721,1.4766,1.4755,1.4778,1.4812,1.532,1.5443,1.4869,0.0,0.0,1.5621,1.5654,1.5908,1.6479,1.65,1.6216,1.561,1.5051,1.4456,1.3792,1.3142,1.2157,1.0864,1.0813,1.0128,0.8976,0.9588,0.9904,1.0012,1.1279,1.1832,1.1934,1.2666,1.2956,1.2978,1.3005,1.336,1.3862,1.3862,1.4248,1.4755,1.4755,1.4789,1.4926,1.5488,1.5654,1.5554,1.4994,1.4789,1.4641,1.4085,1.3886,1.3732,1.3164,1.3017,1.3005,1.2978,1.2405,1.1864,1.1814,1.1304,1.0864,1.0864,1.0902,1.0693,0.9902,0.9324,0.8724,0.8002,0.7384,0.0,0.0,0.0,0.0,0.3443,0.398,0.4125,0.0,0.0,0.0,0.0,0.0,0.4136,0.402,0.5694,0.6602,0.6602,0.8063,0.8791,0.8791,0.8791,0.9126,0.9736,0.9736,0.9736,0.9736,0.9736,0.94,0.8923,0.9536,1.0167,1.08,1.1516,1.2187,1.2679,1.2043,1.2004,1.2175,0.0,0.0,1.2839,1.3481,1.3567,1.377,1.4387,1.4606,1.4869,1.5332,1.5387,1.5566,1.602,1.6194,1.6227,1.6086,1.6075,1.6129,1.627,1.6281,1.6358,1.6488,1.65,1.6216,1.561,1.5465,1.4869,1.3792,1.2633,1.1885,1.1554,1.104,1.0623,1.0325,1.0491,1.0851,1.1354,1.1665,1.2126,1.2691,1.3326,1.3588,1.3647,1.4096,1.4363,1.4491,1.4491,1.4869,1.5387,1.5387,1.5688,1.6096,1.6238,1.6281,1.6259,1.6118,1.5755,1.5354,1.5208,1.4835,1.4445,1.4305,1.4271,1.4154,1.3695,1.3058,1.2422,1.1913,1.1678,1.1566,1.1566,1.2027,1.1985,1.0741,1.0089,0.9311,0.8075,0.7384,0.6889,0.0,0.6482,0.6041,0.5034,0.4843,0.4481,0.0,0.0,0.3829,0.3803,0.4056,0.4187,0.4153,0.5744,0.6602,0.6602,0.8063,0.8791,0.8791,0.8791,0.8883,0.9035,0.9035,0.9035,0.9035,0.9035,0.9237,0.9575,0.9736,0.9891,1.0154,1.1341,1.1591,1.1338,1.1678,1.1852,1.1798,1.3717,1.3717,1.3825,1.4143,1.4434,1.4721,1.5062,1.5354,1.5633,1.5975,1.6222,1.6502,1.6824,1.7087,1.7229,1.7229,1.6784,1.65,1.65,1.65,1.65,1.65,1.65,1.6358,1.6019,1.5743,1.5005,1.3792,1.2798,1.2129,1.1789,1.1429,1.1091,1.0813,1.1116,1.1466,1.1827,1.2163,1.2525,1.2929,1.3262,1.3552,1.3849,1.4155,1.4629,1.5107,1.5107,1.5499,1.6008,1.6008,1.6227,1.65,1.65,1.65,1.65,1.65,1.627,1.5953,1.5665,1.5354,1.5051,1.4766,1.4698,1.4606,1.4283,1.3722,1.3144,1.2793,1.2496,1.2307,1.2307,1.2455,1.219,1.0984,1.0166,0.9267,0.8071,0.7384,0.6957,0.6828,0.6936,0.6693,0.5895,0.5627,0.5183,0.4446,0.423,0.0,0.3993,0.4206,0.4291,0.4197,0.5757,0.6602,0.6602,0.8063,0.8791,0.8791,0.8791,0.8956,0.9263,0.9263,0.9263,0.9263,0.9263,0.929,0.9361,0.9671,0.9801,0.9904,1.0939,1.1316,1.1266,1.1316,1.1541,1.168,1.4698,1.4698,1.4721,1.4812,1.5264,1.5632,1.572,1.6173,1.6532,1.6605,1.7024,1.7333,1.7415,1.7837,1.8106,1.8106,1.7271,1.6731,1.6731,1.6731,1.6699,1.6616,1.6616,1.6573,1.65,1.582,1.496,1.3933,1.3238,1.2584,1.1972,1.1972,1.1662,1.1137,1.1712,1.1972,1.2009,1.263,1.2905,1.2917,1.3005,1.3346,1.3827,1.4086,1.4835,1.5741,1.5928,1.6244,1.6627,1.6699,1.6627,1.6511,1.6595,1.6563,1.65,1.65,1.65,1.6391,1.5875,1.5743,1.5611,1.5107,1.4971,1.4949,1.4858,1.4376,1.3909,1.3815,1.3312,1.2905,1.2905,1.2566,1.1985,1.0965,1.0044,0.9104,0.8045,0.0,0.7039,0.6769,0.7276,0.7296,0.6451,0.6389,0.6106,0.5373,0.489,0.4562,0.4403,0.4463,0.4419,0.4257,0.5676,0.6548,0.6764,0.8116,0.8791,0.8791,0.8791,0.91,0.9653,0.9653,0.9653,0.9653,0.9653,0.9322,0.8857,0.9523,0.9801,0.9865,1.0542,1.1153,1.1566,1.0902,1.1002,1.1404,1.4698,1.4698,1.4858,1.5365,1.5543,1.5776,1.627,1.6434,1.6659,1.7115,1.725,1.7463,1.7937,1.8056,1.8106,1.8106,1.7957,1.7857,1.7857,1.7857,1.7646,1.7198,1.7178,1.6961,1.6511,1.541,1.4744,1.456,1.3454,1.2835,1.2727,1.2727,1.2666,1.2581,1.2679,1.2727,1.2749,1.2856,1.2905,1.2942,1.3467,1.372,1.3968,1.5429,1.611,1.6389,1.7375,1.748,1.725,1.7696,1.725,1.6573,1.7034,1.6869,1.65,1.65,1.65,1.6477,1.6391,1.6369,1.6348,1.6238,1.6216,1.6096,1.5577,1.4994,1.4422,1.3909,1.3312,1.2905,1.2905,1.2844,1.2356,1.1023,1.0476,0.969,0.8124,0.0,0.7663,0.7394,0.7899,0.7958,0.7201,0.723,0.7041,0.642,0.5628,0.5214,0.5293,0.4786,0.4494,0.4457,0.5247,0.6262,0.7523,0.8374,0.8791,0.8791,0.8791,0.8857,0.8956,0.8956,0.8956,0.8956,0.8956,0.8897,0.8857,0.9523,0.9801,0.9865,1.0542,1.0864,1.0876,1.0205,1.0012,1.0012,1.5667,1.5667,1.5755,1.6041,1.6073,1.6183,1.6468,1.65,1.6691,1.7229,1.7544,1.7947,1.8467,1.8798,1.9047,1.9262,1.929,1.929,1.929,1.8545,1.7997,1.7747,1.7737,1.7473,1.694,1.5465,1.4698,1.4698,1.349,1.2905,1.2905,1.2905,1.2905,1.2905,1.2905,1.2905,1.2905,1.2905,1.3091,1.3408,1.3684,1.4191,1.4858,1.5663,1.6348,1.6954,1.7483,1.7696,1.7727,1.7676,1.7343,1.6919,1.689,1.6689,1.65,1.65,1.6689,1.693,1.693,1.693,1.693,1.693,1.6699,1.6423,1.6149,1.5622,1.5005,1.441,1.3802,1.3286,1.2956,1.2686,1.2101,1.0798,1.0269,0.9523,0.8099,0.7906,0.7924,0.7973,0.8228,0.8316,0.8126,0.7808,0.7489,0.7216,0.6453,0.586,0.5524,0.5205,0.4869,0.4519,0.5537,0.661,0.7696,0.8427,0.8791,0.8791,0.8791,0.8791,0.8791,0.8791,0.8791,0.8791,0.8791,0.8791,0.8818,0.9133,0.9263,0.9296,0.9601,0.9943,1.0179,0.9517,0.9491,0.9705,1.65,1.65,1.65,1.65,1.65,1.65,1.65,1.6605,1.689,1.7425,1.7957,1.8535,1.9159,1.9591,2.0008,2.0424,2.0466,2.0416,2.0314,1.9244,1.8507,1.8302,1.8056,1.7727,1.7312,1.5598,1.4698,1.4698,1.349,1.2905,1.2905,1.2905,1.2905,1.2905,1.2905,1.2905,1.2917,1.3053,1.3372,1.3815,1.412,1.4858,1.5818,1.6079,1.672,1.7493,1.7626,1.7867,1.8066,1.7777,1.7504,1.725,1.6961,1.6795,1.6691,1.6691,1.7076,1.7453,1.7333,1.7302,1.7271,1.7146,1.6805,1.65,1.65,1.603,1.5432,1.4824,1.4213,1.3613,1.3017,1.2607,1.1926,1.0614,0.0,0.965,0.8121,0.8151,0.8361,0.8394,0.8462,0.8577,0.8784,0.8289,0.7883,0.771,0.702,0.6285,0.5542,0.5351,0.5095,0.4746,0.5946,0.6872,0.7436,0.8342,0.8791,0.8791,0.8791,0.8791,0.8791,0.8791,0.8791,0.8791,0.8791,0.8791,0.8818,0.8976,0.9035,0.9035,0.9035,0.9348,0.971,0.9048,0.9126,0.9497,1.65,1.65,1.65,1.65,1.65,1.65,1.65,1.6919,1.7422,1.7977,1.8516,1.9196,2.0093,2.0237,2.0441,2.091,2.0943,2.0756,2.0331,2.0203,1.9752,1.8869,1.7897,1.7343,1.7302,1.5598,1.4698,1.4698,1.349,1.2905,1.2905,1.2905,1.2905,1.2905,1.2905,1.2905,1.2942,1.3503,1.3767,1.3898,1.5016,1.5829,1.6453,1.7518,1.7963,1.8116,1.8602,1.8487,1.8175,1.8631,1.8125,1.7384,1.7847,1.7636,1.724,1.724,1.7615,1.7937,1.7422,1.7302,1.7178,1.668,1.6532,1.65,1.65,1.603,1.5432,1.4824,1.4213,1.3613,1.3017,1.2864,1.2303,1.0668,0.0,0.0,0.8259,0.8914,0.9344,0.8497,0.8624,0.8784,0.8804,0.8752,0.8441,0.775,0.702,0.6285,0.5542,0.4911,0.4842,0.5406,0.619,0.6629,0.6683,0.8089,0.8791,0.8791,0.8791,0.8791,0.8791,0.8791,0.8791,0.8791,0.8791,0.8791,0.8844,0.9471,0.9731,0.9731,0.9731,0.9749,0.971,0.9048,0.8831,0.887,1.6563,1.65,1.65,1.65,1.65,1.65,1.65,1.6961,1.7483,1.8037,1.8574,1.926,2.0203,2.0306,2.0591,2.1314,2.1142,2.0918,2.0756,2.0466,1.9875,1.8949,1.8194,1.7636,1.7312,1.5598,1.4698,1.4698,1.349,1.2905,1.2905,1.2905,1.2905,1.2917,1.3286,1.3467,1.3517,1.447,1.5061,1.5474,1.6268,1.6946,1.7507,1.7933,1.8312,1.8583,1.8448,1.8487,1.8583,1.8448,1.8135,1.7837,1.8046,1.7967,1.7867,1.8194,1.8438,1.8477,1.7947,1.7544,1.725,1.7055,1.6752,1.65,1.65,1.6326,1.5887,1.4903,1.4514,1.4061,1.3077,1.2905,1.2536,1.1454,0.0,1.0697,0.9272,0.9134,0.9052,0.8696,0.8738,0.8791,0.8791,0.8791,0.8685,0.8401,0.8129,0.745,0.624,0.5505,0.5232,0.5487,0.6659,0.7276,0.7276,0.8295,0.8791,0.8791,0.8791,0.8791,0.8791,0.8791,0.8791,0.8818,0.9237,0.9185,0.8883,0.9974,1.0179,0.9801,0.9801,0.9801,0.971,0.9048,0.8791,0.8791,1.6869,1.6752,1.6689,1.6532,1.65,1.6552,1.6721,1.7209,1.7747,1.8283,1.893,1.9636,2.0441,2.0625,2.1015,2.1757,2.1438,2.1126,2.1015,2.0448,1.974,1.894,1.839,1.7857,1.7312,1.5785,1.4892,1.4698,1.3872,1.3272,1.2917,1.3296,1.3358,1.3202,1.3814,1.4179,1.4401,1.5361,1.6128,1.6705,1.7253,1.7836,1.8351,1.8351,1.8477,1.8602,1.8234,1.8341,1.8593,1.8224,1.8214,1.8351,1.8351,1.8243,1.8243,1.894,1.8912,1.8612,1.8409,1.7847,1.726,1.7097,1.6774,1.65,1.65,1.65,1.6163,1.4949,1.4698,1.4329,1.3126,1.2905,1.2666,1.1922,1.1612,1.1137,1.0244,0.971,0.9348,0.9133,0.8923,0.8791,0.8791,0.8791,0.8699,0.8467,0.8454,0.791,0.6669,0.6118,0.595,0.6181,0.7176,0.7817,0.8049,0.8547,0.8791,0.8791,0.8791,0.8791,0.8791,0.8791,0.8791,0.8818,0.929,0.9348,0.9185,1.0102,1.0338,1.0115,1.0115,1.0115,1.0025,0.9361,0.9106,0.9087,1.7415,1.7312,1.7136,1.6595,1.6511,1.6691,1.7219,1.7767,1.8302,1.8845,1.9725,2.0483,2.0951,2.1361,2.1787,2.2268,2.1877,2.1422,2.1015,2.0174,1.946,1.8921,1.839,1.7857,1.7312,1.6188,1.5309,1.4709,1.4698,1.4095,1.2942,1.4142,1.4376,1.3827,1.4445,1.5005,1.5548,1.6162,1.6726,1.7271,1.787,1.8429,1.8912,1.8912,1.8583,1.8116,1.8116,1.8116,1.8116,1.8116,1.8458,1.8902,1.8902,1.8535,1.8312,1.9378,1.894,1.8224,1.8746,1.8116,1.7178,1.6637,1.65,1.65,1.65,1.65,1.6151,1.4949,1.4698,1.4329,1.3126,1.2905,1.2666,1.1935,1.2415,1.24,1.1002,1.08,1.0547,0.9891,0.9224,0.8818,0.8811,0.8811,0.8507,0.7763,0.771,0.7388,0.6642,0.6615,0.6939,0.7683,0.771,0.8063,0.8791,0.8791,0.8791,0.8791,0.8791,0.8791,0.8791,0.8791,0.8791,0.8791,0.8811,0.9185,0.9801,0.9814,1.0205,1.08,1.08,1.08,1.0733,1.0064,0.9801,0.971,1.7977,1.8165,1.8135,1.7219,1.7374,1.7544,1.7333,1.8076,1.8841,1.9323,1.9913,2.0591,2.1345,2.1521,2.1787,2.2268,2.1877,2.1282,2.0558,2.0,1.946,1.8921,1.8746,1.8234,1.7322,1.6553,1.5883,1.5332,1.4915,1.4525,1.4166,1.4537,1.4595,1.4456,1.5062,1.563,1.6205,1.7187,1.7896,1.8449,1.9006,1.9323,1.946,1.946,1.936,1.9169,1.8807,1.866,1.866,1.866,1.8765,1.8902,1.8902,1.8798,1.865,1.8593,1.8622,1.8535,1.7947,1.7827,1.7737,1.7198,1.6784,1.65,1.65,1.6173,1.5776,1.541,1.4652,1.3956,1.36,1.3188,1.2832,1.2618,1.232,1.1972,1.1566,1.1103,1.0733,1.0529,1.0333,1.0012,0.9549,0.9497,0.9217,0.852,0.7996,0.7603,0.7388,0.7369,0.7477,0.7696,0.8196,0.8573,0.8791,0.8791,0.8791,0.8791,0.8791,0.8791,0.8791,0.8791,0.8791,0.8818,0.9296,0.9614,0.9878,1.0813,1.1316,1.1504,1.1504,1.1504,1.1416,1.0758,1.0504,1.0402,1.8525,1.8679,1.8631,1.7777,1.7887,1.8066,1.7957,1.8631,1.9346,1.9816,2.0418,2.1007,2.1536,2.1772,2.1996,2.2282,2.1877,2.1306,2.0616,2.0354,2.0072,1.9736,1.9555,1.8878,1.7646,1.7262,1.6802,1.6227,1.5894,1.5475,1.5028,1.5287,1.5276,1.5084,1.5906,1.6572,1.7136,1.8029,1.8727,1.9234,1.9575,1.9708,1.9708,1.9708,1.9575,1.9341,1.9015,1.8902,1.8902,1.8902,1.9034,1.9216,1.9216,1.893,1.8602,1.8698,1.8516,1.8224,1.7997,1.7867,1.7717,1.7384,1.6898,1.65,1.65,1.6216,1.5886,1.5643,1.4835,1.4085,1.3839,1.331,1.2905,1.2905,1.2535,1.2236,1.2236,1.1637,1.1204,1.1204,1.0965,1.0644,1.0223,0.9948,0.9523,0.8857,0.8388,0.8129,0.8129,0.8129,0.8129,0.8129,0.856,0.8791,0.8791,0.8791,0.8791,0.8791,0.8791,0.8791,0.8791,0.8791,0.8791,0.8818,0.9224,0.9705,1.0261,1.1078,1.1724,1.2236,1.2236,1.2236,1.215,1.1441,1.1204,1.1065,1.9127,1.9006,1.8807,1.8273,1.8214,1.8409,1.8888,1.935,1.9845,2.04,2.1157,2.1679,2.1737,2.2101,2.2335,2.2335,2.1882,2.1445,2.1079,2.1015,2.0991,2.0991,2.0583,1.9704,1.8337,1.821,1.7876,1.7281,1.7334,1.6781,1.5669,1.6299,1.6279,1.5808,1.6841,1.7615,1.8204,1.8688,1.9207,1.9708,1.9708,1.9708,1.9708,1.9708,1.9396,1.8968,1.8968,1.8968,1.8968,1.8968,1.929,1.9699,1.9639,1.8959,1.8351,1.9271,1.8525,1.7565,1.8506,1.8046,1.7291,1.724,1.6869,1.65,1.65,1.6468,1.627,1.5787,1.5107,1.4468,1.3968,1.3346,1.2905,1.2905,1.2905,1.2905,1.2905,1.232,1.1901,1.1901,1.1354,1.0952,1.0902,1.0231,0.9523,0.8857,0.8791,0.8791,0.8791,0.8791,0.8791,0.8791,0.8791,0.8791,0.8791,0.8791,0.8791,0.8791,0.8791,0.8791,0.8804,0.8857,0.8883,0.8883,0.8883,0.9645,1.0876,1.0813,1.1633,1.2905,1.2905,1.2905,1.2822,1.2141,1.1901,1.1715,2.003,1.9737,1.936,1.8826,1.9062,1.9367,1.9432,1.9858,2.0512,2.1573,2.1867,2.2214,2.2781,2.2701,2.2619,2.2619,2.1991,2.1552,2.1476,2.1166,2.0991,2.0991,2.0902,2.0533,1.9842,1.9098,1.8453,1.79,1.7913,1.7582,1.6909,1.7063,1.7063,1.6946,1.7185,1.7837,1.8727,1.8855,1.9207,1.9708,1.9708,1.9708,1.9708,1.9708,1.963,1.9539,1.9539,1.9539,1.9539,1.9539,1.9603,1.963,1.9207,1.8912,1.8688,1.8506,1.8204,1.7897,1.7696,1.7473,1.7198,1.6784,1.6584,1.65,1.65,1.6128,1.5886,1.6227,1.5073,1.4097,1.4445,1.3634,1.2905,1.2905,1.2905,1.2905,1.2905,1.2761,1.2666,1.2666,1.2522,1.2218,1.1641,1.0504,0.9523,0.8857,0.8791,0.8791,0.8791,0.8791,0.8791,0.8791,0.8791,0.8791,0.8791,0.8791,0.8791,0.8791,0.8791,0.8791,0.8818,0.9348,0.9588,0.9588,0.9588,1.0338,1.1541,1.1015,1.1633,1.2905,1.2905,1.2905,1.2881,1.2725,1.2666,1.2535,2.0306,2.0132,1.9903,1.9624,1.9993,2.0304,2.0266,2.0642,2.1195,2.2005,2.2161,2.2399,2.291,2.2691,2.2514,2.2514,2.2165,2.1928,2.1928,2.1744,2.1615,2.1615,2.1408,2.107,2.0633,1.9937,1.9343,1.8864,1.8612,1.8341,1.8066,1.7807,1.7676,1.7686,1.7957,1.837,1.8921,1.9169,1.9433,1.9729,2.0058,2.0183,2.0183,2.0183,2.0183,2.0148,1.9803,1.9708,1.9708,1.9708,1.9708,1.9648,1.9369,1.9114,1.8902,1.8874,1.8322,1.7717,1.7686,1.7312,1.6858,1.6563,1.65,1.65,1.65,1.6259,1.6041,1.6062,1.5084,1.4236,1.4271,1.3515,1.2905,1.2905,1.2905,1.2905,1.2905,1.2905,1.2905,1.2905,1.2905,1.2618,1.1864,1.0876,1.0,0.9322,0.8982,0.8791,0.8791,0.8791,0.8791,0.8791,0.8791,0.8791,0.8791,0.8791,0.8791,0.8791,0.8791,0.8976,0.929,0.964,0.9974,1.0274,1.0274,1.0864,1.1777,1.1416,1.1928,1.2905,1.2905,1.2691,1.2381,1.2381,1.2172,1.1841,2.0517,2.0475,2.0416,2.0416,2.0732,2.1015,2.1086,2.1384,2.1766,2.2235,2.2382,2.2564,2.2835,2.2574,2.2356,2.2303,2.2296,2.2296,2.2296,2.2296,2.2296,2.2296,2.1928,2.153,2.111,2.0649,2.0184,1.9708,1.9244,1.8987,1.8893,1.8438,1.8243,1.8263,1.8698,1.8949,1.9076,1.963,1.9863,1.9938,2.0593,2.0877,2.0877,2.0877,2.0877,2.0787,2.0109,1.9803,1.9708,1.9708,1.9708,1.9708,1.9708,1.9387,1.9123,1.9575,1.8631,1.7524,1.7987,1.7322,1.65,1.65,1.65,1.65,1.65,1.65,1.6369,1.5853,1.5197,1.4549,1.405,1.3382,1.2905,1.2905,1.2905,1.2905,1.2905,1.2905,1.2905,1.2905,1.2905,1.2618,1.1864,1.1304,1.0656,0.9865,0.929,0.8923,0.8811,0.8791,0.8791,0.8791,0.8791,0.8791,0.8791,0.8923,0.8969,0.8969,0.9087,0.9374,0.9801,1.0038,1.0453,1.0977,1.0977,1.1354,1.1972,1.1851,1.2224,1.2905,1.2905,1.2535,1.1984,1.1984,1.1562,1.099,2.1413,2.1134,2.091,2.091,2.0959,2.1118,2.1468,2.1559,2.1953,2.293,2.3063,2.32,2.3533,2.3009,2.255,2.2314,2.2296,2.2296,2.2296,2.2296,2.2296,2.2296,2.223,2.1996,2.1521,2.1118,2.0507,1.9708,1.963,1.935,1.8902,1.8836,1.8798,1.8798,1.8874,1.916,1.9638,2.029,2.0563,2.0623,2.1291,2.156,2.156,2.156,2.156,2.1485,2.0812,2.0183,1.9708,1.9708,1.9708,1.9708,1.9708,1.9648,1.9612,1.969,1.8893,1.8017,1.8086,1.7322,1.65,1.65,1.65,1.65,1.65,1.65,1.6479,1.6402,1.5477,1.4686,1.4583,1.3658,1.2905,1.2905,1.2905,1.2905,1.2905,1.2905,1.2905,1.2905,1.2905,1.2618,1.1864,1.1728,1.1153,0.9891,0.971,0.9413,0.8831,0.8791,0.8791,0.8791,0.8791,0.8791,0.8791,0.9374,0.9666,0.9671,1.0249,1.0274,0.984,1.1002,1.1578,1.1665,1.1665,1.208,1.2703,1.2067,1.2224,1.2905,1.2905,1.2835,1.2752,1.2752,1.2295,1.1752,2.1845,2.1595,2.1451,2.1826,2.1914,2.2075,2.2438,2.2491,2.2724,2.3392,2.3323,2.3335,2.3666,2.3099,2.2586,2.2314,2.2296,2.2296,2.2296,2.2296,2.2296,2.2296,2.2296,2.2085,2.1621,2.1422,2.1047,2.0438,1.9936,1.9584,1.935,1.9579,1.968,1.9689,1.9963,2.0203,2.0429,2.0452,2.0484,2.0548,2.1367,2.1695,2.1749,2.2119,2.2258,2.2124,2.1071,2.0273,1.9708,1.9708,1.9708,1.9708,1.9708,1.9708,1.9708,1.9708,1.9151,1.8477,1.8185,1.7534,1.6879,1.6563,1.65,1.65,1.65,1.65,1.6402,1.6062,1.5577,1.5096,1.4755,1.4259,1.3907,1.3907,1.3612,1.3396,1.3396,1.3116,1.2905,1.2905,1.2905,1.2774,1.2452,1.2043,1.1554,1.0965,1.0218,0.9671,0.9374,0.8995,0.8791,0.8791,0.8791,0.8982,0.9361,0.9653,0.9994,1.0364,1.104,1.1204,1.0939,1.1529,1.203,1.2415,1.2415,1.2596,1.2869,1.2547,1.2618,1.2905,1.2905,1.2654,1.2246,1.1866,1.1758,1.1851]}]]